[[{"header":{"parameterUnit":"m.s-1","parameterCategory":1,"la1":30.6,"la2":29.2853,"lo1":-89.7004,"lo2":-87.6739,"dy":0.0162,"dx":0.0183,"nx":112,"ny":82,"refTime":"2024-09-22T12:00:00:Z","depth":0,"parameterNumber":2,"parameterNumberName":"U-component_of_WINDS"},"data":[0.0,0.0,0.0,0.0,0.0,0.0,0.0,0.0,0.0,0.0,0.0,0.0,0.0,0.0,0.0,0.0,0.0,0.0,0.0,0.0,0.0,0.0,0.0,0.0,0.0,0.0,0.0,0.0,0.0,0.0,0.0,0.0,0.0,0.0,0.0,0.0,0.0,0.0,0.0,0.0,0.0,0.0,0.0,0.0,0.0,0.0,0.0,0.0,0.0,0.0,0.0,0.0,0.0,0.0,0.0,0.0,0.0,0.0,0.0,0.0,0.0,0.0,0.0,0.0,0.0,0.0,0.0,0.0,0.0,0.0,0.0,0.0,0.0,0.0,0.0,0.0,0.0,0.0,0.0,0.0,0.0,0.0,0.0,0.0,0.0,0.0,0.0,0.0,0.0,0.0,6.4372,6.7904,7.2708,7.5709,7.5709,7.468,7.1102,6.3948,0.0,0.0,0.0,0.0,0.0,0.0,0.0,0.0,0.0,0.0,0.0,0.0,0.0,0.0,0.0,0.0,0.0,0.0,0.0,0.0,0.0,0.0,0.0,0.0,0.0,0.0,0.0,0.0,0.0,0.0,0.0,0.0,0.0,0.0,0.0,0.0,0.0,0.0,0.0,0.0,0.0,0.0,0.0,0.0,0.0,0.0,0.0,0.0,0.0,0.0,0.0,0.0,0.0,0.0,0.0,0.0,0.0,0.0,0.0,0.0,0.0,0.0,0.0,0.0,0.0,0.0,0.0,0.0,0.0,0.0,0.0,0.0,0.0,0.0,0.0,0.0,0.0,0.0,0.0,0.0,0.0,0.0,0.0,0.0,0.0,0.0,0.0,0.0,0.0,0.0,0.0,0.0,0.0,0.0,0.0,0.0,0.0,0.0,0.0,0.0,0.0,0.0,0.0,0.0,6.4968,7.2997,7.4945,7.5709,7.5709,7.3352,6.939,6.389,0.0,0.0,0.0,0.0,0.0,0.0,0.0,0.0,0.0,0.0,0.0,0.0,0.0,0.0,0.0,0.0,0.0,0.0,0.0,0.0,0.0,0.0,0.0,0.0,0.0,0.0,0.0,0.0,0.0,0.0,0.0,0.0,0.0,0.0,0.0,0.0,0.0,0.0,0.0,0.0,0.0,0.0,0.0,0.0,0.0,0.0,0.0,0.0,0.0,0.0,0.0,0.0,0.0,0.0,0.0,0.0,0.0,0.0,0.0,0.0,0.0,0.0,0.0,0.0,0.0,0.0,0.0,0.0,0.0,0.0,0.0,0.0,0.0,0.0,0.0,0.0,0.0,0.0,0.0,0.0,0.0,0.0,0.0,0.0,0.0,0.0,0.0,0.0,0.0,0.0,0.0,0.0,0.0,0.0,0.0,0.0,0.0,0.0,0.0,0.0,0.0,0.0,0.0,6.4549,6.8327,7.5799,7.6539,7.6374,7.5743,7.3385,6.9477,6.3868,5.9541,0.0,0.0,0.0,0.0,0.0,0.0,0.0,0.0,0.0,0.0,0.0,0.0,0.0,0.0,0.0,0.0,0.0,0.0,0.0,0.0,0.0,0.0,0.0,0.0,0.0,0.0,0.0,0.0,0.0,0.0,0.0,0.0,0.0,0.0,0.0,0.0,0.0,0.0,0.0,0.0,0.0,0.0,0.0,0.0,0.0,0.0,0.0,0.0,0.0,0.0,0.0,0.0,0.0,0.0,0.0,0.0,0.0,0.0,0.0,0.0,0.0,0.0,0.0,0.0,0.0,0.0,0.0,0.0,0.0,0.0,0.0,0.0,0.0,0.0,0.0,0.0,0.0,0.0,0.0,0.0,0.0,0.0,0.0,0.0,0.0,0.0,0.0,0.0,0.0,0.0,0.0,0.0,0.0,0.0,0.0,0.0,0.0,0.0,0.0,0.0,0.0,0.0,7.0646,7.2219,7.7494,7.739,7.6544,7.5743,7.2692,6.8585,6.3315,5.7085,0.0,0.0,0.0,0.0,0.0,0.0,0.0,0.0,0.0,0.0,0.0,0.0,0.0,0.0,0.0,0.0,0.0,0.0,0.0,0.0,0.0,0.0,0.0,0.0,0.0,0.0,0.0,0.0,0.0,0.0,0.0,0.0,0.0,0.0,0.0,0.0,0.0,0.0,0.0,0.0,0.0,0.0,0.0,0.0,0.0,0.0,0.0,0.0,0.0,0.0,0.0,0.0,0.0,0.0,0.0,0.0,0.0,0.0,0.0,0.0,0.0,0.0,0.0,0.0,0.0,0.0,0.0,0.0,0.0,0.0,0.0,0.0,0.0,0.0,0.0,0.0,0.0,0.0,0.0,0.0,0.0,0.0,0.0,0.0,0.0,0.0,0.0,0.0,0.0,0.0,0.0,0.0,0.0,0.0,0.0,0.0,0.0,0.0,0.0,0.0,0.0,0.0,7.1992,7.5861,7.861,7.7027,7.5743,7.5709,6.9864,6.4806,6.1612,5.2627,0.0,0.0,0.0,0.0,0.0,0.0,0.0,0.0,0.0,0.0,0.0,0.0,0.0,0.0,0.0,0.0,0.0,0.0,0.0,0.0,0.0,0.0,0.0,0.0,0.0,0.0,0.0,0.0,0.0,0.0,0.0,0.0,0.0,0.0,0.0,0.0,0.0,0.0,0.0,0.0,0.0,0.0,0.0,0.0,0.0,0.0,0.0,0.0,0.0,0.0,0.0,0.0,0.0,0.0,0.0,0.0,0.0,0.0,0.0,0.0,0.0,0.0,0.0,0.0,0.0,0.0,0.0,0.0,0.0,0.0,0.0,0.0,0.0,0.0,0.0,0.0,0.0,0.0,0.0,0.0,0.0,0.0,0.0,0.0,0.0,0.0,0.0,0.0,0.0,0.0,0.0,0.0,0.0,0.0,0.0,0.0,0.0,0.0,0.0,0.0,0.0,0.0,7.0018,7.41,7.7849,7.7387,7.634,7.5079,7.1013,6.6209,6.0841,0.0,0.0,0.0,0.0,0.0,0.0,0.0,0.0,0.0,0.0,0.0,0.0,0.0,0.0,0.0,0.0,0.0,0.0,0.0,0.0,0.0,0.0,0.0,0.0,0.0,0.0,0.0,0.0,0.0,0.0,0.0,0.0,0.0,0.0,0.0,0.0,0.0,0.0,0.0,0.0,0.0,0.0,0.0,0.0,0.0,0.0,0.0,0.0,0.0,0.0,0.0,0.0,0.0,0.0,0.0,0.0,0.0,0.0,0.0,0.0,0.0,0.0,0.0,0.0,0.0,0.0,0.0,0.0,0.0,0.0,0.0,0.0,0.0,0.0,0.0,0.0,0.0,0.0,0.0,0.0,0.0,0.0,0.0,0.0,0.0,0.0,0.0,0.0,0.0,0.0,0.0,0.0,0.0,0.0,0.0,0.0,0.0,0.0,0.0,0.0,0.0,0.0,6.431,6.9404,7.3718,7.7293,7.7205,7.6211,7.468,7.0803,6.5968,6.0148,0.0,0.0,0.0,0.0,0.0,0.0,0.0,0.0,0.0,0.0,0.0,0.0,0.0,0.0,0.0,0.0,0.0,0.0,0.0,0.0,0.0,0.0,0.0,0.0,0.0,0.0,0.0,0.0,0.0,0.0,0.0,0.0,0.0,0.0,0.0,0.0,0.0,0.0,0.0,0.0,0.0,0.0,0.0,0.0,0.0,0.0,0.0,0.0,0.0,0.0,0.0,0.0,0.0,0.0,0.0,0.0,0.0,0.0,0.0,0.0,0.0,0.0,0.0,0.0,0.0,0.0,0.0,0.0,0.0,0.0,0.0,0.0,0.0,0.0,0.0,0.0,0.0,0.0,0.0,0.0,0.0,0.0,0.0,0.0,0.0,0.0,0.0,0.0,0.0,0.0,0.0,0.0,0.0,0.0,0.0,0.0,0.0,0.0,0.0,0.0,0.0,0.0,6.4432,7.0859,7.5607,7.7145,7.6336,7.5377,7.4613,6.8486,6.3,0.0,0.0,0.0,0.0,0.0,0.0,0.0,0.0,0.0,0.0,0.0,0.0,0.0,0.0,0.0,0.0,0.0,0.0,0.0,0.0,0.0,0.0,0.0,0.0,0.0,0.0,0.0,0.0,0.0,0.0,0.0,0.0,0.0,0.0,0.0,0.0,0.0,0.0,0.0,0.0,0.0,0.0,0.0,0.0,0.0,0.0,0.0,0.0,0.0,0.0,0.0,0.0,0.0,0.0,0.0,0.0,0.0,0.0,0.0,0.0,0.0,0.0,0.0,0.0,0.0,0.0,0.0,0.0,0.0,0.0,0.0,0.0,0.0,0.0,0.0,0.0,0.0,0.0,0.0,0.0,0.0,0.0,0.0,0.0,0.0,0.0,0.0,0.0,0.0,0.0,0.0,0.0,0.0,0.0,0.0,0.0,0.0,0.0,0.0,0.0,0.0,0.0,0.0,6.4391,7.0901,7.5606,7.7124,7.6314,7.5208,7.3917,7.0113,6.5067,5.8594,0.0,0.0,0.0,0.0,0.0,0.0,0.0,0.0,0.0,0.0,0.0,0.0,0.0,0.0,0.0,0.0,0.0,0.0,0.0,0.0,0.0,0.0,0.0,0.0,0.0,0.0,0.0,0.0,0.0,0.0,0.0,0.0,0.0,0.0,0.0,0.0,0.0,0.0,0.0,0.0,0.0,0.0,0.0,0.0,0.0,0.0,0.0,0.0,0.0,0.0,0.0,0.0,0.0,0.0,0.0,0.0,0.0,0.0,0.0,0.0,0.0,0.0,0.0,0.0,0.0,0.0,0.0,0.0,0.0,0.0,0.0,0.0,0.0,0.0,0.0,0.0,0.0,0.0,0.0,0.0,0.0,0.0,0.0,0.0,0.0,0.0,0.0,0.0,0.0,0.0,0.0,0.0,0.0,0.0,0.0,0.0,0.0,0.0,0.0,0.0,0.0,0.0,6.3836,7.0539,7.5328,7.6488,7.6076,7.5242,7.408,7.1228,6.6738,6.009,0.0,0.0,0.0,0.0,0.0,0.0,0.0,0.0,0.0,0.0,0.0,0.0,0.0,0.0,0.0,0.0,0.0,0.0,0.0,0.0,0.0,0.0,0.0,0.0,0.0,0.0,0.0,0.0,0.0,0.0,0.0,0.0,0.0,0.0,0.0,0.0,0.0,0.0,0.0,0.0,0.0,0.0,0.0,0.0,0.0,0.0,0.0,0.0,0.0,0.0,0.0,0.0,0.0,0.0,0.0,0.0,0.0,0.0,0.0,0.0,0.0,0.0,0.0,0.0,0.0,0.0,0.0,0.0,0.0,0.0,0.0,0.0,0.0,0.0,0.0,0.0,0.0,0.0,0.0,0.0,0.0,0.0,0.0,0.0,0.0,0.0,0.0,0.0,0.0,0.0,0.0,0.0,0.0,0.0,0.0,0.0,0.0,0.0,0.0,0.0,0.0,0.0,6.311,7.0054,7.4882,7.5608,7.5709,7.5377,7.4647,7.1926,6.8109,6.291,0.0,0.0,0.0,0.0,0.0,0.0,0.0,0.0,0.0,0.0,0.0,0.0,0.0,0.0,0.0,0.0,0.0,0.0,0.0,0.0,0.0,0.0,0.0,0.0,0.0,0.0,0.0,0.0,0.0,0.0,0.0,0.0,0.0,0.0,0.0,0.0,0.0,0.0,0.0,0.0,0.0,0.0,0.0,0.0,0.0,0.0,0.0,0.0,0.0,0.0,0.0,0.0,0.0,0.0,0.0,0.0,0.0,0.0,0.0,0.0,5.3608,5.0362,0.0,0.0,0.0,0.0,0.0,0.0,0.0,0.0,0.0,0.0,0.0,0.0,0.0,0.0,0.0,0.0,0.0,0.0,0.0,0.0,0.0,0.0,0.0,0.0,0.0,0.0,0.0,0.0,0.0,0.0,0.0,0.0,0.0,0.0,0.0,0.0,0.0,0.0,0.0,0.0,6.4608,7.0724,7.4904,7.5642,7.5709,7.5377,7.4647,7.2451,6.9085,6.4388,5.8964,0.0,0.0,0.0,0.0,0.0,0.0,0.0,0.0,0.0,0.0,0.0,0.0,0.0,0.0,0.0,0.0,0.0,0.0,0.0,0.0,0.0,0.0,0.0,0.0,0.0,0.0,0.0,0.0,0.0,0.0,0.0,0.0,0.0,0.0,0.0,0.0,0.0,0.0,0.0,0.0,0.0,0.0,0.0,0.0,0.0,0.0,0.0,0.0,0.0,0.0,0.0,0.0,0.0,0.0,0.0,0.0,0.0,0.0,0.0,6.0272,5.7151,0.0,0.0,0.0,0.0,0.0,0.0,0.0,0.0,0.0,0.0,0.0,0.0,0.0,0.0,0.0,0.0,0.0,0.0,0.0,0.0,0.0,0.0,0.0,0.0,0.0,0.0,0.0,0.0,0.0,0.0,0.0,0.0,0.0,0.0,0.0,0.0,0.0,0.0,0.0,0.0,6.506,7.1176,7.5276,7.5676,7.5709,7.5574,7.5208,7.3452,7.1017,6.7988,6.3194,0.0,0.0,0.0,0.0,0.0,0.0,0.0,0.0,0.0,0.0,0.0,0.0,0.0,0.0,0.0,0.0,0.0,0.0,0.0,0.0,0.0,0.0,0.0,0.0,0.0,0.0,0.0,0.0,0.0,0.0,0.0,0.0,0.0,0.0,0.0,0.0,0.0,0.0,0.0,0.0,0.0,0.0,0.0,0.0,0.0,0.0,0.0,0.0,0.0,0.0,0.0,0.0,0.0,6.6102,6.7624,6.9891,7.0669,7.1718,7.2563,6.7523,6.5403,6.5179,6.0353,0.0,0.0,0.0,0.0,0.0,0.0,0.0,0.0,0.0,0.0,0.0,0.0,0.0,0.0,0.0,0.0,0.0,0.0,0.0,0.0,0.0,0.0,6.1467,6.1941,6.4512,6.458,5.6325,0.0,0.0,0.0,0.0,0.0,0.0,0.0,0.0,0.0,0.0,0.0,6.5753,7.183,7.5709,7.5709,7.5709,7.5709,7.5709,7.4478,7.3137,7.1796,6.7812,6.4052,0.0,0.0,0.0,0.0,0.0,0.0,0.0,0.0,0.0,0.0,0.0,0.0,0.0,0.0,0.0,0.0,0.0,0.0,0.0,0.0,0.0,0.0,0.0,0.0,0.0,0.0,0.0,0.0,0.0,0.0,0.0,0.0,4.7225,4.8849,0.0,0.0,0.0,0.0,0.0,0.0,0.0,0.0,0.0,0.0,0.0,0.0,0.0,6.4444,6.6542,7.0635,7.2868,7.3206,7.6454,7.7874,7.7671,7.8416,7.8855,7.8957,7.7536,0.0,6.8303,6.5643,0.0,0.0,0.0,0.0,0.0,0.0,0.0,0.0,0.0,0.0,0.0,0.0,0.0,0.0,0.0,0.0,0.0,0.0,0.0,0.0,0.0,0.0,7.05,6.9958,7.0703,7.0804,6.8233,6.2212,5.6292,5.2841,5.0811,4.8815,0.0,0.0,0.0,0.0,0.0,0.0,6.8095,7.2745,7.5709,7.5709,7.5709,7.5709,7.5709,7.4944,7.408,7.3278,7.0837,6.8585,6.6778,6.345,0.0,0.0,0.0,0.0,0.0,0.0,0.0,0.0,0.0,0.0,0.0,0.0,0.0,0.0,0.0,0.0,0.0,0.0,0.0,0.0,0.0,0.0,0.0,0.0,0.0,0.0,0.0,0.0,0.0,4.665,5.1116,5.1319,5.2198,5.1522,0.0,0.0,0.0,0.0,0.0,0.0,0.0,0.0,0.0,6.7421,6.9688,7.1921,7.4187,7.6555,7.8179,7.9025,8.1088,8.234,8.2881,8.3186,8.3355,8.3287,8.2103,7.9667,7.6183,7.0973,6.6948,6.3734,0.0,0.0,0.0,0.0,6.3152,6.368,6.788,6.839,6.6847,6.5548,0.0,0.0,0.0,0.0,0.0,0.0,0.0,6.2245,6.5358,6.8977,7.2022,7.2935,7.3713,7.395,7.2902,6.9519,6.5155,6.0114,5.8964,5.7103,5.1522,5.2198,0.0,0.0,0.0,6.6248,6.9849,7.3504,7.5709,7.5709,7.5709,7.5709,7.5709,7.5377,7.5046,7.4809,7.3452,7.2189,7.1051,6.7596,6.3944,0.0,0.0,0.0,0.0,0.0,0.0,0.0,0.0,0.0,0.0,0.0,0.0,0.0,0.0,0.0,0.0,0.0,0.0,0.0,0.0,0.0,0.0,0.0,0.0,0.0,0.0,0.0,0.0,5.1014,5.4634,5.3822,5.6258,5.6156,0.0,0.0,0.0,0.0,0.0,0.0,6.4715,6.7252,7.0432,7.4559,7.6454,7.8416,8.0513,8.1257,8.2171,8.3287,8.4031,8.4979,8.6061,8.6061,8.6061,8.5993,8.4437,8.349,8.2475,7.598,7.209,6.9958,6.7354,6.6373,6.6643,6.9322,6.9952,7.0158,7.4911,7.5422,7.3798,7.2136,7.0271,6.7738,6.2706,0.0,0.0,0.0,0.0,6.6068,6.9823,7.1481,7.2631,7.4458,7.5303,7.554,7.4999,7.4458,7.236,6.6609,6.6068,6.4444,5.778,5.8423,0.0,5.9404,6.4106,6.8727,7.1508,7.4082,7.5709,7.5709,7.5709,7.5709,7.5709,7.5709,7.5709,7.5709,7.5208,7.4613,7.4113,7.1275,6.8267,6.5141,0.0,0.0,0.0,0.0,0.0,0.0,0.0,0.0,0.0,0.0,0.0,0.0,0.0,0.0,0.0,0.0,0.0,0.0,0.0,0.0,0.0,0.0,0.0,0.0,0.0,0.0,0.0,0.0,0.0,5.7712,6.1501,0.0,0.0,0.0,0.0,6.1704,6.458,6.7895,7.1684,7.4728,7.7705,8.075,8.1629,8.2813,8.4336,8.5114,8.5554,8.5621,8.6399,8.6771,8.6839,8.6839,8.6839,8.6771,8.5215,8.4539,8.42,8.031,7.7807,7.6284,7.4695,7.4052,7.4246,7.6183,7.6814,7.7163,7.9888,7.9305,7.7672,7.9882,7.6947,7.229,7.0476,6.7787,0.0,0.0,6.9755,7.0703,7.439,7.4897,7.4661,7.5439,7.5676,7.5676,7.5642,7.5608,7.4661,7.1548,6.9857,6.8098,6.5527,0.0,6.5527,6.6203,6.8436,7.088,7.314,7.4678,7.5709,7.5709,7.5709,7.5709,7.5709,7.5709,7.5709,7.5709,7.5676,7.5642,7.5608,7.4911,7.2759,6.8863,6.5278,0.0,0.0,0.0,0.0,0.0,0.0,0.0,0.0,0.0,0.0,0.0,0.0,0.0,0.0,0.0,0.0,0.0,0.0,0.0,0.0,0.0,0.0,0.0,0.0,0.0,0.0,0.0,0.0,6.2888,6.6474,0.0,6.3599,6.5053,6.6948,6.8707,7.1616,7.4728,7.7942,8.004,8.2069,8.4099,8.4911,8.5317,8.5384,8.6129,8.6501,8.6535,8.7245,8.7854,8.8294,8.782,8.7617,8.755,8.6535,8.5824,8.5283,8.393,8.1968,7.9634,7.8585,7.8483,7.9022,7.9654,8.0126,8.0599,8.0569,7.9977,7.929,7.9211,7.7491,7.5242,7.4218,7.347,7.3003,7.3578,7.4119,7.4796,7.6115,7.5879,7.5371,7.5642,7.5709,7.5709,7.5709,7.5709,7.554,7.4999,7.368,7.1785,6.9045,6.9755,7.0331,6.9147,7.1312,7.3443,7.4746,7.5398,7.5709,7.5709,7.5709,7.5709,7.5709,7.5709,7.5445,7.5012,7.4978,7.4809,7.4282,7.3682,7.2223,6.9943,6.7871,6.2746,0.0,0.0,0.0,0.0,0.0,0.0,0.0,0.0,0.0,0.0,0.0,0.0,0.0,0.0,0.0,0.0,0.0,0.0,0.0,0.0,0.0,0.0,0.0,0.0,0.0,6.1907,6.6406,6.7117,7.0973,7.2394,6.935,7.1582,7.3713,7.4931,7.757,8.0073,8.2306,8.3828,8.5215,8.6501,8.6771,8.667,8.6163,8.6907,8.7144,8.6941,8.7888,8.8632,8.9072,8.8564,8.8361,8.8328,8.7583,8.7008,8.6501,8.6264,8.4979,8.3084,8.2069,8.1968,8.2408,8.2408,8.2577,8.2577,8.1088,8.0412,8.0006,7.8754,7.8044,7.7502,7.669,7.686,7.7198,7.6927,7.7063,7.7266,7.7266,7.669,7.6115,7.6115,7.5912,7.5777,7.6048,7.5879,7.5946,7.6758,7.5879,7.4356,7.2394,7.3274,7.3646,7.1921,7.3578,7.5168,7.5642,7.5709,7.5709,7.5709,7.5709,7.5709,7.5709,7.5242,7.4877,7.4613,7.3669,7.3029,7.2767,7.158,7.0336,6.9224,6.7285,6.3728,5.8628,0.0,0.0,0.0,0.0,0.0,0.0,0.0,0.0,0.0,0.0,0.0,0.0,0.0,0.0,0.0,0.0,0.0,0.0,0.0,0.0,0.0,0.0,0.0,6.1535,6.6068,6.962,7.0398,7.5033,7.6961,7.4052,7.713,7.9566,8.0276,8.2374,8.393,8.4674,8.6129,8.7279,8.8023,8.7347,8.6974,8.6941,8.7685,8.7651,8.6974,8.8395,8.9072,8.9072,8.9072,8.9072,8.9038,8.8328,8.8023,8.7955,8.7245,8.6941,8.6771,8.5249,8.4674,8.464,8.464,8.4133,8.3287,8.1832,8.0851,8.0107,7.9397,7.916,7.9025,7.8247,7.8044,7.8213,7.8923,7.8585,7.801,7.801,7.7468,7.6927,7.6927,7.6352,7.598,7.6758,7.6318,7.6014,7.6826,7.6318,7.5743,7.5743,7.5709,7.5473,7.4762,7.5236,0.0,7.5709,7.5709,7.5709,7.5709,7.5709,7.5709,7.5709,7.4315,7.3783,7.4411,7.1782,7.0524,7.1176,6.9088,6.7625,6.6945,6.3938,6.2916,6.4135,0.0,0.0,0.0,0.0,0.0,0.0,0.0,0.0,0.0,0.0,0.0,0.0,0.0,0.0,0.0,0.0,0.0,0.0,0.0,0.0,0.0,6.2888,6.6948,6.6948,7.1447,7.5439,7.7232,7.9667,8.0851,8.004,8.1866,8.3186,8.3389,8.5012,8.6298,8.7042,8.7482,8.8023,8.8767,8.8598,8.8226,8.7719,8.8429,8.8429,8.7719,8.8632,8.9072,8.9072,8.9072,8.9072,8.9072,8.8869,8.8497,8.7989,8.7786,8.738,8.6805,8.5824,8.5452,8.5384,8.4843,8.4133,8.3422,8.305,8.2035,8.0953,8.075,8.031,7.9769,7.9025,7.916,7.9532,7.9194,7.8957,7.8822,7.8822,7.8247,7.7705,7.7705,7.7536,7.7435,7.7638,7.7502,7.757,7.8348,7.7874,7.7198,7.6657,7.6082,7.5642,7.5439,7.5574,7.5709,7.5709,7.5709,7.5709,7.5709,7.5709,7.5709,7.5709,7.4315,7.3122,7.2205,7.0466,6.9485,6.9748,6.9645,7.0038,7.1028,6.7422,6.5535,0.0,0.0,0.0,0.0,0.0,0.0,0.0,0.0,0.0,0.0,0.0,0.0,0.0,0.0,0.0,0.0,0.0,0.0,0.0,0.0,0.0,0.0,6.8842,7.28,7.4018,7.6555,7.9092,8.1325,8.2611,8.3456,8.3795,8.4877,8.5587,8.5587,8.6704,8.755,8.7989,8.8294,8.8632,8.9072,8.9072,8.8734,8.7989,8.8734,8.8734,8.7989,8.8734,8.9072,8.9072,8.9072,8.9072,8.9072,8.9072,8.8835,8.8463,8.8463,8.8192,8.7685,0.0,0.0,0.0,0.0,8.4133,8.349,8.349,8.2746,8.1697,8.1393,8.0987,8.0513,7.9769,7.987,8.0107,7.9701,7.9566,7.9498,7.9194,7.8788,7.845,7.845,7.8213,7.8077,7.8382,7.8213,7.8213,7.8957,7.8483,0.0,7.7435,7.6961,7.6555,7.6251,7.6183,7.6082,7.5743,7.5709,7.5709,7.5709,7.5709,7.5709,7.5709,7.4315,0.0,0.0,0.0,6.9254,6.8622,6.8999,0.0,0.0,0.0,0.0,0.0,7.165,0.0,0.0,7.1857,7.2409,0.0,0.0,0.0,0.0,0.0,0.0,0.0,0.0,0.0,0.0,0.0,0.0,0.0,0.0,0.0,0.0,7.4525,7.8382,8.1156,8.1122,8.1528,8.3389,8.4302,8.5046,8.5723,8.6535,8.7042,8.7042,8.7719,8.8125,8.8125,8.8734,0.0,0.0,0.0,8.8767,8.8125,8.8767,8.8767,8.8125,8.8767,8.9072,8.9072,8.9072,8.9072,8.9072,8.9072,8.9072,8.9072,8.9072,8.9038,8.8767,8.6805,8.5993,8.5824,8.5046,8.4336,8.3761,8.3659,0.0,0.0,8.1765,8.1494,8.1291,8.0648,8.0378,8.031,8.031,8.0242,8.004,7.9397,7.9228,7.9228,7.9228,7.872,7.8416,7.9092,7.872,7.8416,7.9092,7.8686,7.8247,7.8247,7.8111,7.7739,7.6995,7.6961,7.6758,7.6048,7.5879,7.5811,7.5974,7.5777,0.0,7.5811,7.4444,7.3772,7.4343,7.1953,6.983,6.855,6.8898,6.9964,7.2033,7.2818,7.534,7.9542,8.1868,8.3483,8.4148,7.5309,7.551,0.0,0.0,0.0,0.0,0.0,0.0,0.0,0.0,0.0,0.0,0.0,0.0,0.0,0.0,0.0,7.3849,7.7908,8.1054,8.2813,8.3998,8.464,8.4437,8.508,8.5621,8.5757,8.7008,8.7786,8.7786,8.8463,8.8869,8.8869,8.9004,8.9072,8.9072,8.9072,8.9004,8.8869,8.9004,8.9004,8.8869,8.9004,0.0,8.9072,8.9072,8.9072,8.9072,8.9072,8.9072,8.9072,8.9072,8.8734,8.8158,8.7719,8.7211,8.6602,8.5824,8.5486,8.5249,8.4606,8.393,8.3253,8.3118,8.2678,8.2171,8.2035,8.1562,0.0,8.1088,8.0648,8.0175,8.0006,8.0006,8.0006,8.0006,7.987,7.9803,7.9972,7.987,7.9803,7.9972,7.987,7.9769,7.9769,7.8788,7.7739,7.6995,7.7401,7.7705,7.757,7.7086,7.6877,7.7509,7.6442,7.5974,7.6578,7.468,7.3312,7.286,7.2288,7.2128,7.2351,7.4708,7.6211,7.6741,7.7972,7.8825,7.9217,8.1383,8.2898,8.3708,8.3569,8.4471,0.0,0.0,0.0,0.0,0.0,0.0,0.0,0.0,0.0,0.0,0.0,6.2618,6.7117,0.0,7.4322,7.8382,8.0919,8.278,8.3896,8.4708,8.5215,8.5215,8.6196,8.6907,8.6907,8.7888,8.8531,8.8531,8.8869,8.9072,8.9072,8.9072,8.9072,8.9072,8.9072,8.9072,8.9072,8.9072,8.9072,8.9072,8.9072,8.9072,8.9072,8.9072,8.9072,8.9072,8.9072,8.9072,8.9072,8.9072,8.8869,8.8642,8.9198,8.8442,8.6873,8.6501,8.6332,8.6298,8.5892,8.5283,8.4573,8.42,8.3558,8.2881,8.2509,8.2137,8.1832,8.1832,8.1325,8.075,8.075,8.075,8.0648,8.0276,8.0479,8.0648,8.0276,8.0209,8.0209,8.0209,8.0209,8.0073,7.9701,7.9329,7.8855,7.8111,7.8314,7.8416,7.8044,7.7668,7.7561,7.7992,7.7295,7.7058,7.7414,7.6408,7.5608,7.5242,7.5242,7.5552,7.6301,7.7807,7.8921,7.9668,8.0782,8.1484,8.1839,8.3751,8.4993,8.5829,8.7236,8.815,0.0,0.0,0.0,0.0,0.0,0.0,0.0,5.8031,5.9844,6.4478,6.6948,6.962,7.3984,7.6521,7.8991,8.2103,8.3253,8.393,8.4539,8.4742,8.508,8.5723,8.6974,8.7854,8.7989,8.8666,8.9072,8.9072,8.9072,8.9072,8.9072,8.9072,8.9072,8.9072,8.9072,8.9072,8.9072,8.9072,8.9072,8.9072,8.9072,8.9072,8.9072,8.9072,8.9072,8.9072,8.9373,8.9483,8.9483,8.9744,8.9853,8.9962,9.1022,8.9881,8.7681,8.7834,8.7692,8.7477,8.7341,8.6865,8.6253,8.5187,8.4437,8.3795,8.305,8.2746,8.2611,8.2611,8.2069,8.1494,8.1494,8.1494,8.1359,8.0784,8.0953,8.1122,8.0547,8.031,8.0209,8.0209,8.0209,8.0006,7.9431,7.9803,7.9938,7.9228,7.9228,7.9092,7.8483,7.828,7.8213,7.8379,7.8213,7.801,7.7963,7.8128,7.8196,7.8196,7.8496,7.888,7.9533,7.9837,8.0576,8.1873,8.2657,8.3751,8.5085,8.6486,8.7464,8.8037,8.8723,8.9353,5.2994,5.4296,5.7219,6.1465,6.0998,6.2319,0.0,7.1935,7.0026,7.5168,7.6961,7.7976,7.9228,8.075,8.2137,8.3186,8.3998,8.4539,8.4606,8.5215,8.5689,8.5757,8.6535,8.7279,8.7955,8.8666,8.9072,8.9072,8.9072,8.9072,8.9072,8.9072,8.9072,8.9072,8.9072,8.9072,8.9072,8.9072,8.9072,8.9072,8.9072,8.9072,8.9072,8.9072,8.9072,8.9184,9.0357,9.0815,9.0919,9.2028,9.2515,9.2515,9.2611,9.1859,9.0573,9.1046,9.0507,8.9467,8.8775,8.8499,8.8122,8.6253,8.5587,8.5384,8.4606,8.3896,8.3389,8.3389,8.2847,8.2272,8.2272,8.2272,8.2272,8.2171,8.1731,8.1257,8.119,8.0648,8.0209,8.0209,8.0209,8.0175,8.0073,8.0141,7.9938,7.9228,7.9667,8.004,7.9972,7.9397,7.9228,7.987,7.8756,7.8049,7.8018,7.859,7.896,7.896,8.0174,8.0985,8.102,8.2337,8.3414,8.4229,8.5052,8.5875,8.6593,8.7414,8.7902,8.8037,8.8723,8.9106,6.1272,6.2245,6.3509,6.7339,6.9016,7.1151,7.5788,7.5748,7.5709,7.9194,8.0513,8.1257,8.1968,8.2983,8.3795,8.4099,8.4403,8.464,8.464,8.4539,8.4437,8.4437,8.4742,8.5723,8.7786,8.826,8.8632,8.9038,8.9072,8.9072,8.9072,8.9072,8.9072,8.9072,8.9072,8.9072,8.9072,8.9072,8.9072,8.9072,8.9072,8.9072,8.9072,8.9853,9.025,9.025,9.071,9.1022,9.1022,9.1565,9.1766,9.1766,9.1766,9.0988,9.0001,9.0948,9.0537,8.9449,8.9141,8.873,8.8248,8.7362,8.6771,8.6298,8.552,8.508,8.4742,8.4268,8.3625,8.305,8.305,8.305,8.2949,8.2509,8.2475,8.2441,8.2035,8.1359,8.0818,8.0818,8.0479,8.0209,8.0209,8.0209,8.0107,7.9803,8.0006,8.0209,8.0209,7.9938,7.987,8.0175,7.9701,7.9432,7.9837,8.0209,8.0547,8.1013,8.1589,8.2098,8.2506,8.3587,8.4573,8.5255,8.602,8.6797,8.7558,8.7878,8.8205,8.8622,8.897,8.9072,6.5759,6.7354,6.8707,7.1515,7.5033,7.7773,7.7604,7.8551,7.9972,8.1562,8.234,8.2746,8.2847,8.3524,8.3998,8.3998,8.4167,8.4302,8.4302,8.3659,8.3118,8.2915,8.2712,8.3625,8.6196,8.7008,8.7786,8.87,8.8767,8.8869,8.9072,8.9072,8.9072,8.9072,8.9072,8.9072,8.9072,8.9072,8.9072,8.9072,8.9072,8.9072,8.9072,9.0036,9.0429,9.0535,9.0815,9.1022,9.1022,9.1398,9.1464,9.1565,9.1865,9.1296,9.0323,9.1565,9.0988,8.9669,8.9669,8.9328,8.8742,8.8168,8.7651,8.7042,8.6095,8.579,8.5621,8.4843,8.4234,8.3795,8.3795,8.3795,8.3659,8.3152,8.3253,8.3355,8.2813,8.2103,8.1596,8.1596,8.1156,8.0818,8.0818,8.0818,8.0818,8.0818,8.0818,8.0716,8.0513,8.0682,8.0818,8.0818,8.0784,8.1021,8.1529,8.1834,8.2101,8.2623,8.3066,8.3543,8.4162,8.4809,8.5593,8.6372,8.6957,8.7588,8.8273,8.8273,8.8588,8.9072,8.9072,8.9072,6.3971,6.732,7.1718,7.395,7.7333,8.0479,8.19,8.278,8.3355,8.3422,8.3456,8.305,8.1629,8.1968,8.2475,8.2475,8.3084,8.3524,8.3524,8.2915,8.2171,8.1426,8.075,8.0885,8.2441,8.4573,8.6467,8.7922,8.8023,8.8328,8.9038,8.9072,8.9072,8.9072,8.9072,8.9072,8.9072,8.9072,8.9072,8.9072,8.9072,8.9072,8.9072,8.9184,8.9184,8.9184,9.0429,9.1022,9.1091,9.2321,9.2802,9.2991,9.4248,9.3945,9.2896,9.4212,9.312,9.0919,9.0919,9.0884,9.0572,8.8599,8.7989,8.7685,8.623,8.579,8.5621,8.4843,8.4606,8.4606,8.4606,8.4606,8.4573,8.4573,8.3998,8.349,8.3456,8.2881,8.2374,8.2374,8.2374,8.234,8.234,8.234,8.234,8.234,8.234,8.2069,8.1359,8.19,8.234,8.234,8.2342,8.2377,8.2411,8.3013,8.3409,8.3476,8.4843,8.5667,8.5701,8.6423,8.7199,8.7936,8.8003,8.8273,8.9072,8.9072,8.9072,8.9072,8.9072,8.9072,6.9789,7.324,7.6386,7.9092,8.146,8.3253,8.3761,8.3693,8.3355,8.2881,8.2002,8.1021,8.004,8.004,8.0378,8.0851,8.1968,8.278,8.278,8.2983,8.2306,8.0107,8.0479,8.075,8.0276,8.2238,8.4573,8.7076,8.7279,8.782,8.9004,8.9072,8.9072,8.9072,8.9072,8.9072,8.9072,8.9072,8.9072,8.9072,8.9072,8.9559,9.0323,9.0323,9.0815,9.1665,9.2991,9.3491,9.3583,9.3945,9.4159,9.4123,9.3674,9.3271,9.2991,9.3363,9.2991,9.2224,9.2224,9.1665,9.0884,9.0224,8.9403,8.8531,8.755,8.6907,8.6366,8.5621,8.5012,8.464,8.464,8.464,8.464,8.464,8.4437,8.4234,8.4234,8.3659,8.3118,8.3118,8.2746,8.2408,8.2408,8.2408,8.2408,8.2408,8.2408,8.2306,8.2069,8.2272,8.2408,8.2408,8.2374,8.2647,8.3087,8.3358,8.3968,8.4984,8.5531,8.6,8.6552,8.7203,8.7709,8.8037,8.852,8.8903,8.9072,8.9072,8.9072,8.9072,8.9072,8.9072,7.4356,7.7266,7.9498,8.2475,8.4133,8.4877,8.4336,8.3659,8.2611,8.0818,7.9228,7.7739,7.6217,7.6149,7.6826,7.8348,8.0073,8.1494,8.2306,8.2813,8.2408,8.0513,8.0885,8.1122,8.0716,8.1968,8.3828,8.6332,8.7008,8.782,8.9004,8.9072,8.9072,8.9072,8.9072,8.9072,8.9072,8.9072,8.9072,8.9072,8.9559,9.025,9.1022,9.1464,9.2126,9.2991,9.3765,9.4123,9.4123,9.4123,9.4123,9.4034,9.3765,9.3583,9.3638,9.4123,9.4212,9.4123,9.3178,9.2063,9.1022,9.1022,9.0143,8.8937,8.8226,8.7685,8.7076,8.6061,8.5418,8.4979,8.4708,8.464,8.464,8.464,8.464,8.464,8.464,8.4234,8.3896,8.3896,8.3524,8.3219,8.3219,8.3219,8.3219,8.3219,8.3422,8.3422,8.2881,8.3016,8.3219,8.3219,8.3456,8.3795,8.434,8.4514,8.5094,8.6079,8.6481,8.6763,8.724,8.8037,8.8453,8.8453,8.8903,8.9072,8.9072,8.9072,8.9072,8.9072,8.9072,8.9072,7.7435,7.9397,8.1257,8.4065,8.5283,8.5384,8.3795,8.278,8.1088,7.7435,7.5405,7.3375,7.0398,7.0635,7.2191,7.5067,7.757,7.9938,8.2171,8.2543,8.2543,8.2475,8.19,8.2035,8.3355,8.3592,8.4268,8.5723,8.7144,8.826,8.9038,8.9072,8.9072,8.9072,8.9072,8.9072,8.9072,8.9184,8.9184,8.9184,9.0535,9.1091,9.1091,9.2418,9.2991,9.2991,9.3084,9.3084,9.3084,9.3084,9.3084,9.3178,9.4423,9.4891,9.5012,9.6223,9.6685,9.6338,9.3945,9.2224,9.1091,9.1091,9.0143,8.897,8.826,8.8023,8.7719,8.6298,8.5858,8.5621,8.4877,8.4674,8.4674,8.4674,8.4708,8.4742,8.4742,8.4708,8.4674,8.4674,8.464,8.464,8.464,8.464,8.4674,8.4674,8.5351,8.5283,8.3761,8.4234,8.4742,8.4674,8.5384,8.5858,8.5858,8.652,8.6938,8.6972,8.7583,8.8037,8.8071,8.8689,8.9072,8.9072,8.9072,8.9072,8.9072,8.9072,8.9072,8.9072,8.9072,8.9072,8.1122,8.3998,8.6061,8.6264,8.6061,8.5249,8.3152,8.0412,7.7401,7.4187,7.1447,6.8707,6.5764,6.8098,7.1075,7.2935,7.6995,8.0682,8.2915,8.42,8.4505,8.3355,8.4065,8.4336,8.3558,8.5046,8.6196,8.6602,8.6974,8.7753,8.9004,8.9072,8.9072,8.9072,8.9072,8.9072,8.9072,9.0036,9.0535,9.0535,9.1766,9.2418,9.2418,9.3765,9.4336,9.4336,9.5265,9.5749,9.5749,9.5749,9.5749,9.5749,9.6107,9.6223,9.6223,9.6608,9.6685,9.6608,9.5947,9.4336,9.2418,9.2418,9.0884,8.9038,8.8869,8.8429,8.7922,8.755,8.6636,8.5723,8.5554,8.5486,8.5486,8.5486,8.5926,8.6332,8.6332,8.5892,8.5486,8.5486,8.5012,8.464,8.464,8.5114,8.5486,8.5486,8.6129,8.6061,8.4539,8.552,8.6095,8.5554,8.6163,8.6636,8.6636,8.6805,8.7152,8.7675,8.7922,8.8205,8.8757,8.9004,8.9072,8.9072,8.9072,8.9072,8.9072,8.9072,8.9072,8.9072,8.9072,8.9072,8.464,8.6704,8.7753,8.667,8.5587,8.3659,7.9464,7.6657,7.3341,6.7692,6.5425,6.3396,5.9776,6.3294,6.7455,6.9586,7.4897,7.987,8.305,8.4809,8.5723,8.5486,8.623,8.6535,8.5993,8.711,8.7854,8.7854,8.7854,8.8226,8.9038,8.9072,8.9072,8.9072,8.9072,8.9373,8.9962,9.0605,9.1296,9.1865,9.3084,9.3765,9.3765,9.5097,9.5668,9.5668,9.6416,9.6685,9.6685,9.6685,9.6685,9.6685,9.6685,9.6685,9.6685,9.6685,9.6685,9.6685,9.6685,9.5384,9.3765,9.3765,9.2063,8.9962,8.9962,8.9287,8.8395,8.8091,8.738,8.667,8.6366,8.6264,8.6264,8.6264,8.6602,8.6907,8.6907,8.6569,8.6196,8.5858,8.5452,8.5148,8.5148,8.5757,8.6264,8.6264,8.6907,8.6974,8.579,8.6366,8.6738,8.6332,8.6941,8.738,8.738,8.7642,8.8057,8.8439,8.8497,8.8655,8.9072,8.9072,8.9072,8.9072,8.9072,8.9072,8.9072,8.9072,8.9072,8.9072,8.9072,8.9072,8.755,8.8057,8.7617,8.6027,8.4336,8.1359,7.483,7.2259,6.8842,6.0452,5.8896,5.7848,5.3923,5.7983,6.3057,6.6406,7.2394,7.828,8.3118,8.4945,8.6366,8.7955,8.8158,8.8395,8.9038,8.9072,8.9072,8.9072,8.9173,8.9173,8.9106,8.9072,8.9184,8.9373,8.9373,8.9962,9.1194,9.1398,9.2063,9.3178,9.4423,9.5097,9.5097,9.6223,9.6685,9.6722,9.6795,9.6795,9.6722,9.6832,9.6795,9.6685,9.6685,9.6685,9.6685,9.6685,9.6685,9.6685,9.6685,9.5947,9.5012,9.4806,9.312,9.1022,9.1022,9.0143,8.897,8.8328,8.8091,8.7854,8.7211,8.7076,8.7076,8.7076,8.7144,8.7211,8.7211,8.7144,8.6839,8.6095,8.5926,8.5926,8.5926,8.6569,8.7076,8.7076,8.7685,8.7922,8.7279,8.7211,8.7144,8.7076,8.7719,8.8158,8.8158,8.8734,8.9072,8.9072,8.9072,8.9072,8.9072,8.9072,8.9072,8.9072,8.9072,8.9072,8.9072,8.9072,8.9072,8.9072,8.9072,8.9072,8.8463,8.8463,8.7482,8.5418,8.2813,7.9329,7.3849,6.8673,6.3565,5.8287,5.531,5.3247,5.186,5.5987,6.1366,6.6812,7.1819,7.7435,8.4403,8.5621,8.6569,8.8632,8.8903,8.8937,8.9072,8.9072,8.9072,8.9072,8.9647,8.9748,8.9106,8.9072,8.9559,9.064,9.0605,9.1296,9.2515,9.3583,9.4248,9.4511,9.5749,9.6416,9.6416,9.6608,9.6685,9.6722,9.7383,9.7309,9.6759,9.7419,9.7309,9.6685,9.6685,9.6685,9.6685,9.6685,9.6685,9.6685,9.6685,9.6531,9.6223,9.5097,9.312,9.1022,9.1022,9.0143,8.9038,8.8937,8.8463,8.7955,8.7854,8.782,8.782,8.782,8.826,8.87,8.87,8.8226,8.7583,8.6873,8.6704,8.6704,8.6704,8.7313,8.782,8.782,8.8429,8.8835,8.8734,8.87,8.8463,8.7854,8.8463,8.8903,8.8903,8.9004,8.9072,8.9072,8.9072,8.9072,8.9072,8.9072,8.9072,8.9072,8.9072,8.9072,8.9072,8.9072,8.9072,8.9072,8.9072,8.9072,8.8888,8.826,8.6907,8.464,8.1224,7.6555,6.9417,6.4343,5.9336,5.2909,5.1048,4.9999,4.8105,5.2976,5.849,6.211,6.7117,7.3308,8.119,8.2644,8.4268,8.8057,8.8869,8.9072,8.9072,8.9072,8.9241,8.9647,9.0019,9.0053,8.9681,9.0325,9.0907,9.1577,9.123,9.1964,9.3855,9.3855,9.4511,9.5749,9.6416,9.6906,9.7309,9.7309,9.7566,9.797,9.8374,9.83,9.797,9.8374,9.83,9.7897,9.7493,9.7566,9.786,9.7016,9.6942,9.7273,9.6832,9.6223,9.5586,9.5012,9.3491,9.1964,9.1964,9.0605,8.9072,8.9072,8.8835,8.8564,8.8564,8.8564,8.8564,8.8564,8.8835,8.9072,8.9072,8.8497,8.7888,8.755,8.7482,8.7482,8.7482,8.8091,8.8564,8.8564,8.8869,8.9072,8.9072,8.9072,8.8937,8.8598,8.8869,8.9072,8.9072,8.9072,8.9072,8.9072,8.9072,8.9072,8.9072,8.9072,8.9072,8.9072,8.9489,8.9489,8.9072,8.9489,8.9489,8.9106,8.9489,8.9624,8.8558,8.7786,8.6298,8.3659,7.9667,7.4086,6.5459,6.0689,5.5953,4.8545,4.7564,4.7496,4.5635,5.0236,5.5175,5.7915,6.2854,6.9282,7.7705,7.9904,8.2475,8.7414,8.8632,8.9072,8.9072,8.9241,8.9579,9.0154,9.0493,9.0594,9.0459,9.1405,9.2057,9.2374,9.1646,9.2309,9.4587,9.347,9.4034,9.6301,9.621,9.6728,9.7897,9.7771,9.8211,9.9108,9.9292,9.9255,9.9108,9.9292,9.9255,9.9035,9.8411,9.8557,9.8961,9.7676,9.7603,9.808,9.7419,9.634,9.5275,9.513,9.3908,9.2515,9.2515,9.0884,8.9072,8.9072,8.9072,8.9072,8.9072,8.9072,8.9072,8.9072,8.9072,8.9072,8.9072,8.8632,8.8226,8.8226,8.8226,8.8226,8.8226,8.87,8.9072,8.9072,8.9072,8.9072,8.9072,8.9072,8.9072,8.9072,8.9072,8.9072,8.9072,8.9072,8.914,8.9309,8.9275,8.9421,8.9523,8.9556,8.9556,8.9556,9.0075,9.0177,8.9568,9.0177,9.0075,8.9556,9.0221,9.0415,8.6873,8.7008,8.6027,8.2408,7.8111,7.2834,6.5256,5.9099,5.3619,4.8815,4.6312,4.5534,4.7293,4.8714,5.186,5.8795,6.2651,6.7929,7.6826,8.0479,8.3659,8.755,8.8632,8.9072,8.9072,8.9715,9.0121,9.0188,9.144,9.1913,9.1237,9.1284,9.186,9.3065,9.2408,9.2713,9.4054,9.325,9.3583,9.5012,9.4479,9.5538,9.7897,9.7392,9.7875,9.9145,9.9879,9.9769,9.9181,9.9879,9.9769,9.9108,9.9035,9.9035,9.9071,9.8924,9.8924,9.8998,9.8924,9.8016,9.6791,9.6105,9.3746,9.1194,9.1194,9.025,8.9072,8.9072,8.9072,8.9072,8.9072,8.9072,8.9072,8.9072,8.9072,8.9072,8.9072,8.9038,8.897,8.897,8.897,8.897,8.897,8.9038,8.9072,8.9072,8.9072,8.9072,8.9072,8.9072,8.9072,8.9072,8.9072,8.9072,8.9072,8.9072,8.9376,9.0053,9.0065,9.0391,9.1013,9.1159,9.1159,9.1159,9.1193,9.1195,9.1144,9.1195,9.1193,9.1159,9.1193,9.1262,8.5158,8.5554,8.4843,8.2002,7.7266,7.1447,6.4444,5.822,5.2672,4.8173,4.5805,4.4993,4.6346,4.7564,5.0067,5.5277,5.7509,6.14,6.9451,7.28,7.6623,8.2577,8.5148,8.7279,8.9545,9.0019,9.0594,9.1474,9.2522,9.2996,9.2692,9.2918,9.3354,9.3826,9.3099,9.3379,9.4641,9.3215,9.3025,9.4388,9.4947,9.6038,9.7476,9.8563,9.9586,10.0576,10.0907,10.0796,10.0576,10.0907,10.0796,10.0503,9.9989,9.9623,9.9341,9.9163,9.8928,9.8566,9.8093,9.7027,9.5735,9.465,9.2582,9.0543,9.0848,9.0143,8.9072,8.9072,8.9072,8.9072,8.9072,8.9072,8.9072,8.9072,8.9072,8.9072,8.9072,8.9072,8.9072,8.9072,8.9072,8.9072,8.9072,8.9072,8.9072,8.9072,8.9072,8.9072,8.9072,8.9072,8.9072,8.9072,8.9072,8.9072,8.9072,8.9072,8.941,9.0154,9.021,9.0594,9.1296,9.1305,9.1291,9.1291,9.1744,9.1764,9.1262,9.1764,9.1744,9.1291,9.1744,9.2252,8.2072,8.3152,8.305,8.0615,7.5845,7.006,6.3531,5.7442,5.1995,4.797,4.594,4.5196,4.6177,4.7225,4.9154,5.2909,5.4465,5.7848,6.529,6.8673,7.2834,7.9431,8.2441,8.5351,8.8903,9.0222,9.1406,9.2658,9.3267,9.3571,9.3571,9.3964,9.4034,9.4034,9.3313,9.3304,9.3935,9.2687,9.2577,9.3711,9.5142,9.6435,9.7864,9.9375,10.0582,10.1494,10.1494,10.1494,10.1494,10.1494,10.1494,10.1384,10.0907,10.0214,9.9568,9.9732,9.9087,9.8016,9.784,9.6671,9.504,9.3695,9.22,9.0855,9.052,8.9853,8.9072,8.9072,8.9072,8.9072,8.9072,8.9072,8.9072,8.9072,8.9072,8.9072,8.9072,8.9072,8.9072,8.9072,8.9072,8.9072,8.9072,8.9072,8.9072,8.9072,8.9072,8.9072,8.9072,8.9072,8.9072,8.9072,8.9072,8.9072,8.9072,8.9275,8.9748,9.0493,9.0703,9.1175,9.1947,9.1985,9.2002,9.2002,9.2525,9.2592,9.2272,9.2879,9.2946,9.2626,9.3149,9.3656,7.7435,7.9667,8.0615,7.7671,7.3544,6.8639,6.2685,5.663,5.1488,4.8511,4.6718,4.6143,4.7631,4.7902,4.9154,5.2909,5.5344,5.937,6.6812,7.1075,7.5134,7.9667,8.1528,8.3625,8.6636,9.0256,9.2725,9.3503,9.3571,9.3571,9.3571,9.3571,9.3571,9.3571,9.2827,9.2049,9.1305,9.1835,9.2399,9.2932,9.4454,9.6581,9.9066,9.9375,10.0151,10.1494,10.1494,10.1494,10.1494,10.1494,10.1494,10.1494,10.1494,10.0688,9.9676,10.0975,9.9765,9.7696,9.897,9.7696,9.5249,9.376,9.2886,9.1981,8.9748,8.9072,8.9072,8.9072,8.9072,8.9072,8.9072,8.9072,8.9072,8.9072,8.9072,8.9072,8.9072,8.9072,8.9072,8.9072,8.9072,8.9072,8.9072,8.9072,8.9072,8.9072,8.9072,8.9072,8.9072,8.9072,8.9072,8.9072,8.9072,8.9072,8.9072,8.9782,9.0493,9.1237,9.1947,9.2692,9.3503,9.3571,9.3571,9.3571,9.3571,9.396,9.462,9.462,9.5043,9.5789,9.5789,9.5721,7.0026,7.1616,7.2225,6.9248,6.6677,6.3565,5.8626,5.5243,5.2131,4.8646,4.7124,4.6752,4.7733,4.7936,4.9965,5.6258,5.7848,6.0554,6.6981,7.1582,7.5371,7.8348,8.4471,8.9072,9.0527,9.2218,9.3334,9.3571,9.3571,9.3571,9.3571,9.3571,9.3571,9.3571,9.3334,9.3098,9.2861,9.3381,9.3729,9.4005,9.6245,9.7857,9.8699,10.0214,10.1095,10.1494,10.1494,10.1012,10.0188,10.1058,10.036,9.8913,9.9801,9.8785,9.7032,9.928,9.9006,9.7499,9.8024,9.7598,9.6449,9.4198,9.2938,9.2184,9.0966,9.0256,8.9748,8.9241,8.9072,8.9072,8.9072,8.9072,8.9072,8.9072,8.9072,8.9072,8.9072,8.9072,8.9072,8.9072,8.9072,8.9072,8.9072,8.9072,8.9072,8.9072,8.9072,8.9072,8.9072,8.9072,8.9275,8.9782,8.985,8.985,8.985,9.0087,9.0729,9.1981,9.2286,9.2759,9.3537,9.3571,9.3571,9.3571,9.3571,9.396,9.4654,9.4684,9.5103,9.5764,9.6257,9.6561,6.3463,6.5392,6.6034,6.3903,6.2009,5.9742,5.6122,5.3484,5.1082,4.8443,4.7327,4.7022,4.7767,4.8139,5.0202,5.5987,5.7408,6.0047,6.6576,7.1109,7.5337,7.9566,8.596,9.0357,9.1102,9.2624,9.3571,9.3571,9.3571,9.3571,9.3571,9.3571,9.3571,9.3571,9.3571,9.3436,9.3165,9.4445,9.5017,9.4737,9.7677,9.9111,9.9147,10.0847,10.1494,10.1494,10.1494,10.0651,0.0,10.0396,9.9497,9.7598,9.8408,9.7696,9.6519,9.8691,9.8691,9.7598,9.8121,9.7892,9.7063,9.4737,9.2815,9.1541,9.1338,9.0594,8.9681,8.9207,8.9072,8.9072,8.9072,8.9072,8.9072,8.9072,8.9072,8.9072,8.9072,8.9072,8.9072,8.9072,8.9072,8.9072,8.9072,8.9072,8.9072,8.9072,8.9342,8.9512,8.9512,8.9748,9.0087,9.056,9.0628,9.0729,9.1034,9.1034,9.144,9.2353,9.2692,9.3064,9.3571,9.3571,9.3571,9.3571,9.3892,9.4416,9.5077,9.5663,9.6159,9.6619,9.708,9.7372,0.0,6.0317,6.1298,6.0486,5.8761,5.6697,5.4532,5.142,0.0,4.8003,4.7327,4.7158,4.8139,4.8781,5.027,5.3721,5.548,5.8964,6.6271,7.0737,7.5946,8.3186,8.6569,8.8598,8.9342,9.1947,9.3571,9.3571,9.3571,9.3571,9.3571,9.3571,9.3571,9.3571,9.3571,9.3233,9.2522,9.4948,9.5886,9.5277,9.8649,10.0239,10.0313,10.101,10.1413,10.1413,10.1332,10.0518,9.9189,9.9316,9.8597,9.7399,9.7399,9.7499,9.7696,9.9006,9.8691,9.783,9.9006,9.8503,9.7193,9.4981,9.2467,9.0425,9.1102,9.0256,8.9072,8.9072,8.9072,8.9072,8.9072,8.9072,8.9072,8.9072,8.9072,8.9072,8.9072,8.9072,8.9072,8.9072,8.9072,8.9072,8.9072,8.914,8.9173,8.9173,8.9816,9.029,9.029,9.0865,9.1305,9.1372,9.1372,9.1677,9.2421,9.2455,9.2455,9.2489,9.3199,9.3605,9.3673,9.3639,9.3673,9.3706,9.4518,9.5213,9.5841,9.7279,9.8003,9.8003,9.8003,9.8003,4.9323,0.0,5.2536,5.0676,5.0642,5.0676,0.0,4.8815,4.8646,4.7327,4.7361,4.8578,5.1623,5.1386,5.3179,6.0757,6.2753,6.5358,7.1109,7.7604,8.3659,8.8835,9.0594,9.1677,9.2455,9.3165,9.3571,9.3571,9.3571,9.3571,9.3571,9.3571,9.3571,9.3571,9.3571,9.3503,9.33,9.4882,9.5539,9.5471,9.8333,9.9723,9.9723,9.9905,9.9977,9.9889,9.8913,9.7696,9.6519,9.7499,9.7199,9.61,9.7098,9.7499,9.7696,9.9006,9.928,9.8913,9.8217,9.7794,9.7098,9.4541,9.2564,9.1068,9.1237,9.0256,8.9072,8.9072,8.9072,8.9072,8.9072,8.9072,8.9072,8.9072,8.9072,8.9072,8.9072,8.9072,8.9072,8.9072,8.9072,8.9072,8.9072,8.9579,8.9951,8.9951,9.056,9.1034,9.1034,9.1169,9.1508,9.2083,9.215,9.2455,9.3233,9.2759,9.2658,9.3267,9.347,9.3876,9.4365,9.4434,9.4654,9.5297,9.5973,9.646,9.6595,9.7597,9.8003,9.8003,9.8003,9.8003,4.5669,4.8376,5.0811,4.9627,4.9932,5.0304,4.9526,4.8376,4.7259,4.6447,4.6887,4.824,5.0947,5.255,5.5448,6.1545,6.4994,6.9236,7.6109,8.2035,8.7076,9.0831,9.1947,9.2725,9.3503,9.3571,9.3571,9.3571,9.3571,9.3571,9.3571,9.3571,9.3571,9.3571,9.3571,9.3571,9.3571,9.4859,9.5527,9.5492,9.7598,9.8597,9.8597,9.8597,9.8597,9.8503,9.783,9.6725,9.5527,9.631,9.5815,9.4747,9.6029,9.693,9.7696,9.9006,9.9889,10.0188,9.8913,9.7598,9.631,9.4936,9.2997,9.1305,9.1305,9.0256,8.9072,8.9072,8.9072,8.9072,8.9072,8.9072,8.9072,8.9072,8.9072,8.9072,8.9072,8.9072,8.9072,8.9072,8.9072,8.9207,8.9545,8.9951,9.0324,9.0662,9.1338,9.1812,9.1812,9.2116,9.2489,9.2928,9.2962,9.3131,9.3537,9.3199,9.3131,9.3571,9.3571,9.3943,9.4721,9.4687,9.5247,9.6229,9.6697,9.708,9.744,9.7867,9.8003,9.8003,9.8397,9.8363,4.5399,4.9413,5.3105,5.1824,5.1894,5.2232,5.1928,4.8917,4.6244,4.6346,4.6955,4.8173,5.0473,5.4171,5.7978,6.1418,6.6439,7.2829,8.1054,8.508,8.8294,9.1135,9.215,9.2861,9.3503,9.3571,9.3571,9.3571,9.3571,9.3571,9.3571,9.3571,9.3571,9.3571,9.3571,9.3571,9.3571,9.4669,9.5234,9.5199,9.6519,9.7199,9.7199,9.7199,9.7199,9.7199,9.7032,9.6205,9.5199,9.5199,9.4825,9.4283,9.5343,9.6725,9.8217,9.9189,10.0188,10.1012,9.9407,9.7299,9.5234,9.5199,9.3382,9.1305,9.1305,9.0256,8.9072,8.9072,8.9072,8.9072,8.9072,8.9072,8.9072,8.9072,8.9072,8.9072,8.9072,8.9072,8.9072,8.9072,8.9173,8.9444,9.0087,9.0391,9.0763,9.1372,9.2116,9.259,9.259,9.3165,9.3571,9.3571,9.3571,9.3571,9.3571,9.3571,9.3571,9.3571,9.3706,9.4112,9.4958,9.5142,9.5798,9.7046,9.708,9.7406,9.8003,9.8003,9.8003,9.8037,9.8702,9.8769,4.9187,5.4175,5.6656,4.9433,4.9999,5.1826,4.9965,4.8984,4.868,4.9289,4.9999,5.2367,5.8321,6.0028,6.2717,6.9383,7.4441,7.946,8.5215,8.7617,8.9613,9.1981,9.2928,9.3436,9.3571,9.3571,9.3571,9.3571,9.3571,9.3571,9.3571,9.3571,9.3571,9.3571,9.3571,9.3571,9.3571,9.3772,9.3889,9.3855,9.5234,9.5815,9.585,9.585,9.5815,9.5708,9.4669,9.4087,9.3855,9.3855,9.5047,9.693,9.7133,9.8691,10.0808,9.9889,9.9587,9.9497,9.6997,9.5124,9.3889,9.3855,9.2755,9.1305,9.1305,9.0256,8.9072,8.9072,8.9072,8.9072,8.9072,8.9072,8.9072,8.9072,8.9072,8.9072,8.9072,8.9072,8.9072,8.9072,8.9579,9.0087,9.0188,9.1271,9.2116,9.2218,9.2895,9.3402,9.3402,9.3503,9.3571,9.3571,9.3571,9.3571,9.3571,9.3571,9.3571,9.3571,9.418,9.5179,9.6519,9.7123,9.7664,9.7867,9.7867,9.7935,9.8003,9.8003,9.8003,9.8037,9.8702,9.8994,4.7564,5.2145,5.5541,5.2605,5.6229,6.0133,5.8282,5.6597,5.5392,5.515,5.5709,5.7602,6.1933,6.4897,6.9192,7.7094,8.0452,8.3355,8.6974,8.8767,9.0357,9.2218,9.3098,9.3571,9.3571,9.3571,9.3571,9.3571,9.3571,9.3571,9.3571,9.3571,9.3571,9.3571,9.3571,9.3571,9.3571,9.3571,9.3571,9.3571,9.4168,9.4443,9.4443,9.4443,9.4443,9.4443,9.3889,9.3571,9.3571,9.3571,9.4669,9.6519,9.7234,9.8691,10.0324,9.9712,9.8597,9.7098,9.5887,9.4635,9.3571,9.3571,9.2556,9.1305,9.1305,9.0256,8.9173,8.9579,8.941,8.9072,8.9072,8.9072,8.9072,8.9072,8.9072,8.9072,8.9072,8.941,8.9681,8.9681,9.029,9.0932,9.1338,9.1981,9.2556,9.2996,9.3334,9.3571,9.3571,9.3571,9.3571,9.3571,9.3571,9.3571,9.3571,9.3943,9.418,9.418,9.489,9.5823,9.6824,9.7652,9.8003,9.8003,9.8003,9.8003,9.8003,9.8003,9.8003,9.8037,9.913,9.9525,4.7056,5.0866,5.4932,5.7091,6.166,6.5614,6.5467,6.3276,6.1424,6.195,6.2161,6.3058,6.5847,7.0307,7.573,8.2346,8.4689,8.6399,8.8463,8.9748,9.1,9.2522,9.3199,9.3571,9.3571,9.3571,9.3571,9.3571,9.3571,9.3571,9.3571,9.3571,9.3571,9.3571,9.3571,9.3571,9.3571,9.3571,9.3571,9.3571,9.3571,9.3571,9.3571,9.3571,9.3571,9.3571,9.3571,9.3571,9.3571,9.3571,9.4453,9.575,9.6445,9.7341,9.8061,9.8275,9.6851,9.4772,9.4737,9.4306,9.3537,9.3368,9.2387,9.1271,9.1102,9.0121,8.9207,8.9782,8.9545,8.914,8.9309,8.9342,8.9309,8.914,8.9207,8.9309,8.9106,8.9545,8.9985,9.0188,9.0797,9.1541,9.2286,9.259,9.2895,9.3503,9.3571,9.3571,9.3571,9.374,9.3774,9.3605,9.3909,9.4112,9.4112,9.462,9.5026,9.5195,9.5736,9.6432,9.7163,9.7753,9.8003,9.8003,9.8003,9.8003,9.8003,9.8003,9.8003,9.8037,9.939,9.9694,5.1623,5.4957,5.7875,6.1362,6.0937,6.074,6.5075,6.4064,6.3786,6.9003,6.8589,6.8607,7.2706,7.7377,8.1223,8.3193,8.644,8.9309,9.0831,9.1135,9.1778,9.33,9.3537,9.3571,9.3571,9.3571,9.3571,9.3571,9.3571,9.3571,9.3571,9.3571,9.3571,9.3571,9.3571,9.3571,9.3571,9.3571,9.3571,9.3571,9.3571,9.3571,9.3571,9.3571,9.3571,9.3571,9.3571,9.3571,9.3571,9.3571,9.4634,9.614,9.5053,9.4249,9.3799,9.4494,9.387,9.2605,9.2605,9.3079,9.347,9.2725,9.1947,9.1169,9.0493,8.9715,8.9106,8.914,8.914,8.9241,8.9951,9.0121,8.9951,8.9241,8.9613,8.9918,8.9241,8.914,8.9376,9.0087,9.0797,9.1541,9.2286,9.303,9.3503,9.3571,9.3571,9.3571,9.3571,9.4214,9.4349,9.3673,9.4823,9.5635,9.5635,9.5702,9.6007,9.6683,9.6839,9.7211,9.7867,9.7969,9.8003,9.8003,9.8003,9.8003,9.8003,9.8003,9.8003,9.8037,9.8859,9.9559,4.8545,5.3639,5.8561,6.0769,6.3474,6.6636,7.07,7.2371,7.4027,7.7344,7.808,7.8275,7.8659,8.1053,8.335,8.4414,8.6734,8.8937,9.0425,9.1,9.1677,9.2725,9.33,9.3571,9.3571,9.3571,9.3571,9.3571,9.3571,9.3571,9.3571,9.3571,9.3571,9.3571,9.3571,9.3571,9.3571,9.3571,9.3571,9.3571,9.3571,9.3571,9.3571,9.3571,9.3571,9.3571,9.3571,9.3571,9.3537,9.3064,9.4261,9.6295,9.6221,9.4989,9.3309,9.3586,9.2928,9.1711,9.1711,9.2218,9.2793,9.2522,9.1913,9.1237,9.0966,9.0053,8.9173,8.9647,8.9444,8.914,8.9444,8.9512,8.9444,8.914,8.9309,8.9444,8.914,8.9444,8.9985,9.0729,9.1474,9.2252,9.2996,9.3402,9.3571,9.3571,9.3571,9.3571,9.3571,9.4248,9.4586,9.4315,9.4789,9.5296,9.577,9.5804,9.6311,9.7495,9.7123,9.7191,9.7969,9.8003,9.8003,9.8003,9.8003,9.8003,9.8003,9.8003,9.8003,9.8037,9.8702,9.9537,4.8675,5.3756,5.9264,6.1396,6.5777,7.0791,7.536,7.7601,7.9897,8.3982,8.472,8.3951,8.2155,8.2776,8.393,8.5201,8.7113,8.8767,9.0053,9.0628,9.1237,9.1981,9.2522,9.2962,9.3199,9.3199,9.3334,9.3571,9.3571,9.3571,9.3571,9.3571,9.3571,9.3571,9.3571,9.3571,9.3571,9.3571,9.3571,9.3571,9.3571,9.3571,9.3571,9.3571,9.3571,9.3571,9.3571,9.3436,9.3165,9.2658,9.3229,9.449,9.5213,9.4116,9.2012,9.2252,9.1732,9.0966,9.0966,9.1609,9.2387,9.215,9.188,9.1575,9.1102,9.0256,8.9478,8.9782,8.9478,8.9072,8.9072,8.9241,8.9376,8.914,8.9444,8.9715,8.9478,9.0019,9.0763,9.1508,9.2049,9.2658,9.3436,9.3571,9.3571,9.3571,9.3571,9.3571,9.3571,9.4248,9.4789,9.5026,9.5263,9.5601,9.6108,9.6345,9.692,9.7935,9.7529,9.7461,9.8003,9.8003,9.8003,9.8003,9.8003,9.8003,9.8003,9.8003,9.8003,9.8037,9.8702,9.9492,5.3554,5.6488,6.0284,6.3965,6.7377,7.1559,7.831,7.8382,7.9496,8.8279,8.7396,8.4511,8.2751,8.2441,8.3186,8.5418,8.7651,8.9342,9.0087,9.0222,9.0493,9.1203,9.1305,9.1575,9.2353,9.2421,9.2725,9.3503,9.3571,9.3571,9.3571,9.3571,9.3571,9.3571,9.3571,9.3571,9.3571,9.3571,9.3571,9.3571,9.3571,9.3571,9.3571,9.3571,9.3571,9.3571,9.3571,9.3131,9.2421,9.2421,9.1541,9.0302,9.1637,9.0868,8.9173,8.9918,9.0188,9.0188,9.0188,9.1169,9.2286,9.1541,9.1778,9.2116,9.0662,9.0222,9.0053,8.9309,8.9072,8.9072,8.9072,8.9647,9.0019,8.9275,9.0222,9.1102,9.0391,9.0797,9.1508,9.2286,9.2421,9.2658,9.3436,9.3571,9.3571,9.3571,9.3571,9.3571,9.3605,9.4248,9.4992,9.5702,9.6447,9.6853,9.6853,9.7563,9.8003,9.8003,9.8003,9.8003,9.8003,9.8003,9.8003,9.8003,9.8003,9.8003,9.8003,9.8003,9.8003,9.8037,9.8702,9.9525,5.0803,5.6422,6.303,6.4341,7.1125,7.852,8.2505,8.3402,8.4843,9.0178,8.8619,8.6062,8.5371,8.4932,8.5012,8.5689,8.7211,8.8564,8.9309,8.9884,9.029,9.0493,9.0966,9.1372,9.1609,9.1643,9.1744,9.1947,9.2455,9.2759,9.2759,9.33,9.3571,9.3571,9.3571,9.3571,9.3571,9.303,9.303,9.3571,9.303,9.3064,9.3571,9.3571,9.3571,9.3571,9.3571,9.3131,9.2436,9.2262,9.1049,8.9523,9.0879,9.0422,8.9106,8.9342,8.941,8.941,8.941,9.0053,9.0831,9.0594,9.0696,9.0797,9.0357,8.985,8.9376,8.914,8.9072,8.9072,8.9072,8.9241,8.9478,8.9816,9.0594,9.1237,9.1034,9.1135,9.1508,9.2286,9.2421,9.2658,9.3436,9.3571,9.3571,9.3571,9.3571,9.3774,9.4315,9.4552,9.4789,9.5026,9.5702,9.6108,9.6108,9.6785,9.7428,9.7969,9.8003,9.8003,9.8003,9.8003,9.8003,9.8003,9.8003,9.8003,9.8003,9.8003,9.8003,9.8037,9.8702,9.9549,5.6178,6.1761,6.7788,7.0119,7.5829,8.1909,8.5961,8.8083,8.9361,9.0443,8.8778,8.7294,8.74,8.653,8.6061,8.6941,8.7854,8.8564,8.9038,8.9478,8.9748,8.9748,9.0154,9.0527,9.0831,9.0865,9.0966,9.1271,9.1711,9.1981,9.1981,9.2421,9.2692,9.2692,9.2692,9.2692,9.2692,9.2218,9.2218,9.2658,9.2184,9.2387,9.3131,9.3436,9.3571,9.3537,9.2928,9.2252,9.144,9.1125,9.0154,8.9184,8.9962,8.9779,8.9072,8.9072,8.9072,8.9072,8.9072,8.9579,9.0222,9.0222,9.0391,9.0594,9.029,8.9884,8.9478,8.9173,8.9072,8.9072,8.9072,8.9512,9.0019,9.0154,9.0763,9.1372,9.1677,9.1981,9.2353,9.2793,9.2895,9.303,9.3503,9.3571,9.3571,9.3571,9.3571,9.374,9.4214,9.4518,9.4586,9.4282,9.5432,9.6108,9.5804,9.6751,9.7529,9.7969,9.8003,9.8003,9.8003,9.8003,9.8003,9.8003,9.8003,9.8003,9.8003,9.8003,9.8003,9.8037,9.8702,9.9525,6.5382,6.9332,7.3134,7.8213,8.0561,8.3078,8.8499,9.1647,9.2509,8.9717,8.8426,8.8123,8.8888,8.7448,8.6738,8.8767,8.9072,8.9072,8.9072,8.9072,8.9072,8.9072,8.9072,8.9342,9.0019,9.0121,9.0391,9.1034,9.1169,9.1203,9.1203,9.1271,9.1305,9.1305,9.1305,9.1305,9.1305,9.1237,9.1237,9.1305,9.1237,9.1609,9.2353,9.3131,9.347,9.3402,9.1846,9.0831,9.0154,8.9376,8.9072,8.9072,8.9072,8.9072,8.9072,8.9072,8.9072,8.9072,8.9072,8.9545,9.0121,9.0121,9.056,9.0966,9.029,9.0121,8.9951,8.9275,8.9072,8.9106,8.9173,9.0188,9.1068,9.0527,9.0966,9.1677,9.2387,9.3064,9.3571,9.3571,9.3571,9.3571,9.3571,9.3571,9.3571,9.3571,9.3571,9.3571,9.3571,9.418,9.4349,9.3673,9.5499,9.6514,9.5838,9.7157,9.8003,9.8003,9.8003,9.8003,9.8003,9.8003,9.8003,9.8003,9.8003,9.8003,9.8003,9.8003,9.8003,9.8037,9.8893,9.9559,5.9218,6.5584,7.2952,7.5853,8.1922,8.7496,8.896,9.0469,9.1087,8.9449,8.8888,8.8905,8.9082,8.87,8.8531,8.9004,8.9072,8.9072,8.9072,8.9072,8.9072,8.9072,8.9072,8.914,8.9309,8.9342,8.9376,8.9545,9.0121,9.0459,9.0459,9.1,9.1305,9.1305,9.1305,9.1305,9.1305,9.0729,9.0729,9.1271,9.0729,9.0831,9.1575,9.2319,9.2658,9.259,9.1102,9.0357,9.0154,8.9376,8.9072,8.9072,8.9072,8.9072,8.9072,8.9072,8.9072,8.9072,8.9072,8.9173,8.9342,8.9342,8.9444,8.9512,8.9376,8.9342,8.9275,8.914,8.9072,8.9207,8.9816,9.0222,9.0696,9.1711,9.2522,9.3131,9.33,9.347,9.3571,9.3571,9.3571,9.3571,9.3571,9.3571,9.3571,9.3571,9.3571,9.3571,9.3571,9.374,9.3774,9.3605,9.506,9.5973,9.5804,9.7157,9.8003,9.8003,9.8003,9.8003,9.8003,9.8003,9.8003,9.8003,9.8003,9.8003,9.8003,9.8003,9.8003,9.8037,9.939,9.9967,6.1119,6.7516,7.447,7.9039,8.4077,8.8046,8.8515,8.9321,8.9853,8.9295,8.9072,8.9072,8.9072,8.9072,8.9072,8.9072,8.9072,8.9072,8.9072,8.9072,8.9072,8.9072,8.9072,8.9072,8.9072,8.9072,8.9072,8.9072,8.9444,8.9681,8.9681,9.0019,9.0222,9.0222,9.0222,9.0222,9.0222,8.985,8.985,9.0222,8.985,9.0053,9.0797,9.1541,9.1677,9.1305,9.056,9.0019,8.9647,8.9241,8.9072,8.9072,8.9072,8.9072,8.9072,8.9072,8.9072,8.9072,8.9072,8.9072,8.9072,8.9072,8.9072,8.9072,8.9072,8.9072,8.9072,8.9072,8.9072,8.9173,8.9579,8.9951,9.0391,9.1169,9.2218,9.3131,9.3503,9.3571,9.3571,9.3571,9.3571,9.3571,9.3571,9.3571,9.3571,9.3571,9.3571,9.3571,9.3571,9.3571,9.3571,9.3571,9.4586,9.5432,9.577,9.6819,9.7631,9.8003,9.8003,9.8003,9.8003,9.8003,9.8003,9.8003,9.8003,9.8003,9.8003,9.8003,9.8003,9.8037,9.913,9.9843,6.3181,6.9457,7.5649,8.3113,8.5754,8.6738,8.7617,8.826,8.87,8.87,8.8903,8.9072,8.9072,8.9072,8.9072,8.9072,8.9072,8.9072,8.9072,8.9072,8.9072,8.9072,8.9072,8.9072,8.9072,8.9072,8.9072,8.9072,8.9072,8.9072,8.9072,8.9072,8.9072,8.9072,8.9072,8.9072,8.9072,8.9072,8.9072,8.9072,8.9072,8.941,9.0019,9.0628,9.0662,9.0188,9.0087,8.9647,8.9072,8.9072,8.9072,8.9072,8.9072,8.9072,8.9072,8.9072,8.9072,8.9072,8.9072,8.9072,8.9072,8.9072,8.9072,8.9072,8.9072,8.9072,8.9072,8.9072,8.9072,8.9106,8.9241,8.9748,9.0256,9.0527,9.144,9.2455,9.3199,9.347,9.3571,9.3571,9.3571,9.3571,9.3571,9.3571,9.3571,9.3571,9.3571,9.3571,9.3571,9.3571,9.3571,9.3571,9.4248,9.4958,9.5567,9.6379,9.7157,9.7766,9.7935,9.8003,9.8003,9.8003,9.8003,9.8003,9.8003,9.8003,9.8003,9.8003,9.8003,9.8037,9.8871,9.9568,5.4556,6.3392,7.3762,8.2207,8.4624,8.5317,8.6738,8.7144,8.7211,8.7211,8.8192,8.9072,8.9072,8.9072,8.9072,8.9072,8.9072,8.9072,8.9072,8.9072,8.9072,8.9072,8.9072,8.9072,8.9072,8.9072,8.9072,8.9072,8.9072,8.9072,8.9072,8.9072,8.9072,8.9072,8.9072,8.9072,8.9072,8.9072,8.9072,8.9072,8.9072,8.914,8.9241,8.9342,8.9681,9.0154,8.9512,8.9173,8.9072,8.9072,8.9072,8.9072,8.9072,8.9072,8.9072,8.9072,8.9072,8.9072,8.9072,8.9072,8.9072,8.9072,8.9072,8.9072,8.9072,8.9072,8.9072,8.9072,8.9072,8.9241,8.9884,9.0121,9.0527,9.1812,9.1778,9.1643,9.2421,9.3098,9.3571,9.3571,9.3571,9.3571,9.3571,9.3571,9.3571,9.3571,9.3571,9.3571,9.3571,9.3571,9.3571,9.3571,9.4248,9.4755,9.4857,9.6108,9.692,9.7022,9.7664,9.8003,9.8003,9.8003,9.8003,9.8003,9.8003,9.8003,9.8003,9.8003,9.8003,9.8037,9.939,10.0049,5.7221,6.4288,7.1498,8.011,8.2535,8.3152,8.464,8.5655,8.6264,8.6264,8.7144,8.7989,8.8395,8.8463,8.8598,8.9004,8.9072,8.9072,8.9072,8.9072,8.9072,8.9072,8.9072,8.9072,8.9072,8.9072,8.9072,8.9072,8.9072,8.9072,8.9072,8.9072,8.9072,8.9072,8.9072,8.9072,8.9072,8.9072,8.9072,8.9072,8.9072,8.9072,8.9072,8.9072,8.9275,8.9579,8.9241,8.9072,8.9072,8.9072,8.9072,8.9072,8.9072,8.9072,8.9072,8.9072,8.9072,8.9072,8.9072,8.9072,8.9072,8.9072,8.9072,8.9072,8.9072,8.9072,8.9072,8.9072,8.9072,8.914,8.9478,8.9579,8.9748,9.0391,9.0628,9.0763,9.1102,9.2083,9.3064,9.3503,9.3571,9.3571,9.3571,9.3571,9.3571,9.3571,9.3571,9.3571,9.3571,9.3571,9.3571,9.3571,9.3876,9.4248,9.4687,9.5669,9.6447,9.6853,9.7597,9.8003,9.8003,9.8003,9.8003,9.8003,9.8003,9.8003,9.8003,9.8003,9.8003,9.8037,9.9108,9.9805,5.7458,6.2638,6.686,7.5372,7.8613,8.0141,8.2171,8.3693,8.4708,8.4877,8.552,8.6264,8.7008,8.7448,8.7888,8.8429,8.8531,8.8598,8.8767,8.8801,8.8869,8.9072,8.9072,8.9072,8.9072,8.9072,8.9072,8.9072,8.9072,8.9072,8.9072,8.9072,8.9072,8.9072,8.9072,8.9072,8.9072,8.9072,8.9072,8.9072,8.9072,8.9072,8.9072,8.9072,8.9072,8.9072,8.9072,8.9072,8.9072,8.9072,8.9072,8.9072,8.9072,8.9072,8.9072,8.9072,8.9072,8.9072,8.9072,8.9072,8.9072,8.9072,8.9072,8.9072,8.9072,8.9072,8.9072,8.9072,8.9072,8.9072,8.9072,8.9072,8.914,8.9309,8.9647,9.0019,9.0391,9.1338,9.2353,9.3131,9.33,9.3334,9.3537,9.3571,9.3571,9.3571,9.3571,9.3571,9.3571,9.3571,9.3571,9.3571,9.3571,9.3808,9.4383,9.5093,9.577,9.6311,9.7225,9.7732,9.7732,9.7901,9.8003,9.8003,9.8003,9.8003,9.8003,9.8003,9.8003,9.8037,9.8736,9.9424,4.908,5.3551,5.8287,6.6524,7.1842,7.5912,7.9532,8.0953,8.1731,8.2441,8.3152,8.3896,8.4674,8.5993,8.6974,8.7008,8.7008,8.7279,8.7955,8.8057,8.8294,8.9004,8.9072,8.9072,8.9072,8.9072,8.9072,8.9072,8.9072,8.9072,8.9072,8.9072,8.9072,8.9072,8.9072,8.9072,8.9072,8.9072,8.9072,8.9072,8.9072,8.9072,8.9072,8.9072,8.9072,8.9072,8.9072,8.9072,8.9072,8.9072,8.9072,8.9072,8.9072,8.9072,8.9072,8.9072,8.9072,8.9072,8.9072,8.9072,8.9072,8.9072,8.9072,8.9072,8.9072,8.9072,8.9072,8.9072,8.9072,8.9072,8.9072,8.9072,8.9275,8.9985,8.9647,8.9512,9.0932,9.1305,9.1575,9.2353,9.2489,9.2725,9.347,9.3571,9.3571,9.3571,9.3571,9.3571,9.3571,9.3571,9.3571,9.3571,9.3571,9.3605,9.3639,9.4315,9.4789,9.4823,9.6142,9.6954,9.6954,9.7631,9.8003,9.8003,9.8003,9.8003,9.8003,9.8003,9.8003,9.8037,9.8747,9.9119,4.7327,5.071,5.4702,6.2415,6.7015,7.0466,7.3747,7.6927,7.9363,8.0141,8.1257,8.2306,8.305,8.4843,8.6332,8.6839,8.6907,8.7008,8.7279,8.7279,8.738,8.7651,8.8091,8.8395,8.8395,8.8801,8.9072,8.9072,8.9072,8.9072,8.9072,8.9072,8.9072,8.9072,8.9072,8.9072,8.9072,8.9072,8.9072,8.9072,8.9072,8.9072,8.9072,8.9072,8.9072,8.9072,8.9072,8.9072,8.9072,8.9072,8.9072,8.9072,8.9072,8.9072,8.9072,8.9072,8.9072,8.9072,8.9072,8.9072,8.9072,8.9072,8.9072,8.9072,8.9072,8.9072,8.9072,8.9072,8.9072,8.9072,8.9072,8.9072,8.914,8.941,8.9275,8.9241,8.9748,9.0628,9.1372,9.1643,9.2083,9.2522,9.2793,9.3267,9.3571,9.3571,9.3571,9.3571,9.3571,9.3571,9.3571,9.3571,9.3571,9.3571,9.3571,9.4282,9.4924,9.5364,9.6345,9.7089,9.7597,9.7867,9.7438,9.6159,9.6159,9.6739,9.8003,9.6739,9.6866,9.8003,9.7007,9.7436,4.4722,4.7665,5.1454,5.8693,6.2009,6.4884,7.0432,7.3578,7.5845,7.7604,7.9363,8.0784,8.1528,8.3084,8.4606,8.5587,8.5993,8.623,8.6501,8.6535,8.6636,8.6873,8.7347,8.7617,8.7617,8.8057,8.8361,8.8361,8.8361,8.8361,8.8361,8.8598,8.8835,8.9072,8.9072,8.9072,8.9072,8.9072,8.9072,8.9072,8.9072,8.9072,8.9072,8.9072,8.9072,8.9072,8.9072,8.9072,8.9072,8.9072,8.9072,8.9072,8.9072,8.9072,8.9072,8.9072,8.9072,8.9072,8.9072,8.9072,8.9072,8.9072,8.9072,8.9072,8.9072,8.9072,8.9072,8.9072,8.9072,8.9072,8.9072,8.9072,8.9072,8.9072,8.9072,8.9072,8.9072,9.0053,9.0932,9.0932,9.1541,9.2116,9.2387,9.2861,9.3267,9.3537,9.3571,9.3571,9.3571,9.3571,9.3571,9.3571,9.3571,9.3571,9.3571,9.4045,9.4654,9.5364,9.6108,9.6574,9.6624,9.6893,9.6159,9.4343,9.4208,9.4912,9.6192,9.4912,9.4912,9.603,9.4779,9.5276,0.0,0.0,0.0,5.4871,5.6562,5.9336,6.9586,7.0872,7.0973,7.4728,7.7299,7.9092,7.9938,8.0716,8.1697,8.3152,8.4065,8.4877,8.5655,8.5757,8.6027,8.6771,8.6873,8.6873,8.6873,8.6907,8.6907,8.6907,8.6907,8.6907,8.6907,8.7583,8.8294,8.9038,8.9038,8.9072,8.9072,8.9072,8.9072,8.9072,8.9072,8.9072,8.9072,8.9072,8.9072,8.9072,8.9072,8.9072,8.9072,8.9072,8.9072,8.9072,8.9072,8.9072,8.9072,8.9072,8.9072,8.9072,8.9072,8.9072,8.9072,8.9072,8.9072,8.9072,8.9072,8.9072,8.9072,8.9072,8.9072,8.9072,8.9072,8.9072,8.9072,8.9072,8.9072,8.9072,8.9072,8.9681,9.0188,9.0188,9.0763,9.1508,9.2252,9.2421,9.2692,9.347,9.3571,9.3571,9.3571,9.3571,9.3571,9.3571,9.3571,9.3571,9.3571,9.3571,9.3909,9.4687,9.5398,9.5307,9.4124,9.4815,9.4208,9.241,9.2269,9.2269,9.2269,9.2269,9.241,9.241,9.241,9.2728,4.2185,0.0,0.0,0.0,0.0,0.0,5.9167,6.167,6.441,6.9823,7.1853,7.3713,7.7164,7.8855,8.004,8.0953,8.2644,8.4065,8.4843,8.4945,8.5012,8.5215,8.5757,8.6095,8.6095,8.6602,8.6907,8.6907,8.6907,8.6907,8.6907,8.711,8.755,8.826,8.8294,8.8564,8.9072,8.9072,8.9072,8.9072,8.9072,8.9072,8.9072,8.9072,8.9072,8.9072,8.9072,8.9072,8.9072,8.9072,8.9072,8.9072,8.9072,8.9072,8.9072,8.9072,8.9072,8.9072,8.9072,8.9072,8.9072,8.9072,8.9072,8.9072,8.9072,8.9072,8.9072,8.9072,8.9072,8.9072,8.9072,8.9072,8.9072,8.9072,8.9072,8.9072,8.9072,8.9681,9.0053,8.9512,8.9985,9.0729,9.1474,9.2049,9.2692,9.347,9.3571,9.3571,9.3571,9.3571,9.3571,9.3571,9.3571,9.3571,9.3571,9.3571,9.4112,9.5432,9.4432,9.4146,9.4815,9.3839,9.2237,9.0391,9.0244,8.9681,8.8256,8.9681,9.0945,9.241,9.241,9.251,4.4587,4.6109,4.8545,5.0135,0.0,0.0,5.7239,5.8626,6.0351,6.6068,6.8301,7.0229,7.3477,7.5303,7.686,7.8551,8.0412,8.2238,8.393,8.3896,8.393,8.4539,8.4742,8.4945,8.5283,8.5689,8.596,8.596,8.596,8.6095,8.6433,8.6433,8.6771,8.7516,8.7854,8.8192,8.8632,8.8937,8.9072,8.9072,8.9072,8.9072,8.9072,8.9072,8.9072,8.9072,8.9072,8.9072,8.9072,8.9072,8.9072,8.9072,8.9072,8.9072,8.9072,8.9072,8.9072,8.9072,8.9072,8.9072,8.9072,8.9072,8.9072,8.9072,8.9072,8.9072,8.9072,8.9072,8.9072,8.9072,8.9072,8.9072,8.9072,8.9072,8.9072,8.9072,8.9072,8.9444,8.9613,8.9173,8.9681,9.0357,9.0763,9.1474,9.2218,9.2962,9.3368,9.3571,9.3571,9.3571,9.3571,9.3571,9.3571,9.3571,9.3571,9.3571,9.4214,9.5702,9.3997,9.327,9.4007,9.2237,9.0244,8.8379,8.8379,8.7823,8.6689,8.7823,8.8959,8.9979,8.9979,8.9979,4.803,0.0,0.0,5.4499,5.257,0.0,5.9235,5.8524,5.7645,6.2381,6.4918,6.688,6.8741,7.0364,7.2326,7.5067,7.713,7.9498,8.278,8.278,8.2915,8.4234,8.3795,8.3659,8.4302,8.437,8.4403,8.4505,8.4573,8.4911,8.5621,8.5655,8.5993,8.6771,8.7482,8.7922,8.7989,8.8734,8.9072,8.9072,8.9072,8.9072,8.9072,8.9072,8.9072,8.9072,8.9072,8.9072,8.9072,8.9072,8.9072,8.9072,8.9072,8.9072,8.9072,8.9072,8.9072,8.9072,8.9072,8.9072,8.9072,8.9072,8.9072,8.9072,8.9072,8.9072,8.9072,8.9072,8.9072,8.9072,8.9072,8.9072,8.9072,8.9072,8.9072,8.9072,8.9072,8.9072,8.9072,8.9072,8.9613,9.0121,9.0188,9.0797,9.1541,9.2319,9.3064,9.3571,9.3571,9.3571,9.3571,9.3571,9.3571,9.3571,9.3571,9.3673,9.4315,9.5702,9.3937,9.2639,9.2346,9.0391,8.8379,8.6659,8.6689,8.6689,8.6689,8.6689,8.6689,8.6689,8.6689,8.6689,5.3139,5.4228,5.5683,5.2807,5.416,0.0,5.23,5.2469,5.3721,5.5344,5.6021,5.7509,6.1366,6.3802,6.5628,6.6812,7.077,7.5574,8.0953,8.2103,8.2509,8.2813,8.2712,8.2678,8.2813,8.2847,8.3084,8.3659,8.4268,8.4674,8.4843,8.4843,8.5215,8.5993,8.6738,8.7414,8.7989,8.8734,8.9072,8.9072,8.9072,8.9072,8.9072,8.9072,8.9072,8.9072,8.9072,8.9072,8.9072,8.9072,8.9072,8.9072,8.9072,8.9072,8.9072,8.9072,8.9072,8.9072,8.9072,8.9072,8.9072,8.9072,8.9072,8.9072,8.9072,8.9072,8.9072,8.9072,8.9072,8.9072,8.9072,8.9072,8.9072,8.9072,8.9072,8.9072,8.9072,8.9072,8.9072,8.9072,8.9207,8.9478,9.0121,9.0797,9.1541,9.2319,9.3064,9.3571,9.3571,9.3571,9.3571,9.3571,9.3571,9.3571,9.3571,9.4146,9.4857,9.5736,9.3139,9.1761,9.2378,8.911,8.7103,8.6689,8.6689,8.6689,8.6689,8.6689,8.6689,8.6689,8.6689,8.6689,5.6704,5.7036,5.8084,5.663,5.6258,0.0,0.0,5.3112,5.2739,5.6089,5.504,5.4735,5.8795,6.0486,6.1637,6.2787,6.7354,7.1515,7.3747,7.7604,8.0479,8.1224,8.0987,8.1054,8.1765,8.1832,8.2171,8.2915,8.3287,8.3693,8.4031,8.4065,8.4403,8.5182,8.596,8.6535,8.6907,8.7989,8.8531,8.8531,8.8903,8.9072,8.9072,8.9072,8.9072,8.9072,8.9072,8.9072,8.9072,8.9072,8.9072,8.9072,8.9072,8.9072,8.9072,8.9072,8.9072,8.9072,8.9072,8.9072,8.9072,8.9072,8.9072,8.9072,8.9072,8.9072,8.9072,8.9072,8.9072,8.9072,8.9072,8.9072,8.9072,8.9072,8.9072,8.9072,8.9072,8.9072,8.9072,8.9072,8.9072,8.9207,8.9579,9.056,9.144,9.1812,9.2827,9.3571,9.3571,9.3571,9.3571,9.3571,9.3571,9.3571,9.3571,9.3943,9.4058,9.3964,9.1562,9.0297,9.041,8.7768,8.6329,8.6659,8.6689,8.6689,8.6689,8.6689,8.6689,8.6689,8.6689,8.6689,6.0672,6.0385,6.1163,6.1095,5.9099,5.7374,0.0,0.0,0.0,5.7374,5.5446,5.4025,5.7137,5.7712,5.8084,5.9201,6.3869,6.6745,6.4918,7.0737,7.5845,7.7604,7.7942,7.8483,7.9667,7.9667,8.0175,8.1663,8.1088,8.1393,8.2983,8.3084,8.349,8.437,8.5148,8.5621,8.579,8.711,8.7786,8.7786,8.8531,8.8869,8.8869,8.9004,8.9072,8.9072,8.9072,8.9072,8.9072,8.9072,8.9072,8.9072,8.9072,8.9072,8.9072,8.9072,8.9072,8.9072,8.9072,8.9072,8.9072,8.9072,8.9072,8.9072,8.9072,8.9072,8.9072,8.9072,8.9072,8.9072,8.9072,8.9072,8.9072,8.9072,8.9072,8.9072,8.9072,8.9072,8.9072,8.9072,8.9072,8.9072,8.9072,9.0188,9.1135,9.1271,9.2489,9.3402,9.3571,9.3571,9.3571,9.3571,9.3571,9.3571,9.3571,9.3706,9.3225,9.2044,9.0283,8.9146,8.8594,8.6789,8.615,8.6659,8.6689,8.6689,8.6689,8.6689,8.6689,8.6689,8.6689,8.6689,6.695,6.732,6.7523,6.1704,6.3328,6.3903,5.4397,0.0,5.5243,5.1928,0.0,5.1792,5.2875,0.0,0.0,5.2435,5.7273,6.0148,5.7374,6.1704,6.6203,6.8977,7.2157,7.4187,7.4356,7.3781,7.51,7.9194,7.6386,7.6555,8.1291,8.1528,8.2171,8.3592,8.437,8.508,8.579,8.6602,8.7042,8.7042,8.7786,8.8125,8.8158,8.8801,8.9072,8.9072,8.9072,8.9072,8.9072,8.9072,8.9072,8.9072,8.9072,8.9072,8.9072,8.9072,8.9072,8.9072,8.9072,8.9072,8.9072,8.9072,8.9072,8.9072,8.9072,8.9072,8.9072,8.9072,8.9072,8.9072,8.9072,8.9072,8.9072,8.9072,8.9072,8.9072,8.9072,8.9072,8.9072,8.9072,8.9072,8.9072,8.9072,8.9782,9.056,9.1203,9.2015,9.2793,9.3503,9.3571,9.3571,9.3571,9.3571,9.3571,9.3571,9.4214,9.3796,9.2077,9.0902,8.9685,8.8625,8.7244,8.6599,8.6689,8.6689,8.6689,8.6689,8.6689,8.6689,8.6689,8.6689,8.6689,6.7641,6.8266,6.8713,6.3894,6.3845,6.3405,5.7111,5.531,5.4972,5.5209,0.0,0.0,0.0,0.0,0.0,0.0,5.4059,5.5378,5.2807,5.5852,6.008,6.4816,6.6745,6.8707,7.1312,7.1312,7.2428,7.5608,7.3612,7.4119,7.8517,7.9938,8.1325,8.2813,8.3592,8.4336,8.5114,8.5858,8.6264,8.6264,8.7448,8.7989,8.8023,8.8734,8.9072,8.9072,8.9072,8.9072,8.9072,8.9072,8.9072,8.9072,8.9072,8.9072,8.9072,8.9072,8.9072,8.9072,8.9072,8.9072,8.9072,8.9072,8.9072,8.9072,8.9072,8.9072,8.9072,8.9072,8.9072,8.9072,8.9072,8.9072,8.9072,8.9072,8.9072,8.9072,8.9072,8.9072,8.9072,8.9072,8.9072,8.9072,8.9072,8.9715,9.0324,9.0628,9.1677,9.2522,9.2861,9.33,9.3571,9.3571,9.3571,9.3571,9.3571,9.3876,9.2827,8.9967,8.8016,8.6783,8.6367,8.6561,8.6689,8.6689,8.6689,8.6689,8.6689,8.6689,8.6689,8.6689,8.6689,8.6689,6.9491,6.9955,6.9935,6.5209,6.3555,6.2148,5.8608,5.6528,5.5919,5.7983,5.663,0.0,0.0,0.0,5.2164,5.1352,0.0,5.2232,4.956,5.1251,5.4769,6.0148,6.2042,6.4343,6.7996,6.7252,6.803,7.1684,6.9654,7.0601,7.598,7.7976,7.9837,8.1731,8.2712,8.3558,8.4302,8.508,8.5587,8.579,8.7076,8.7786,8.8023,8.8734,8.9072,8.9072,8.9072,8.9072,8.9072,8.9072,8.9072,8.9072,8.9072,8.9072,8.9072,8.9072,8.9072,8.9072,8.9072,8.9072,8.9072,8.9072,8.9072,8.9072,8.9072,8.9072,8.9072,8.9072,8.9072,8.9072,8.9072,8.9072,8.9072,8.9072,8.9072,8.9072,8.9072,8.9072,8.9072,8.9072,8.9072,8.9072,8.9072,8.9545,8.9985,9.0188,9.1305,9.2184,9.2387,9.3098,9.3571,9.3571,9.3571,9.3571,9.3571,9.3182,9.1272,8.7644,8.5777,8.4714,8.4714,8.597,8.6689,8.6689,8.6689,8.6689,8.6689,8.6689,8.6689,8.6689,8.6689,8.6689,7.4776,7.4287,7.2942,6.4563,6.2956,6.1985,5.6055,5.7408,5.9302,5.7306,5.9641,6.1197,5.8389,5.6596,5.46,5.1691,5.186,0.0,0.0,4.7597,4.956,5.3382,5.8287,6.2009,6.3565,5.9776,6.025,6.7523,6.3362,6.4613,7.4187,7.5439,7.7198,8.0175,8.1697,8.278,8.3524,8.4302,8.5046,8.579,8.6569,8.7313,8.8023,8.8734,8.9072,8.9072,8.9072,8.9072,8.9072,8.9072,8.9072,8.9072,8.9072,8.9072,8.9072,8.9072,8.9072,8.9072,8.9072,8.9072,8.9072,8.9072,8.9072,8.9072,8.9072,8.9072,8.9072,8.9072,8.9072,8.9072,8.9072,8.9072,8.9072,8.9072,8.9072,8.9072,8.9072,8.9072,8.9072,8.9072,8.9072,8.9072,8.9072,8.9106,8.9376,9.0087,9.0865,9.1609,9.2319,9.3098,9.3571,9.3571,9.3571,9.3571,9.3571,9.1958,8.9414,8.5757,8.4941,8.4714,8.4714,8.597,8.6689,8.6689,8.6689,8.6689,8.6689,8.6689,8.6689,8.6689,8.6689,8.6689,7.6775,7.7313,7.6607,6.8743,6.6826,6.513,5.8948,5.9268,6.0114,5.7374,5.9776,6.1467,5.8457,5.6292,5.4296,5.2266,5.0507,4.8612,0.0,4.7158,4.8376,4.9661,5.4431,5.7611,5.7611,5.7137,5.866,6.3193,6.2347,6.4546,7.1312,7.4728,7.7198,7.8686,8.1122,8.2746,8.349,8.4234,8.4776,8.5046,8.579,8.6569,8.7313,8.8023,8.8632,8.9072,8.9072,8.9072,8.9072,8.9072,8.9072,8.9072,8.9072,8.9072,8.9072,8.9072,8.9072,8.9072,8.9072,8.9072,8.9072,8.9072,8.9072,8.9072,8.9072,8.9072,8.9072,8.9072,8.9072,8.9072,8.9072,8.9072,8.9072,8.9072,8.9072,8.9072,8.9072,8.9072,8.9072,8.9072,8.9072,8.9072,8.9072,8.9072,8.9173,8.941,9.0527,9.1372,9.1643,9.2793,9.3571,9.3571,9.2514,9.1835,9.1835,8.902,8.685,8.5645,8.4971,8.4714,8.4714,8.597,8.6689,8.6689,8.6689,8.6689,8.6689,8.6689,8.6689,8.6689,8.6689,8.6689,7.9362,7.9924,7.9222,7.2719,7.0326,6.8127,6.213,6.1843,6.2009,5.9032,6.052,6.1941,6.052,5.7374,5.4566,5.3315,5.0405,4.7597,0.0,4.6346,4.7124,4.7124,5.1014,5.3856,5.416,5.3856,5.5547,6.0148,6.0452,6.3024,6.9045,7.3138,7.6014,7.7536,8.0479,8.2374,8.3084,8.4099,8.4776,8.5046,8.5554,8.6298,8.7313,8.7786,8.8395,8.9072,8.9072,8.9072,8.9072,8.9072,8.9072,8.9072,8.9072,8.9072,8.9072,8.9072,8.9072,8.9072,8.9072,8.9072,8.9072,8.9072,8.9072,8.9072,8.9072,8.9072,8.9072,8.9072,8.9072,8.9072,8.9072,8.9072,8.9072,8.9072,8.9072,8.9072,8.9072,8.9072,8.9072,8.9072,8.9072,8.9072,8.9072,8.9072,8.9072,8.9072,9.0357,9.1305,9.1305,9.2624,9.3301,9.2755,9.1554,9.0353,8.9152,8.685,8.5215,8.4552,8.4699,8.4714,8.4714,8.597,8.6689,8.6689,8.6689,8.6689,8.6689,8.6689,8.6689,8.6689,8.6689,8.6689]},{"header":{"parameterUnit":"m.s-1","parameterCategory":1,"la1":30.6,"la2":29.2853,"lo1":-89.7004,"lo2":-87.6739,"dy":0.0162,"dx":0.0183,"nx":112,"ny":82,"refTime":"2024-09-22T12:00:00:Z","depth":0,"parameterNumber":3,"parameterNumberName":"V-component_of_WINDS"},"data":[0.0,0.0,0.0,0.0,0.0,0.0,0.0,0.0,0.0,0.0,0.0,0.0,0.0,0.0,0.0,0.0,0.0,0.0,0.0,0.0,0.0,0.0,0.0,0.0,0.0,0.0,0.0,0.0,0.0,0.0,0.0,0.0,0.0,0.0,0.0,0.0,0.0,0.0,0.0,0.0,0.0,0.0,0.0,0.0,0.0,0.0,0.0,0.0,0.0,0.0,0.0,0.0,0.0,0.0,0.0,0.0,0.0,0.0,0.0,0.0,0.0,0.0,0.0,0.0,0.0,0.0,0.0,0.0,0.0,0.0,0.0,0.0,0.0,0.0,0.0,0.0,0.0,0.0,0.0,0.0,0.0,0.0,0.0,0.0,0.0,0.0,0.0,0.0,0.0,0.0,-2.9336,-3.2753,-3.9477,-4.3711,-4.3711,-4.3771,-4.2301,-3.9187,0.0,0.0,0.0,0.0,0.0,0.0,0.0,0.0,0.0,0.0,0.0,0.0,0.0,0.0,0.0,0.0,0.0,0.0,0.0,0.0,0.0,0.0,0.0,0.0,0.0,0.0,0.0,0.0,0.0,0.0,0.0,0.0,0.0,0.0,0.0,0.0,0.0,0.0,0.0,0.0,0.0,0.0,0.0,0.0,0.0,0.0,0.0,0.0,0.0,0.0,0.0,0.0,0.0,0.0,0.0,0.0,0.0,0.0,0.0,0.0,0.0,0.0,0.0,0.0,0.0,0.0,0.0,0.0,0.0,0.0,0.0,0.0,0.0,0.0,0.0,0.0,0.0,0.0,0.0,0.0,0.0,0.0,0.0,0.0,0.0,0.0,0.0,0.0,0.0,0.0,0.0,0.0,0.0,0.0,0.0,0.0,0.0,0.0,0.0,0.0,0.0,0.0,0.0,0.0,-3.0468,-3.6993,-4.1329,-4.3711,-4.3711,-4.364,-4.294,-4.0899,0.0,0.0,0.0,0.0,0.0,0.0,0.0,0.0,0.0,0.0,0.0,0.0,0.0,0.0,0.0,0.0,0.0,0.0,0.0,0.0,0.0,0.0,0.0,0.0,0.0,0.0,0.0,0.0,0.0,0.0,0.0,0.0,0.0,0.0,0.0,0.0,0.0,0.0,0.0,0.0,0.0,0.0,0.0,0.0,0.0,0.0,0.0,0.0,0.0,0.0,0.0,0.0,0.0,0.0,0.0,0.0,0.0,0.0,0.0,0.0,0.0,0.0,0.0,0.0,0.0,0.0,0.0,0.0,0.0,0.0,0.0,0.0,0.0,0.0,0.0,0.0,0.0,0.0,0.0,0.0,0.0,0.0,0.0,0.0,0.0,0.0,0.0,0.0,0.0,0.0,0.0,0.0,0.0,0.0,0.0,0.0,0.0,0.0,0.0,0.0,0.0,0.0,0.0,-2.6572,-2.9179,-3.3352,-3.9844,-4.3651,-4.373,-4.366,-4.2575,-3.9909,-3.3345,0.0,0.0,0.0,0.0,0.0,0.0,0.0,0.0,0.0,0.0,0.0,0.0,0.0,0.0,0.0,0.0,0.0,0.0,0.0,0.0,0.0,0.0,0.0,0.0,0.0,0.0,0.0,0.0,0.0,0.0,0.0,0.0,0.0,0.0,0.0,0.0,0.0,0.0,0.0,0.0,0.0,0.0,0.0,0.0,0.0,0.0,0.0,0.0,0.0,0.0,0.0,0.0,0.0,0.0,0.0,0.0,0.0,0.0,0.0,0.0,0.0,0.0,0.0,0.0,0.0,0.0,0.0,0.0,0.0,0.0,0.0,0.0,0.0,0.0,0.0,0.0,0.0,0.0,0.0,0.0,0.0,0.0,0.0,0.0,0.0,0.0,0.0,0.0,0.0,0.0,0.0,0.0,0.0,0.0,0.0,0.0,0.0,0.0,0.0,0.0,0.0,0.0,-2.6766,-2.7903,-2.9747,-3.8165,-4.3748,-4.373,-4.3678,-4.2235,-3.88,-3.2133,0.0,0.0,0.0,0.0,0.0,0.0,0.0,0.0,0.0,0.0,0.0,0.0,0.0,0.0,0.0,0.0,0.0,0.0,0.0,0.0,0.0,0.0,0.0,0.0,0.0,0.0,0.0,0.0,0.0,0.0,0.0,0.0,0.0,0.0,0.0,0.0,0.0,0.0,0.0,0.0,0.0,0.0,0.0,0.0,0.0,0.0,0.0,0.0,0.0,0.0,0.0,0.0,0.0,0.0,0.0,0.0,0.0,0.0,0.0,0.0,0.0,0.0,0.0,0.0,0.0,0.0,0.0,0.0,0.0,0.0,0.0,0.0,0.0,0.0,0.0,0.0,0.0,0.0,0.0,0.0,0.0,0.0,0.0,0.0,0.0,0.0,0.0,0.0,0.0,0.0,0.0,0.0,0.0,0.0,0.0,0.0,0.0,0.0,0.0,0.0,0.0,0.0,-2.6738,-2.7987,-2.9783,-3.8195,-4.373,-4.3711,-4.3656,-4.2287,-3.8875,-3.2092,0.0,0.0,0.0,0.0,0.0,0.0,0.0,0.0,0.0,0.0,0.0,0.0,0.0,0.0,0.0,0.0,0.0,0.0,0.0,0.0,0.0,0.0,0.0,0.0,0.0,0.0,0.0,0.0,0.0,0.0,0.0,0.0,0.0,0.0,0.0,0.0,0.0,0.0,0.0,0.0,0.0,0.0,0.0,0.0,0.0,0.0,0.0,0.0,0.0,0.0,0.0,0.0,0.0,0.0,0.0,0.0,0.0,0.0,0.0,0.0,0.0,0.0,0.0,0.0,0.0,0.0,0.0,0.0,0.0,0.0,0.0,0.0,0.0,0.0,0.0,0.0,0.0,0.0,0.0,0.0,0.0,0.0,0.0,0.0,0.0,0.0,0.0,0.0,0.0,0.0,0.0,0.0,0.0,0.0,0.0,0.0,0.0,0.0,0.0,0.0,0.0,0.0,-2.6878,-3.1073,-3.776,-4.1582,-4.3632,-4.3785,-4.373,-3.9979,-3.1167,0.0,0.0,0.0,0.0,0.0,0.0,0.0,0.0,0.0,0.0,0.0,0.0,0.0,0.0,0.0,0.0,0.0,0.0,0.0,0.0,0.0,0.0,0.0,0.0,0.0,0.0,0.0,0.0,0.0,0.0,0.0,0.0,0.0,0.0,0.0,0.0,0.0,0.0,0.0,0.0,0.0,0.0,0.0,0.0,0.0,0.0,0.0,0.0,0.0,0.0,0.0,0.0,0.0,0.0,0.0,0.0,0.0,0.0,0.0,0.0,0.0,0.0,0.0,0.0,0.0,0.0,0.0,0.0,0.0,0.0,0.0,0.0,0.0,0.0,0.0,0.0,0.0,0.0,0.0,0.0,0.0,0.0,0.0,0.0,0.0,0.0,0.0,0.0,0.0,0.0,0.0,0.0,0.0,0.0,0.0,0.0,0.0,0.0,0.0,0.0,0.0,0.0,-2.4525,-2.7164,-3.1672,-3.8537,-4.1919,-4.3779,-4.3771,-4.3176,-3.8858,-2.9499,0.0,0.0,0.0,0.0,0.0,0.0,0.0,0.0,0.0,0.0,0.0,0.0,0.0,0.0,0.0,0.0,0.0,0.0,0.0,0.0,0.0,0.0,0.0,0.0,0.0,0.0,0.0,0.0,0.0,0.0,0.0,0.0,0.0,0.0,0.0,0.0,0.0,0.0,0.0,0.0,0.0,0.0,0.0,0.0,0.0,0.0,0.0,0.0,0.0,0.0,0.0,0.0,0.0,0.0,0.0,0.0,0.0,0.0,0.0,0.0,0.0,0.0,0.0,0.0,0.0,0.0,0.0,0.0,0.0,0.0,0.0,0.0,0.0,0.0,0.0,0.0,0.0,0.0,0.0,0.0,0.0,0.0,0.0,0.0,0.0,0.0,0.0,0.0,0.0,0.0,0.0,0.0,0.0,0.0,0.0,0.0,0.0,0.0,0.0,0.0,0.0,0.0,-2.6032,-2.7734,-2.9212,-3.0,-3.8268,-4.3739,-4.3731,-4.2174,-3.975,0.0,0.0,0.0,0.0,0.0,0.0,0.0,0.0,0.0,0.0,0.0,0.0,0.0,0.0,0.0,0.0,0.0,0.0,0.0,0.0,0.0,0.0,0.0,0.0,0.0,0.0,0.0,0.0,0.0,0.0,0.0,0.0,0.0,0.0,0.0,0.0,0.0,0.0,0.0,0.0,0.0,0.0,0.0,0.0,0.0,0.0,0.0,0.0,0.0,0.0,0.0,0.0,0.0,0.0,0.0,0.0,0.0,0.0,0.0,0.0,0.0,0.0,0.0,0.0,0.0,0.0,0.0,0.0,0.0,0.0,0.0,0.0,0.0,0.0,0.0,0.0,0.0,0.0,0.0,0.0,0.0,0.0,0.0,0.0,0.0,0.0,0.0,0.0,0.0,0.0,0.0,0.0,0.0,0.0,0.0,0.0,0.0,0.0,0.0,0.0,0.0,0.0,0.0,-3.158,-2.9913,-3.1317,-3.8874,-4.2084,-4.3641,-4.3758,-4.2128,-3.9678,-3.6259,0.0,0.0,0.0,0.0,0.0,0.0,0.0,0.0,0.0,0.0,0.0,0.0,0.0,0.0,0.0,0.0,0.0,0.0,0.0,0.0,0.0,0.0,0.0,0.0,0.0,0.0,0.0,0.0,0.0,0.0,0.0,0.0,0.0,0.0,0.0,0.0,0.0,0.0,0.0,0.0,0.0,0.0,0.0,0.0,0.0,0.0,0.0,0.0,0.0,0.0,0.0,0.0,0.0,0.0,0.0,0.0,0.0,0.0,0.0,0.0,0.0,0.0,0.0,0.0,0.0,0.0,0.0,0.0,0.0,0.0,0.0,0.0,0.0,0.0,0.0,0.0,0.0,0.0,0.0,0.0,0.0,0.0,0.0,0.0,0.0,0.0,0.0,0.0,0.0,0.0,0.0,0.0,0.0,0.0,0.0,0.0,0.0,0.0,0.0,0.0,0.0,0.0,-3.4121,-3.4214,-3.6334,-4.3055,-4.3701,-4.366,-4.3636,-4.2166,-3.9705,-3.6284,0.0,0.0,0.0,0.0,0.0,0.0,0.0,0.0,0.0,0.0,0.0,0.0,0.0,0.0,0.0,0.0,0.0,0.0,0.0,0.0,0.0,0.0,0.0,0.0,0.0,0.0,0.0,0.0,0.0,0.0,0.0,0.0,0.0,0.0,0.0,0.0,0.0,0.0,0.0,0.0,0.0,0.0,0.0,0.0,0.0,0.0,0.0,0.0,0.0,0.0,0.0,0.0,0.0,0.0,0.0,0.0,0.0,0.0,0.0,0.0,0.0,0.0,0.0,0.0,0.0,0.0,0.0,0.0,0.0,0.0,0.0,0.0,0.0,0.0,0.0,0.0,0.0,0.0,0.0,0.0,0.0,0.0,0.0,0.0,0.0,0.0,0.0,0.0,0.0,0.0,0.0,0.0,0.0,0.0,0.0,0.0,0.0,0.0,0.0,0.0,0.0,0.0,-3.4803,-3.9433,-4.2799,-4.3652,-4.3711,-4.3739,-4.3751,-4.2367,-3.9919,-3.6504,0.0,0.0,0.0,0.0,0.0,0.0,0.0,0.0,0.0,0.0,0.0,0.0,0.0,0.0,0.0,0.0,0.0,0.0,0.0,0.0,0.0,0.0,0.0,0.0,0.0,0.0,0.0,0.0,0.0,0.0,0.0,0.0,0.0,0.0,0.0,0.0,0.0,0.0,0.0,0.0,0.0,0.0,0.0,0.0,0.0,0.0,0.0,0.0,0.0,0.0,0.0,0.0,0.0,0.0,0.0,0.0,0.0,0.0,0.0,0.0,-2.9868,-2.8784,0.0,0.0,0.0,0.0,0.0,0.0,0.0,0.0,0.0,0.0,0.0,0.0,0.0,0.0,0.0,0.0,0.0,0.0,0.0,0.0,0.0,0.0,0.0,0.0,0.0,0.0,0.0,0.0,0.0,0.0,0.0,0.0,0.0,0.0,0.0,0.0,0.0,0.0,0.0,0.0,-3.6368,-4.0627,-4.3464,-4.3672,-4.3711,-4.3739,-4.3751,-4.3318,-4.1716,-3.8307,-3.4043,0.0,0.0,0.0,0.0,0.0,0.0,0.0,0.0,0.0,0.0,0.0,0.0,0.0,0.0,0.0,0.0,0.0,0.0,0.0,0.0,0.0,0.0,0.0,0.0,0.0,0.0,0.0,0.0,0.0,0.0,0.0,0.0,0.0,0.0,0.0,0.0,0.0,0.0,0.0,0.0,0.0,0.0,0.0,0.0,0.0,0.0,0.0,0.0,0.0,0.0,0.0,0.0,0.0,0.0,0.0,0.0,0.0,0.0,0.0,-3.4274,-3.2334,0.0,0.0,0.0,0.0,0.0,0.0,0.0,0.0,0.0,0.0,0.0,0.0,0.0,0.0,0.0,0.0,0.0,0.0,0.0,0.0,0.0,0.0,0.0,0.0,0.0,0.0,0.0,0.0,0.0,0.0,0.0,0.0,0.0,0.0,0.0,0.0,0.0,0.0,0.0,0.0,-3.6997,-4.1094,-4.368,-4.3691,-4.3711,-4.3633,-4.3641,-4.3699,-4.2672,-4.0048,-3.741,0.0,0.0,0.0,0.0,0.0,0.0,0.0,0.0,0.0,0.0,0.0,0.0,0.0,0.0,0.0,0.0,0.0,0.0,0.0,0.0,0.0,0.0,0.0,0.0,0.0,0.0,0.0,0.0,0.0,0.0,0.0,0.0,0.0,0.0,0.0,0.0,0.0,0.0,0.0,0.0,0.0,0.0,0.0,0.0,0.0,0.0,0.0,0.0,0.0,0.0,0.0,0.0,0.0,-3.8164,-3.9043,-4.0351,-4.0801,-4.1406,-4.1894,-3.8984,-3.6627,-3.4839,-3.3973,0.0,0.0,0.0,0.0,0.0,0.0,0.0,0.0,0.0,0.0,0.0,0.0,0.0,0.0,0.0,0.0,0.0,0.0,0.0,0.0,0.0,0.0,-3.5488,-3.5762,-3.7246,-3.7285,-3.2519,0.0,0.0,0.0,0.0,0.0,0.0,0.0,0.0,0.0,0.0,0.0,-3.7201,-4.1054,-4.3711,-4.3711,-4.3711,-4.3711,-4.3711,-4.3652,-4.3081,-4.1661,-4.0344,-3.8107,0.0,0.0,0.0,0.0,0.0,0.0,0.0,0.0,0.0,0.0,0.0,0.0,0.0,0.0,0.0,0.0,0.0,0.0,0.0,0.0,0.0,0.0,0.0,0.0,0.0,0.0,0.0,0.0,0.0,0.0,0.0,0.0,-2.7266,-2.8203,0.0,0.0,0.0,0.0,0.0,0.0,0.0,0.0,0.0,0.0,0.0,0.0,0.0,-3.7207,-3.8418,-4.0781,-4.207,-4.2266,-4.4141,-4.4961,-4.4844,-4.5273,-4.5527,-4.5586,-4.4766,0.0,-3.9038,-3.7708,0.0,0.0,0.0,0.0,0.0,0.0,0.0,0.0,0.0,0.0,0.0,0.0,0.0,0.0,0.0,0.0,0.0,0.0,0.0,0.0,0.0,0.0,-4.0703,-4.0391,-4.082,-4.0879,-3.9394,-3.5918,-3.25,-3.0508,-2.9336,-2.8184,0.0,0.0,0.0,0.0,0.0,0.0,-3.8135,-4.1577,-4.3711,-4.3711,-4.3711,-4.3711,-4.3711,-4.3706,-4.3636,-4.338,-4.3197,-4.2235,-4.0323,-3.8503,0.0,0.0,0.0,0.0,0.0,0.0,0.0,0.0,0.0,0.0,0.0,0.0,0.0,0.0,0.0,0.0,0.0,0.0,0.0,0.0,0.0,0.0,0.0,0.0,0.0,0.0,0.0,0.0,0.0,-2.6934,-2.9512,-2.9629,-3.0137,-2.9746,0.0,0.0,0.0,0.0,0.0,0.0,0.0,0.0,0.0,-3.8926,-4.0234,-4.1523,-4.2832,-4.4199,-4.5137,-4.5625,-4.6816,-4.7539,-4.7851,-4.8027,-4.8125,-4.8086,-4.7402,-4.5996,-4.3984,-4.0976,-3.8652,-3.6797,0.0,0.0,0.0,0.0,-3.4646,-3.4575,-3.4214,-3.3541,-3.2784,-3.1793,0.0,0.0,0.0,0.0,0.0,0.0,0.0,-3.5937,-3.7734,-3.9824,-4.1582,-4.2109,-4.2558,-4.2695,-4.209,-4.0137,-3.7617,-3.4707,-3.4043,-3.2969,-2.9746,-3.0137,0.0,0.0,0.0,-3.7673,-3.8519,-4.1587,-4.3711,-4.3711,-4.3711,-4.3711,-4.3711,-4.3739,-4.3765,-4.3628,-4.3699,-4.3376,-4.2692,-4.183,-3.7291,0.0,0.0,0.0,0.0,0.0,0.0,0.0,0.0,0.0,0.0,0.0,0.0,0.0,0.0,0.0,0.0,0.0,0.0,0.0,0.0,0.0,0.0,0.0,0.0,0.0,0.0,0.0,0.0,-2.9453,-3.1543,-3.1074,-3.248,-3.2422,0.0,0.0,0.0,0.0,0.0,0.0,-3.7363,-3.8828,-4.0664,-4.3047,-4.4141,-4.5273,-4.6484,-4.6914,-4.7441,-4.8086,-4.8516,-4.9062,-4.9687,-4.9687,-4.9687,-4.9648,-4.875,-4.8203,-4.7617,-4.3867,-4.1621,-4.0391,-3.8887,-3.832,-3.8476,-3.9221,-3.9376,-3.9089,-3.8996,-3.8429,-3.74,-3.6359,-3.5805,-3.5262,-3.4402,0.0,0.0,0.0,0.0,-3.8144,-4.0312,-4.1269,-4.1933,-4.2988,-4.3476,-4.3613,-4.3301,-4.2988,-4.1777,-3.8457,-3.8144,-3.7207,-3.3359,-3.373,0.0,-3.4297,-3.7012,-3.9082,-3.9231,-4.1914,-4.3711,-4.3711,-4.3711,-4.3711,-4.3711,-4.3711,-4.3711,-4.3711,-4.3641,-4.3731,-4.3656,-4.3678,-3.9414,-3.0376,0.0,0.0,0.0,0.0,0.0,0.0,0.0,0.0,0.0,0.0,0.0,0.0,0.0,0.0,0.0,0.0,0.0,0.0,0.0,0.0,0.0,0.0,0.0,0.0,0.0,0.0,0.0,0.0,0.0,-3.332,-3.5508,0.0,0.0,0.0,0.0,-3.5625,-3.7285,-3.9199,-4.1387,-4.3144,-4.4863,-4.6621,-4.7129,-4.7812,-4.8691,-4.9141,-4.9394,-4.9433,-4.9883,-5.0098,-5.0137,-5.0137,-5.0137,-5.0098,-4.9199,-4.8808,-4.8613,-4.6367,-4.4922,-4.4043,-4.3125,-4.2754,-4.2651,-4.0935,-4.0414,-4.0168,-3.8748,-3.7614,-3.7047,-3.7675,-3.7738,-3.7432,-3.6687,-3.6997,0.0,0.0,-4.0273,-4.082,-4.2949,-4.3242,-4.3105,-4.3555,-4.3691,-4.3691,-4.3672,-4.3652,-4.3105,-4.1308,-4.0332,-3.9316,-3.7832,0.0,-3.7832,-3.8223,-3.9512,-4.0511,-4.096,-4.2682,-4.3711,-4.3711,-4.3711,-4.3711,-4.3711,-4.3711,-4.3711,-4.3711,-4.3691,-4.3672,-4.3652,-4.3687,-4.2645,-4.0563,-3.0266,0.0,0.0,0.0,0.0,0.0,0.0,0.0,0.0,0.0,0.0,0.0,0.0,0.0,0.0,0.0,0.0,0.0,0.0,0.0,0.0,0.0,0.0,0.0,0.0,0.0,0.0,0.0,0.0,-3.6309,-3.8379,0.0,-3.6719,-3.7559,-3.8652,-3.9668,-4.1348,-4.3144,-4.5,-4.6211,-4.7383,-4.8555,-4.9023,-4.9258,-4.9297,-4.9726,-4.9941,-4.9961,-5.0371,-5.0723,-5.0976,-5.0703,-5.0586,-5.0547,-4.9961,-4.9551,-4.9238,-4.8457,-4.7324,-4.5976,-4.5371,-4.5312,-4.5394,-4.4837,-4.4873,-4.4907,-4.3746,-4.3199,-4.2827,-4.2562,-4.2293,-4.1922,-4.1352,-4.1567,-4.2148,-4.248,-4.2793,-4.3183,-4.3945,-4.3808,-4.3516,-4.3672,-4.3711,-4.3711,-4.3711,-4.3711,-4.3613,-4.3301,-4.2539,-4.1445,-3.9863,-4.0273,-4.0605,-3.9922,-4.1172,-4.2402,-4.2721,-4.3312,-4.3711,-4.3711,-4.3711,-4.3711,-4.3711,-4.3711,-4.3778,-4.3746,-4.3726,-4.3628,-4.3755,-4.3619,-4.3396,-4.2861,-3.7816,-3.0943,0.0,0.0,0.0,0.0,0.0,0.0,0.0,0.0,0.0,0.0,0.0,0.0,0.0,0.0,0.0,0.0,0.0,0.0,0.0,0.0,0.0,0.0,0.0,0.0,0.0,-3.5742,-3.834,-3.875,-4.0976,-4.1797,-4.0039,-4.1328,-4.2558,-4.3262,-4.4785,-4.623,-4.7519,-4.8398,-4.9199,-4.9941,-5.0098,-5.0039,-4.9746,-5.0176,-5.0312,-5.0195,-5.0742,-5.1172,-5.1426,-5.1133,-5.1016,-5.0996,-5.0566,-5.0234,-4.9941,-4.9805,-4.9062,-4.7969,-4.7383,-4.7324,-4.7578,-4.7578,-4.7676,-4.7676,-4.6816,-4.6426,-4.6191,-4.5469,-4.5058,-4.4746,-4.4277,-4.4375,-4.457,-4.4414,-4.4492,-4.4609,-4.4609,-4.4277,-4.3945,-4.3945,-4.3828,-4.375,-4.3906,-4.3808,-4.3848,-4.4316,-4.3808,-4.293,-4.1797,-4.2305,-4.2519,-4.1523,-4.248,-4.3398,-4.3672,-4.3711,-4.3711,-4.3711,-4.3711,-4.3711,-4.3711,-4.366,-4.3667,-4.3731,-4.3178,-4.2803,-4.2863,-4.2797,-4.2891,-4.2837,-3.8457,-3.2471,-2.4735,0.0,0.0,0.0,0.0,0.0,0.0,0.0,0.0,0.0,0.0,0.0,0.0,0.0,0.0,0.0,0.0,0.0,0.0,0.0,0.0,0.0,0.0,0.0,-3.5527,-3.8144,-4.0195,-4.0644,-4.332,-4.4433,-4.2754,-4.4531,-4.5937,-4.6348,-4.7558,-4.8457,-4.8887,-4.9726,-5.0391,-5.082,-5.043,-5.0215,-5.0195,-5.0625,-5.0605,-5.0215,-5.1035,-5.1426,-5.1426,-5.1426,-5.1426,-5.1406,-5.0996,-5.082,-5.0781,-5.0371,-5.0195,-5.0098,-4.9219,-4.8887,-4.8867,-4.8867,-4.8574,-4.8086,-4.7246,-4.668,-4.625,-4.584,-4.5703,-4.5625,-4.5176,-4.5058,-4.5156,-4.5566,-4.5371,-4.5039,-4.5039,-4.4726,-4.4414,-4.4414,-4.4082,-4.3867,-4.4316,-4.4062,-4.3887,-4.4355,-4.4062,-4.373,-4.373,-4.3711,-4.3574,-4.3164,-4.3437,0.0,-4.3711,-4.3711,-4.3711,-4.3711,-4.3711,-4.3711,-4.3711,-4.3775,-4.3678,-4.3613,-4.2072,-4.1128,-4.1094,-4.1103,-4.1036,-4.1024,-3.1704,-2.752,-2.8723,0.0,0.0,0.0,0.0,0.0,0.0,0.0,0.0,0.0,0.0,0.0,0.0,0.0,0.0,0.0,0.0,0.0,0.0,0.0,0.0,0.0,-3.6309,-3.8652,-3.8652,-4.125,-4.3555,-4.459,-4.5996,-4.668,-4.6211,-4.7266,-4.8027,-4.8144,-4.9082,-4.9824,-5.0254,-5.0508,-5.082,-5.125,-5.1152,-5.0937,-5.0644,-5.1055,-5.1055,-5.0644,-5.1172,-5.1426,-5.1426,-5.1426,-5.1426,-5.1426,-5.1308,-5.1094,-5.0801,-5.0683,-5.0449,-5.0117,-4.9551,-4.9336,-4.9297,-4.8984,-4.8574,-4.8164,-4.7949,-4.7363,-4.6738,-4.6621,-4.6367,-4.6055,-4.5625,-4.5703,-4.5918,-4.5723,-4.5586,-4.5508,-4.5508,-4.5176,-4.4863,-4.4863,-4.4766,-4.4707,-4.4824,-4.4746,-4.4785,-4.5234,-4.4961,-4.457,-4.4258,-4.3926,-4.3672,-4.3555,-4.3633,-4.3711,-4.3711,-4.3711,-4.3711,-4.3711,-4.3711,-4.3711,-4.3711,-4.3775,-4.2644,-4.023,-4.0684,-4.0117,-3.7477,-3.7422,-3.6849,-3.5607,-3.6607,-3.7267,0.0,0.0,0.0,0.0,0.0,0.0,0.0,0.0,0.0,0.0,0.0,0.0,0.0,0.0,0.0,0.0,0.0,0.0,0.0,0.0,0.0,0.0,-3.9746,-4.2031,-4.2734,-4.4199,-4.5664,-4.6953,-4.7695,-4.8183,-4.8379,-4.9004,-4.9414,-4.9414,-5.0058,-5.0547,-5.0801,-5.0976,-5.1172,-5.1426,-5.1426,-5.123,-5.0801,-5.123,-5.123,-5.0801,-5.123,-5.1426,-5.1426,-5.1426,-5.1426,-5.1426,-5.1426,-5.1289,-5.1074,-5.1074,-5.0918,-5.0625,0.0,0.0,0.0,0.0,-4.8574,-4.8203,-4.8203,-4.7773,-4.7168,-4.6992,-4.6758,-4.6484,-4.6055,-4.6113,-4.625,-4.6016,-4.5937,-4.5898,-4.5723,-4.5488,-4.5293,-4.5293,-4.5156,-4.5078,-4.5254,-4.5156,-4.5156,-4.5586,-4.5312,0.0,-4.4707,-4.4433,-4.4199,-4.4023,-4.3984,-4.3926,-4.373,-4.3711,-4.3711,-4.3711,-4.3711,-4.3711,-4.3711,-4.3775,0.0,0.0,0.0,-3.8784,-3.8234,-3.8839,0.0,0.0,0.0,0.0,0.0,-3.7897,0.0,0.0,-2.9032,-2.5819,0.0,0.0,0.0,0.0,0.0,0.0,0.0,0.0,0.0,0.0,0.0,0.0,0.0,0.0,0.0,0.0,-4.3027,-4.5254,-4.6855,-4.6836,-4.707,-4.8144,-4.8672,-4.9101,-4.9492,-4.9961,-5.0254,-5.0254,-5.0644,-5.0879,-5.0879,-5.123,0.0,0.0,0.0,-5.125,-5.0879,-5.125,-5.125,-5.0879,-5.125,-5.1426,-5.1426,-5.1426,-5.1426,-5.1426,-5.1426,-5.1426,-5.1426,-5.1426,-5.1406,-5.125,-5.0117,-4.9648,-4.9551,-4.9101,-4.8691,-4.8359,-4.8301,0.0,0.0,-4.7207,-4.7051,-4.6933,-4.6562,-4.6406,-4.6367,-4.6367,-4.6328,-4.6211,-4.584,-4.5742,-4.5742,-4.5742,-4.5449,-4.5273,-4.5664,-4.5449,-4.5273,-4.5664,-4.543,-4.5176,-4.5176,-4.5098,-4.4883,-4.4453,-4.4433,-4.4316,-4.3906,-4.3808,-4.3769,-4.3643,-4.375,0.0,-4.3769,-4.3633,-4.2378,-3.9321,-3.7656,-3.831,-4.1393,-4.2844,-4.3718,-4.3711,-4.2466,-4.2625,-4.4318,-4.422,-4.5092,-4.6644,-3.6731,-3.2052,0.0,0.0,0.0,0.0,0.0,0.0,0.0,0.0,0.0,0.0,0.0,0.0,0.0,0.0,0.0,-4.2637,-4.498,-4.6797,-4.7812,-4.8496,-4.8867,-4.875,-4.9121,-4.9433,-4.9512,-5.0234,-5.0683,-5.0683,-5.1074,-5.1308,-5.1308,-5.1387,-5.1426,-5.1426,-5.1426,-5.1387,-5.1308,-5.1387,-5.1387,-5.1308,-5.1387,0.0,-5.1426,-5.1426,-5.1426,-5.1426,-5.1426,-5.1426,-5.1426,-5.1426,-5.123,-5.0898,-5.0644,-5.0351,-5.0,-4.9551,-4.9355,-4.9219,-4.8848,-4.8457,-4.8066,-4.7988,-4.7734,-4.7441,-4.7363,-4.709,0.0,-4.6816,-4.6562,-4.6289,-4.6191,-4.6191,-4.6191,-4.6191,-4.6113,-4.6074,-4.6172,-4.6113,-4.6074,-4.6172,-4.6113,-4.6055,-4.6055,-4.5488,-4.4883,-4.4453,-4.4687,-4.4863,-4.4785,-4.4058,-4.3716,-4.363,-4.369,-4.3643,-4.3768,-4.3771,-4.34,-4.2704,-4.2368,-4.2486,-4.3258,-4.3568,-4.3779,-4.3639,-4.4791,-4.62,-4.7834,-4.7938,-4.8831,-5.0297,-4.6801,-4.5151,0.0,0.0,0.0,0.0,0.0,0.0,0.0,0.0,0.0,0.0,0.0,-3.6152,-3.875,0.0,-4.291,-4.5254,-4.6719,-4.7793,-4.8437,-4.8906,-4.9199,-4.9199,-4.9766,-5.0176,-5.0176,-5.0742,-5.1113,-5.1113,-5.1308,-5.1426,-5.1426,-5.1426,-5.1426,-5.1426,-5.1426,-5.1426,-5.1426,-5.1426,-5.1426,-5.1426,-5.1426,-5.1426,-5.1426,-5.1426,-5.1426,-5.1426,-5.1426,-5.1426,-5.1426,-5.1426,-5.1308,-5.092,-4.9698,-4.953,-5.0156,-4.9941,-4.9844,-4.9824,-4.959,-4.9238,-4.8828,-4.8613,-4.8242,-4.7851,-4.7637,-4.7422,-4.7246,-4.7246,-4.6953,-4.6621,-4.6621,-4.6621,-4.6562,-4.6348,-4.6465,-4.6562,-4.6348,-4.6308,-4.6308,-4.6308,-4.6308,-4.623,-4.6016,-4.5801,-4.5527,-4.5098,-4.5215,-4.5273,-4.5058,-4.4616,-4.433,-4.4126,-4.4402,-4.4265,-4.3799,-4.3671,-4.3652,-4.366,-4.366,-4.406,-4.4945,-4.4922,-4.5336,-4.6228,-4.7111,-4.7998,-4.8931,-4.8842,-4.9815,-5.1317,-5.062,-5.0127,0.0,0.0,0.0,0.0,0.0,0.0,0.0,-3.3,-3.4551,-3.7226,-3.8652,-4.0195,-4.2715,-4.418,-4.5605,-4.7402,-4.8066,-4.8457,-4.8808,-4.8926,-4.9121,-4.9492,-5.0215,-5.0723,-5.0801,-5.1191,-5.1426,-5.1426,-5.1426,-5.1426,-5.1426,-5.1426,-5.1426,-5.1426,-5.1426,-5.1426,-5.1426,-5.1426,-5.1426,-5.1426,-5.1426,-5.1426,-5.1426,-5.1426,-5.1426,-5.1426,-5.0822,-5.0627,-5.0627,-5.0002,-4.9806,-4.961,-4.7383,-4.7791,-4.9608,-4.8938,-4.911,-4.9492,-4.9415,-4.9146,-4.88,-4.8935,-4.875,-4.8379,-4.7949,-4.7773,-4.7695,-4.7695,-4.7383,-4.7051,-4.7051,-4.7051,-4.6973,-4.6641,-4.6738,-4.6836,-4.6504,-4.6367,-4.6308,-4.6308,-4.6308,-4.6191,-4.5859,-4.6074,-4.6152,-4.5742,-4.5742,-4.5664,-4.5312,-4.5195,-4.5156,-4.5024,-4.5156,-4.5039,-4.4334,-4.4203,-4.4241,-4.4241,-4.4185,-4.4856,-4.615,-4.656,-4.7463,-4.8951,-4.8932,-4.8842,-4.8877,-4.9181,-4.999,-5.1342,-5.1483,-5.1329,-2.9526,-3.1348,-3.2373,-3.2338,-3.3292,-3.5258,0.0,-3.9669,-4.043,-4.3398,-4.4433,-4.5019,-4.5742,-4.6621,-4.7422,-4.8027,-4.8496,-4.8808,-4.8848,-4.9199,-4.9473,-4.9512,-4.9961,-5.0391,-5.0781,-5.1191,-5.1426,-5.1426,-5.1426,-5.1426,-5.1426,-5.1426,-5.1426,-5.1426,-5.1426,-5.1426,-5.1426,-5.1426,-5.1426,-5.1426,-5.1426,-5.1426,-5.1426,-5.1426,-5.1426,-5.1231,-4.8805,-4.778,-4.7582,-4.5134,-4.4127,-4.4127,-4.3925,-4.53,-4.7401,-4.4652,-4.5125,-4.7071,-4.6707,-4.6561,-4.6855,-4.88,-4.9414,-4.9297,-4.8848,-4.8437,-4.8144,-4.8144,-4.7832,-4.75,-4.75,-4.75,-4.75,-4.7441,-4.7187,-4.6914,-4.6875,-4.6562,-4.6308,-4.6308,-4.6308,-4.6289,-4.623,-4.6269,-4.6152,-4.5742,-4.5996,-4.6211,-4.6172,-4.584,-4.5742,-4.6113,-4.5699,-4.5517,-4.5956,-4.6062,-4.6048,-4.6048,-4.6056,-4.6053,-4.6307,-4.7777,-4.8646,-4.8875,-4.8857,-4.8833,-4.8992,-5.0469,-5.1263,-5.1342,-5.1483,-5.1445,-3.449,-3.5937,-3.6483,-3.7326,-3.9048,-4.0666,-4.2226,-4.2856,-4.3711,-4.5723,-4.6484,-4.6914,-4.7324,-4.791,-4.8379,-4.8555,-4.873,-4.8867,-4.8867,-4.8808,-4.875,-4.875,-4.8926,-4.9492,-5.0683,-5.0957,-5.1172,-5.1406,-5.1426,-5.1426,-5.1426,-5.1426,-5.1426,-5.1426,-5.1426,-5.1426,-5.1426,-5.1426,-5.1426,-5.1426,-5.1426,-5.1426,-5.1426,-4.9806,-4.9002,-4.9002,-4.7978,-4.7383,-4.7383,-4.6153,-4.5753,-4.5753,-4.5753,-4.7365,-4.9376,-4.6591,-4.7131,-4.9327,-4.9158,-4.8931,-4.8916,-4.9932,-5.0098,-4.9824,-4.9375,-4.9121,-4.8926,-4.8652,-4.8281,-4.7949,-4.7949,-4.7949,-4.7891,-4.7637,-4.7617,-4.7598,-4.7363,-4.6973,-4.666,-4.666,-4.6465,-4.6308,-4.6308,-4.6308,-4.625,-4.6074,-4.6191,-4.6308,-4.6308,-4.6152,-4.6113,-4.6289,-4.6016,-4.6091,-4.6327,-4.6308,-4.6738,-4.772,-4.782,-4.7878,-4.7875,-4.8503,-4.8828,-4.8974,-4.9914,-5.0365,-5.0297,-5.0993,-5.144,-5.1424,-5.1367,-5.1426,-3.7584,-3.8887,-3.9668,-4.1289,-4.332,-4.4902,-4.4805,-4.5351,-4.6172,-4.709,-4.7539,-4.7773,-4.7832,-4.8223,-4.8496,-4.8496,-4.8594,-4.8672,-4.8672,-4.8301,-4.7988,-4.7871,-4.7754,-4.8281,-4.9766,-5.0234,-5.0683,-5.1211,-5.125,-5.1308,-5.1426,-5.1426,-5.1426,-5.1426,-5.1426,-5.1426,-5.1426,-5.1426,-5.1426,-5.1426,-5.1426,-5.1426,-5.1426,-4.9395,-4.8589,-4.8392,-4.778,-4.7383,-4.7383,-4.6569,-4.6352,-4.6153,-4.5552,-4.6769,-4.8786,-4.6153,-4.7365,-5.0217,-5.0217,-5.0026,-4.9953,-5.0647,-5.0605,-5.0254,-4.9707,-4.9531,-4.9433,-4.8984,-4.8633,-4.8379,-4.8379,-4.8379,-4.8301,-4.8008,-4.8066,-4.8125,-4.7812,-4.7402,-4.7109,-4.7109,-4.6855,-4.666,-4.666,-4.666,-4.666,-4.666,-4.666,-4.6601,-4.6484,-4.6582,-4.666,-4.666,-4.6641,-4.6542,-4.6598,-4.6772,-4.764,-4.8912,-4.893,-4.8966,-4.8836,-4.8965,-4.9169,-4.9616,-5.0712,-5.1336,-5.1479,-5.1479,-5.1404,-5.1426,-5.1426,-5.1426,-3.6934,-3.8867,-4.1406,-4.2695,-4.4648,-4.6465,-4.7285,-4.7793,-4.8125,-4.8164,-4.8183,-4.7949,-4.7129,-4.7324,-4.7617,-4.7617,-4.7969,-4.8223,-4.8223,-4.7871,-4.7441,-4.7012,-4.6621,-4.6699,-4.7598,-4.8828,-4.9922,-5.0762,-5.082,-5.0996,-5.1406,-5.1426,-5.1426,-5.1426,-5.1426,-5.1426,-5.1426,-5.1426,-5.1426,-5.1426,-5.1426,-5.1426,-5.1426,-5.1231,-5.1231,-5.1231,-4.8589,-4.7383,-4.7167,-4.4531,-4.3521,-4.3115,-4.0492,-4.1092,-4.3318,-4.0477,-4.2929,-4.7582,-4.7582,-4.7564,-4.7905,-5.0127,-5.0801,-5.0625,-4.9785,-4.9531,-4.9433,-4.8984,-4.8848,-4.8848,-4.8848,-4.8848,-4.8828,-4.8828,-4.8496,-4.8203,-4.8183,-4.7851,-4.7558,-4.7558,-4.7558,-4.7539,-4.7539,-4.7539,-4.7539,-4.7539,-4.7539,-4.7383,-4.6973,-4.7285,-4.7539,-4.7539,-4.7301,-4.7082,-4.7102,-4.8169,-4.8887,-4.8926,-4.8984,-4.8962,-4.8982,-4.8896,-4.9586,-5.1282,-5.1322,-5.1479,-5.1426,-5.1426,-5.1426,-5.1426,-5.1426,-5.1426,-4.0293,-4.2285,-4.4101,-4.5664,-4.7031,-4.8066,-4.8359,-4.832,-4.8125,-4.7851,-4.7344,-4.6777,-4.6211,-4.6211,-4.6406,-4.668,-4.7324,-4.7793,-4.7793,-4.791,-4.7519,-4.625,-4.6465,-4.6621,-4.6348,-4.748,-4.8828,-5.0273,-5.0391,-5.0703,-5.1387,-5.1426,-5.1426,-5.1426,-5.1426,-5.1426,-5.1426,-5.1426,-5.1426,-5.1426,-5.1426,-5.0413,-4.8786,-4.8786,-4.778,-4.5953,-4.3115,-4.2115,-4.1911,-4.1092,-4.0698,-4.0682,-4.1706,-4.2506,-4.3115,-4.2302,-4.3115,-4.4732,-4.4732,-4.5953,-4.7564,-4.8226,-4.9812,-5.1113,-5.0547,-5.0176,-4.9863,-4.9433,-4.9082,-4.8867,-4.8867,-4.8867,-4.8867,-4.8867,-4.875,-4.8633,-4.8633,-4.8301,-4.7988,-4.7988,-4.7773,-4.7578,-4.7578,-4.7578,-4.7578,-4.7578,-4.7578,-4.7519,-4.7383,-4.75,-4.7578,-4.7578,-4.7558,-4.7476,-4.7729,-4.7885,-4.8235,-4.8819,-4.8885,-4.9402,-5.0476,-5.06,-5.0894,-5.1342,-5.1365,-5.1328,-5.1426,-5.1426,-5.1426,-5.1426,-5.1426,-5.1426,-4.293,-4.4609,-4.5898,-4.7617,-4.8574,-4.9004,-4.8691,-4.8301,-4.7695,-4.666,-4.5742,-4.4883,-4.4004,-4.3965,-4.4355,-4.5234,-4.623,-4.7051,-4.7519,-4.7812,-4.7578,-4.6484,-4.6699,-4.6836,-4.6601,-4.7324,-4.8398,-4.9844,-5.0234,-5.0703,-5.1387,-5.1426,-5.1426,-5.1426,-5.1426,-5.1426,-5.1426,-5.1426,-5.1426,-5.1426,-5.0413,-4.9002,-4.7383,-4.6352,-4.4933,-4.3115,-4.1502,-4.0682,-4.0682,-4.0682,-4.0682,-4.0887,-4.1502,-4.1911,-4.169,-4.0682,-4.0477,-4.0682,-4.2709,-4.5151,-4.7383,-4.7383,-4.9199,-5.1348,-5.0937,-5.0625,-5.0273,-4.9687,-4.9316,-4.9062,-4.8906,-4.8867,-4.8867,-4.8867,-4.8867,-4.8867,-4.8867,-4.8633,-4.8437,-4.8437,-4.8223,-4.8047,-4.8047,-4.8047,-4.8047,-4.8047,-4.8164,-4.8164,-4.7851,-4.793,-4.8047,-4.8047,-4.8183,-4.8379,-4.8449,-4.8303,-4.8389,-4.8949,-4.9428,-5.0346,-5.1388,-5.1342,-5.1326,-5.1326,-5.1328,-5.1426,-5.1426,-5.1426,-5.1426,-5.1426,-5.1426,-5.1426,-4.4707,-4.584,-4.6914,-4.8535,-4.9238,-4.9297,-4.8379,-4.7793,-4.6816,-4.4707,-4.3535,-4.2363,-4.0644,-4.0781,-4.168,-4.334,-4.4785,-4.6152,-4.7441,-4.7656,-4.7656,-4.7617,-4.7285,-4.7363,-4.8125,-4.8262,-4.8652,-4.9492,-5.0312,-5.0957,-5.1406,-5.1426,-5.1426,-5.1426,-5.1426,-5.1426,-5.1426,-5.1231,-5.1231,-5.1231,-4.8392,-4.7167,-4.7167,-4.4329,-4.3115,-4.3115,-4.2913,-4.2913,-4.2913,-4.2913,-4.2913,-4.2709,-4.008,-3.9063,-3.8871,-3.6216,-3.5191,-3.6019,-4.1092,-4.4732,-4.7167,-4.7167,-4.9199,-5.1367,-5.0957,-5.082,-5.0644,-4.9824,-4.957,-4.9433,-4.9004,-4.8887,-4.8887,-4.8887,-4.8906,-4.8926,-4.8926,-4.8906,-4.8887,-4.8887,-4.8867,-4.8867,-4.8867,-4.8867,-4.8887,-4.8887,-4.9277,-4.9238,-4.8359,-4.8633,-4.8926,-4.8887,-4.9297,-4.957,-4.957,-4.92,-4.8937,-4.8956,-5.0566,-5.1342,-5.1361,-5.1463,-5.1426,-5.1426,-5.1426,-5.1426,-5.1426,-5.1426,-5.1426,-5.1426,-5.1426,-5.1426,-4.6836,-4.8496,-4.9687,-4.9805,-4.9687,-4.9219,-4.8008,-4.6426,-4.4687,-4.2832,-4.125,-3.9668,-3.7969,-3.9316,-4.1035,-4.2109,-4.4453,-4.6582,-4.7871,-4.8613,-4.8789,-4.8125,-4.8535,-4.8691,-4.8242,-4.9101,-4.9766,-5.0,-5.0215,-5.0664,-5.1387,-5.1426,-5.1426,-5.1426,-5.1426,-5.1426,-5.1426,-4.9395,-4.8392,-4.8392,-4.5753,-4.4329,-4.4329,-4.1502,-4.0286,-4.0286,-3.8248,-3.7235,-3.7235,-3.7235,-3.7235,-3.7235,-3.6412,-3.6216,-3.6216,-3.5401,-3.5191,-3.5401,-3.6831,-4.0286,-4.4329,-4.4329,-4.7564,-5.1406,-5.1308,-5.1055,-5.0762,-5.0547,-5.0019,-4.9492,-4.9394,-4.9355,-4.9355,-4.9355,-4.9609,-4.9844,-4.9844,-4.959,-4.9355,-4.9355,-4.9082,-4.8867,-4.8867,-4.9141,-4.9355,-4.9355,-4.9726,-4.9687,-4.8808,-4.9375,-4.9707,-4.9394,-4.9746,-5.0019,-5.0019,-5.0117,-5.0064,-4.9857,-5.0762,-5.144,-5.1502,-5.1387,-5.1426,-5.1426,-5.1426,-5.1426,-5.1426,-5.1426,-5.1426,-5.1426,-5.1426,-5.1426,-4.8867,-5.0058,-5.0664,-5.0039,-4.9414,-4.8301,-4.5879,-4.4258,-4.2344,-3.9082,-3.7773,-3.6601,-3.4512,-3.6543,-3.8945,-4.0176,-4.3242,-4.6113,-4.7949,-4.8965,-4.9492,-4.9355,-4.9785,-4.9961,-4.9648,-5.0293,-5.0723,-5.0723,-5.0723,-5.0937,-5.1406,-5.1426,-5.1426,-5.1426,-5.1426,-5.0822,-4.961,-4.8176,-4.6769,-4.5552,-4.2913,-4.1502,-4.1502,-3.8663,-3.7444,-3.7444,-3.5809,-3.5191,-3.5191,-3.5191,-3.5191,-3.5191,-3.5191,-3.5191,-3.5191,-3.5191,-3.5191,-3.5191,-3.5191,-3.8054,-4.1502,-4.1502,-4.5151,-4.961,-4.961,-5.0259,-5.1035,-5.0859,-5.0449,-5.0039,-4.9863,-4.9805,-4.9805,-4.9805,-5.0,-5.0176,-5.0176,-4.998,-4.9766,-4.957,-4.9336,-4.916,-4.916,-4.9512,-4.9805,-4.9805,-5.0176,-5.0215,-4.9531,-4.9863,-5.0078,-4.9844,-5.0195,-5.0449,-5.0449,-5.0855,-5.084,-5.0803,-5.1094,-5.1443,-5.1426,-5.1426,-5.1426,-5.1426,-5.1426,-5.1426,-5.1426,-5.1426,-5.1426,-5.1426,-5.1426,-5.1426,-5.0547,-5.084,-5.0586,-4.9668,-4.8691,-4.6973,-4.3203,-4.1719,-3.9746,-3.4902,-3.4004,-3.3398,-3.1133,-3.3476,-3.6406,-3.834,-4.1797,-4.5195,-4.7988,-4.9043,-4.9863,-5.0781,-5.0898,-5.1035,-5.1406,-5.1426,-5.1426,-5.1426,-5.1484,-5.1484,-5.1445,-5.1426,-5.1231,-5.0822,-5.0822,-4.961,-4.6968,-4.6569,-4.5151,-4.2709,-4.008,-3.8663,-3.8663,-3.6216,-3.5191,-3.5204,-3.5231,-3.5231,-3.5204,-3.5244,-3.5231,-3.5191,-3.5191,-3.5191,-3.5191,-3.5191,-3.5191,-3.5191,-3.5191,-3.6831,-3.8871,-3.927,-4.2929,-4.7383,-4.7383,-4.9199,-5.1367,-5.0996,-5.0859,-5.0723,-5.0351,-5.0273,-5.0273,-5.0273,-5.0312,-5.0351,-5.0351,-5.0312,-5.0137,-4.9707,-4.9609,-4.9609,-4.9609,-4.998,-5.0273,-5.0273,-5.0625,-5.0762,-5.0391,-5.0351,-5.0312,-5.0273,-5.0644,-5.0898,-5.0898,-5.123,-5.1426,-5.1426,-5.1426,-5.1426,-5.1426,-5.1426,-5.1426,-5.1426,-5.1426,-5.1426,-5.1426,-5.1426,-5.1426,-5.1426,-5.1426,-5.1426,-5.1074,-5.1074,-5.0508,-4.9316,-4.7812,-4.5801,-4.2637,-3.9648,-3.6699,-3.3652,-3.1934,-3.0742,-2.9941,-3.2324,-3.543,-3.8574,-4.1465,-4.4707,-4.873,-4.9433,-4.998,-5.1172,-5.1328,-5.1348,-5.1426,-5.1426,-5.1426,-5.1426,-5.1758,-5.1816,-5.1445,-5.1426,-5.0413,-4.8194,-4.8176,-4.6769,-4.4127,-4.1911,-4.0492,-3.9874,-3.7235,-3.5809,-3.5809,-3.5401,-3.5191,-3.5204,-3.5444,-3.5418,-3.5217,-3.5458,-3.5418,-3.5191,-3.5191,-3.5191,-3.5191,-3.5191,-3.5191,-3.5191,-3.5191,-3.5612,-3.6216,-3.8663,-4.2929,-4.7383,-4.7383,-4.9199,-5.1406,-5.1348,-5.1074,-5.0781,-5.0723,-5.0703,-5.0703,-5.0703,-5.0957,-5.1211,-5.1211,-5.0937,-5.0566,-5.0156,-5.0058,-5.0058,-5.0058,-5.041,-5.0703,-5.0703,-5.1055,-5.1289,-5.123,-5.1211,-5.1074,-5.0723,-5.1074,-5.1328,-5.1328,-5.1387,-5.1426,-5.1426,-5.1426,-5.1426,-5.1426,-5.1426,-5.1426,-5.1426,-5.1426,-5.1426,-5.1426,-5.1426,-5.1426,-5.1426,-5.1426,-5.1426,-5.0804,-5.0957,-5.0176,-4.8867,-4.6894,-4.4199,-4.0078,-3.7148,-3.4258,-3.0547,-2.9473,-2.8867,-2.7773,-3.0586,-3.3769,-3.5859,-3.875,-4.2324,-4.6875,-4.7715,-4.8652,-5.084,-5.1308,-5.1426,-5.1426,-5.1426,-5.1523,-5.1758,-5.1973,-5.1992,-5.1777,-5.0326,-4.9102,-4.7672,-4.7491,-4.5352,-4.1297,-4.1297,-3.9874,-3.7235,-3.5809,-3.5271,-3.5418,-3.5418,-3.5511,-3.5658,-3.5805,-3.5778,-3.5658,-3.5805,-3.5778,-3.5631,-3.5485,-3.5511,-3.5618,-3.5311,-3.5284,-3.5404,-3.5244,-3.6216,-3.7652,-3.8871,-4.2115,-4.5352,-4.5352,-4.8176,-5.1426,-5.1426,-5.1289,-5.1133,-5.1133,-5.1133,-5.1133,-5.1133,-5.1289,-5.1426,-5.1426,-5.1094,-5.0742,-5.0547,-5.0508,-5.0508,-5.0508,-5.0859,-5.1133,-5.1133,-5.1308,-5.1426,-5.1426,-5.1426,-5.1348,-5.1152,-5.1308,-5.1426,-5.1426,-5.1426,-5.1426,-5.1426,-5.1426,-5.1426,-5.1426,-5.1426,-5.1426,-5.1426,-5.1406,-5.1406,-5.1426,-5.1406,-5.1406,-5.1445,-5.1406,-5.1484,-5.0359,-5.0683,-4.9824,-4.8301,-4.5996,-4.2773,-3.7793,-3.5039,-3.2305,-2.8027,-2.7461,-2.7422,-2.6348,-2.9004,-3.1855,-3.3437,-3.6289,-4.0,-4.4863,-4.6133,-4.7617,-5.0469,-5.1172,-5.1426,-5.1426,-5.1523,-5.1719,-5.2051,-5.2246,-5.2305,-5.2226,-5.0147,-4.869,-4.8087,-4.7708,-4.5271,-4.0394,-4.2351,-4.0887,-3.6006,-3.6691,-3.6647,-3.5631,-3.6312,-3.6475,-3.6072,-3.6139,-3.6126,-3.6072,-3.6139,-3.6126,-3.6046,-3.5819,-3.5872,-3.6019,-3.5551,-3.5525,-3.5698,-3.5458,-3.7223,-3.9464,-3.9404,-4.1565,-4.4127,-4.4127,-4.7564,-5.1426,-5.1426,-5.1426,-5.1426,-5.1426,-5.1426,-5.1426,-5.1426,-5.1426,-5.1426,-5.1426,-5.1172,-5.0937,-5.0937,-5.0937,-5.0937,-5.0937,-5.1211,-5.1426,-5.1426,-5.1426,-5.1426,-5.1426,-5.1426,-5.1426,-5.1426,-5.1426,-5.1426,-5.1426,-5.1426,-5.1465,-5.1562,-5.1543,-5.1367,-5.1426,-5.1445,-5.1445,-5.1445,-5.1482,-5.154,-5.1973,-5.154,-5.1482,-5.1445,-5.1305,-5.1676,-5.0156,-5.0234,-4.9668,-4.7578,-4.5098,-4.2051,-3.7676,-3.4121,-3.0957,-2.8184,-2.6738,-2.6289,-2.7305,-2.8125,-2.9941,-3.3945,-3.6172,-3.9219,-4.4355,-4.6465,-4.8301,-5.0547,-5.1172,-5.1426,-5.1426,-5.1797,-5.2031,-5.207,-5.2793,-5.3066,-5.2676,-5.2438,-5.1181,-4.8705,-4.8105,-4.6478,-4.3608,-4.3483,-4.1911,-3.8871,-4.1818,-4.0554,-3.5631,-3.8609,-3.8554,-3.6086,-3.6353,-3.6313,-3.6099,-3.6353,-3.6313,-3.6072,-3.6046,-3.6046,-3.6059,-3.6006,-3.6006,-3.6032,-3.6006,-3.787,-4.0092,-3.9808,-4.297,-4.6968,-4.6968,-4.9002,-5.1426,-5.1426,-5.1426,-5.1426,-5.1426,-5.1426,-5.1426,-5.1426,-5.1426,-5.1426,-5.1426,-5.1406,-5.1367,-5.1367,-5.1367,-5.1367,-5.1367,-5.1406,-5.1426,-5.1426,-5.1426,-5.1426,-5.1426,-5.1426,-5.1426,-5.1426,-5.1426,-5.1426,-5.1426,-5.1426,-5.1601,-5.1992,-5.1737,-5.1402,-5.1493,-5.1313,-5.1313,-5.1313,-5.1332,-5.2122,-5.3688,-5.2122,-5.1332,-5.1313,-5.1332,-5.2161,-4.8672,-4.9394,-4.8984,-4.7344,-4.4609,-4.125,-3.7207,-3.3613,-3.041,-2.7812,-2.6445,-2.5977,-2.6758,-2.7461,-2.8906,-3.1914,-3.3203,-3.5449,-4.0098,-4.2031,-4.4238,-4.7676,-4.916,-5.0391,-5.1699,-5.1973,-5.2305,-5.2812,-5.3418,-5.3691,-5.3516,-5.1771,-5.0161,-4.9103,-4.8723,-4.7067,-4.4383,-4.5464,-4.487,-4.2024,-4.1531,-4.0272,-3.8397,-3.8082,-3.7482,-3.6607,-3.6727,-3.6687,-3.6607,-3.6727,-3.6687,-3.658,-3.6393,-3.7495,-3.8882,-3.6829,-3.7234,-3.8826,-3.864,-4.0438,-4.3125,-4.464,-4.7428,-4.9931,-4.8051,-4.9199,-5.1426,-5.1426,-5.1426,-5.1426,-5.1426,-5.1426,-5.1426,-5.1426,-5.1426,-5.1426,-5.1426,-5.1426,-5.1426,-5.1426,-5.1426,-5.1426,-5.1426,-5.1426,-5.1426,-5.1426,-5.1426,-5.1426,-5.1426,-5.1426,-5.1426,-5.1426,-5.1426,-5.1426,-5.1426,-5.1426,-5.1621,-5.2051,-5.2345,-5.2305,-5.218,-5.2715,-5.2973,-5.2973,-5.2969,-5.3247,-5.4026,-5.3247,-5.2969,-5.2973,-5.2969,-5.3262,-4.6908,-4.8008,-4.7949,-4.6543,-4.3789,-4.0449,-3.668,-3.3164,-3.0019,-2.7695,-2.6523,-2.6094,-2.666,-2.7266,-2.8379,-3.0547,-3.1445,-3.3398,-3.7695,-3.9648,-4.2051,-4.5859,-4.7598,-4.9277,-5.1328,-5.209,-5.2773,-5.3496,-5.3848,-5.4023,-5.4023,-5.1817,-5.0791,-5.0791,-5.0401,-4.9089,-4.7091,-4.7737,-4.6662,-4.3698,-4.1864,-4.0438,-3.8796,-3.8146,-3.7606,-3.6941,-3.6941,-3.6941,-3.6941,-3.6941,-3.6941,-3.6901,-3.6727,-3.8468,-4.0734,-3.7537,-3.8782,-4.2111,-4.1028,-4.3041,-4.6354,-4.7998,-5.0321,-5.1928,-4.9404,-4.9806,-5.1426,-5.1426,-5.1426,-5.1426,-5.1426,-5.1426,-5.1426,-5.1426,-5.1426,-5.1426,-5.1426,-5.1426,-5.1426,-5.1426,-5.1426,-5.1426,-5.1426,-5.1426,-5.1426,-5.1426,-5.1426,-5.1426,-5.1426,-5.1426,-5.1426,-5.1426,-5.1426,-5.1426,-5.1426,-5.1543,-5.1816,-5.2246,-5.2896,-5.3172,-5.3086,-5.3644,-5.3923,-5.3923,-5.3959,-5.3998,-5.4082,-5.3894,-5.3933,-5.4018,-5.4051,-5.4345,-4.4707,-4.5996,-4.6543,-4.4844,-4.2461,-3.9629,-3.6191,-3.2695,-2.9726,-2.8008,-2.6973,-2.6641,-2.75,-2.7656,-2.8379,-3.0547,-3.1953,-3.4277,-3.8574,-4.1035,-4.3379,-4.5996,-4.707,-4.8281,-5.0019,-5.2109,-5.3535,-5.3984,-5.4023,-5.4023,-5.4023,-5.4023,-5.4023,-5.4023,-5.3594,-5.3144,-5.2715,-4.9603,-4.632,-4.3335,-4.4045,-4.1494,-3.6302,-3.9647,-3.9703,-3.6941,-3.6941,-3.6941,-3.6941,-3.6941,-3.6941,-3.6941,-3.6941,-3.865,-4.0779,-3.8004,-4.0561,-4.5039,-4.2265,-4.5039,-4.9584,-4.8808,-5.0696,-5.3105,-5.1816,-5.1426,-5.1426,-5.1426,-5.1426,-5.1426,-5.1426,-5.1426,-5.1426,-5.1426,-5.1426,-5.1426,-5.1426,-5.1426,-5.1426,-5.1426,-5.1426,-5.1426,-5.1426,-5.1426,-5.1426,-5.1426,-5.1426,-5.1426,-5.1426,-5.1426,-5.1426,-5.1426,-5.1426,-5.1426,-5.1426,-5.1836,-5.2246,-5.2676,-5.3086,-5.3516,-5.3984,-5.4023,-5.4023,-5.4023,-5.4023,-5.3975,-5.408,-5.408,-5.4047,-5.3919,-5.3919,-5.4986,-4.043,-4.1348,-4.1699,-3.998,-3.8496,-3.6699,-3.3848,-3.1894,-3.0098,-2.8086,-2.7207,-2.6992,-2.7559,-2.7676,-2.8848,-3.248,-3.3398,-3.4961,-3.8672,-4.1328,-4.3516,-4.5234,-4.8769,-5.1426,-5.2266,-5.3242,-5.3887,-5.4023,-5.4023,-5.4023,-5.4023,-5.4023,-5.4023,-5.4023,-5.3887,-5.375,-5.3613,-5.0438,-4.8273,-4.7126,-4.3608,-4.0784,-3.9127,-3.8468,-3.7798,-3.6941,-3.6941,-3.8018,-3.9718,-3.7784,-3.928,-4.2497,-4.0576,-4.2697,-4.6542,-4.1632,-4.2281,-4.5464,-4.4414,-4.5252,-4.7563,-5.1145,-5.285,-5.3223,-5.2519,-5.2109,-5.1816,-5.1523,-5.1426,-5.1426,-5.1426,-5.1426,-5.1426,-5.1426,-5.1426,-5.1426,-5.1426,-5.1426,-5.1426,-5.1426,-5.1426,-5.1426,-5.1426,-5.1426,-5.1426,-5.1426,-5.1426,-5.1426,-5.1426,-5.1426,-5.1543,-5.1836,-5.1875,-5.1875,-5.1875,-5.2012,-5.2383,-5.3105,-5.3281,-5.3555,-5.4004,-5.4023,-5.4023,-5.4023,-5.4023,-5.3975,-5.4099,-5.5218,-5.5741,-5.5848,-5.5855,-5.6031,-3.6641,-3.7754,-3.8125,-3.6894,-3.5801,-3.4492,-3.2402,-3.0879,-2.9492,-2.7969,-2.7324,-2.7148,-2.7578,-2.7793,-2.8984,-3.2324,-3.3144,-3.4668,-3.8437,-4.1055,-4.3496,-4.5937,-4.9629,-5.2168,-5.2598,-5.3476,-5.4023,-5.4023,-5.4023,-5.4023,-5.4023,-5.4023,-5.4023,-5.4023,-5.4023,-5.3945,-5.3789,-4.969,-4.7374,-4.7234,-4.1713,-3.9041,-3.9055,-3.7455,-3.6941,-3.6941,-3.6941,-3.8636,0.0,-3.9294,-4.1213,-4.5252,-4.3557,-4.5039,-4.7598,-4.2912,-4.2912,-4.5252,-4.42,-4.4612,-4.6297,-5.0638,-5.2512,-5.2851,-5.2734,-5.2305,-5.1777,-5.1504,-5.1426,-5.1426,-5.1426,-5.1426,-5.1426,-5.1426,-5.1426,-5.1426,-5.1426,-5.1426,-5.1426,-5.1426,-5.1426,-5.1426,-5.1426,-5.1426,-5.1426,-5.1426,-5.1582,-5.168,-5.168,-5.1816,-5.2012,-5.2285,-5.2324,-5.2383,-5.2558,-5.2558,-5.2793,-5.332,-5.3516,-5.373,-5.4023,-5.4023,-5.4023,-5.4023,-5.3936,-5.3963,-5.4066,-5.5789,-5.6642,-5.663,-5.6615,-5.6501,0.0,-3.4824,-3.5391,-3.4922,-3.3926,-3.2734,-3.1484,-2.9687,0.0,-2.7715,-2.7324,-2.7226,-2.7793,-2.8164,-2.9023,-3.1016,-3.2031,-3.4043,-3.8262,-4.084,-4.3848,-4.8027,-4.998,-5.1152,-5.1582,-5.3086,-5.4023,-5.4023,-5.4023,-5.4023,-5.4023,-5.4023,-5.4023,-5.4023,-5.4023,-5.3828,-5.3418,-4.8118,-4.5223,-4.4682,-3.9357,-3.6732,-3.6759,-3.7014,-3.7162,-3.7162,-3.7383,-3.9089,-4.1848,-4.1647,-4.3127,-4.5677,-4.5677,-4.5464,-4.5039,-4.2281,-4.2912,-4.4842,-4.2281,-4.3342,-4.5839,-4.8657,-5.0729,-5.2207,-5.2598,-5.2109,-5.1426,-5.1426,-5.1426,-5.1426,-5.1426,-5.1426,-5.1426,-5.1426,-5.1426,-5.1426,-5.1426,-5.1426,-5.1426,-5.1426,-5.1426,-5.1426,-5.1426,-5.1465,-5.1484,-5.1484,-5.1855,-5.2129,-5.2129,-5.2461,-5.2715,-5.2754,-5.2754,-5.293,-5.3359,-5.3379,-5.3379,-5.3398,-5.3808,-5.4043,-5.4082,-5.4062,-5.4082,-5.4101,-5.4022,-5.4143,-5.4224,-5.5882,-5.6582,-5.6582,-5.6582,-5.6582,-2.8476,0.0,-3.0332,-2.9258,-2.9238,-2.9258,0.0,-2.8184,-2.8086,-2.7324,-2.7344,-2.8047,-2.9805,-2.9668,-3.0703,-3.5078,-3.623,-3.7734,-4.1055,-4.4805,-4.8301,-5.1289,-5.2305,-5.293,-5.3379,-5.3789,-5.4023,-5.4023,-5.4023,-5.4023,-5.4023,-5.4023,-5.4023,-5.4023,-5.4023,-5.3984,-5.3867,-5.045,-4.868,-4.8383,-4.2756,-4.0038,-4.0038,-4.0111,-4.014,-4.0358,-4.2497,-4.5039,-4.7598,-4.5464,-4.6102,-4.8438,-4.6313,-4.5464,-4.5039,-4.2281,-4.1632,-4.2497,-4.3986,-4.4825,-4.6313,-5.1332,-5.2637,-5.2578,-5.2676,-5.2109,-5.1426,-5.1426,-5.1426,-5.1426,-5.1426,-5.1426,-5.1426,-5.1426,-5.1426,-5.1426,-5.1426,-5.1426,-5.1426,-5.1426,-5.1426,-5.1426,-5.1426,-5.1719,-5.1933,-5.1933,-5.2285,-5.2558,-5.2558,-5.2637,-5.2832,-5.3164,-5.3203,-5.3379,-5.3828,-5.3555,-5.3496,-5.3848,-5.3965,-5.4199,-5.4757,-5.4247,-5.4099,-5.3916,-5.541,-5.5972,-5.6051,-5.6348,-5.6582,-5.6582,-5.6582,-5.6582,-2.6367,-2.793,-2.9336,-2.8652,-2.8828,-2.9043,-2.8594,-2.793,-2.7285,-2.6816,-2.707,-2.7851,-2.9414,-2.9279,-3.0577,-3.5354,-3.6398,-3.8576,-4.3721,-4.7363,-5.0273,-5.2441,-5.3086,-5.3535,-5.3984,-5.4023,-5.4023,-5.4023,-5.4023,-5.4023,-5.4023,-5.4023,-5.4023,-5.4023,-5.4023,-5.4023,-5.4023,-5.1237,-4.9728,-4.971,-4.5252,-4.3127,-4.3127,-4.3127,-4.3127,-4.3342,-4.4842,-4.7176,-4.9728,-4.8018,-4.9084,-5.1444,-4.8665,-4.6754,-4.5039,-4.2281,-4.0358,-3.9718,-4.2497,-4.5252,-4.8018,-5.1011,-5.2348,-5.2715,-5.2715,-5.2109,-5.1426,-5.1426,-5.1426,-5.1426,-5.1426,-5.1426,-5.1426,-5.1426,-5.1426,-5.1426,-5.1426,-5.1426,-5.1426,-5.1426,-5.1426,-5.1504,-5.1699,-5.1933,-5.2148,-5.2344,-5.2734,-5.3008,-5.3008,-5.3183,-5.3398,-5.3652,-5.3672,-5.3769,-5.4004,-5.3808,-5.3769,-5.4023,-5.4023,-5.4238,-5.4687,-5.4668,-5.4714,-5.5278,-5.6109,-5.6615,-5.6541,-5.6504,-5.6582,-5.6582,-5.6524,-5.6504,-2.6211,-2.8242,-3.0045,-2.977,-2.9961,-3.0156,-2.998,-2.8242,-2.6699,-2.6758,-2.7109,-2.7812,-2.9141,-2.9412,-3.0827,-3.5103,-3.645,-3.9337,-4.6326,-4.9121,-5.0976,-5.2617,-5.3203,-5.3613,-5.3984,-5.4023,-5.4023,-5.4023,-5.4023,-5.4023,-5.4023,-5.4023,-5.4023,-5.4023,-5.4023,-5.4023,-5.4023,-5.1669,-5.037,-5.0352,-4.7598,-4.6102,-4.6102,-4.6102,-4.6102,-4.6102,-4.6542,-4.8228,-5.0352,-5.0352,-5.1218,-5.2531,-5.0163,-4.7176,-4.3986,-4.1848,-3.9718,-3.8018,-4.143,-4.5889,-5.037,-5.0352,-5.1497,-5.2715,-5.2715,-5.2109,-5.1426,-5.1426,-5.1426,-5.1426,-5.1426,-5.1426,-5.1426,-5.1426,-5.1426,-5.1426,-5.1426,-5.1426,-5.1426,-5.1426,-5.1484,-5.1641,-5.2012,-5.2187,-5.2402,-5.2754,-5.3183,-5.3457,-5.3457,-5.3789,-5.4023,-5.4023,-5.4023,-5.4023,-5.4023,-5.4023,-5.4023,-5.4023,-5.4101,-5.4336,-5.4824,-5.5208,-5.5868,-5.6596,-5.6615,-5.6521,-5.6582,-5.6582,-5.6582,-5.6601,-5.6699,-5.6738,-2.8398,-2.9568,-2.965,-2.7968,-2.8867,-2.9922,-2.8848,-2.8281,-2.8105,-2.8457,-2.8867,-3.0234,-3.3672,-3.4309,-3.5664,-4.0059,-4.2547,-4.5415,-4.9199,-5.0586,-5.1738,-5.3105,-5.3652,-5.3945,-5.4023,-5.4023,-5.4023,-5.4023,-5.4023,-5.4023,-5.4023,-5.4023,-5.4023,-5.4023,-5.4023,-5.4023,-5.4023,-5.3595,-5.339,-5.3371,-5.037,-4.9084,-4.9102,-4.9102,-4.9084,-4.9293,-5.1669,-5.2961,-5.3371,-5.3371,-5.0804,-4.6754,-4.633,-4.2912,-3.8445,-4.0358,-4.0996,-4.1213,-4.6525,-5.0578,-5.339,-5.3371,-5.3014,-5.2715,-5.2715,-5.2109,-5.1426,-5.1426,-5.1426,-5.1426,-5.1426,-5.1426,-5.1426,-5.1426,-5.1426,-5.1426,-5.1426,-5.1426,-5.1426,-5.1426,-5.1719,-5.2012,-5.207,-5.2695,-5.3183,-5.3242,-5.3633,-5.3926,-5.3926,-5.3984,-5.4023,-5.4023,-5.4023,-5.4023,-5.4023,-5.4023,-5.4023,-5.4023,-5.4375,-5.4675,-5.5165,-5.6074,-5.6387,-5.6504,-5.6504,-5.6543,-5.6582,-5.6582,-5.6582,-5.6601,-5.6699,-5.7443,-2.7461,-2.9203,-2.9999,-2.8118,-2.9115,-3.0145,-2.9217,-2.8218,-2.792,-2.9324,-2.9934,-3.0951,-3.3452,-3.3783,-3.5255,-3.9706,-4.4366,-4.8125,-5.0215,-5.125,-5.2168,-5.3242,-5.375,-5.4023,-5.4023,-5.4023,-5.4023,-5.4023,-5.4023,-5.4023,-5.4023,-5.4023,-5.4023,-5.4023,-5.4023,-5.4023,-5.4023,-5.4023,-5.4023,-5.4023,-5.2737,-5.2081,-5.2081,-5.2081,-5.2081,-5.2081,-5.339,-5.4023,-5.4023,-5.4023,-5.1669,-4.7598,-4.6118,-4.2912,-3.9266,-4.0793,-4.3127,-4.6313,-4.8857,-5.165,-5.4023,-5.4023,-5.3437,-5.2715,-5.2715,-5.2109,-5.1484,-5.1719,-5.1621,-5.1426,-5.1426,-5.1426,-5.1426,-5.1426,-5.1426,-5.1426,-5.1426,-5.1621,-5.1777,-5.1777,-5.2129,-5.25,-5.2734,-5.3105,-5.3437,-5.3691,-5.3887,-5.4023,-5.4023,-5.4023,-5.4023,-5.4023,-5.4023,-5.4023,-5.4023,-5.4238,-5.4375,-5.4375,-5.4785,-5.5045,-5.534,-5.6096,-5.6582,-5.6582,-5.6582,-5.6582,-5.6582,-5.6582,-5.6582,-5.6601,-5.6658,-5.7461,-2.7168,-2.8925,-3.0137,-2.9404,-3.0407,-3.1296,-3.0876,-2.9843,-2.9463,-3.1226,-3.2187,-3.3001,-3.3732,-3.4863,-3.6936,-4.0832,-4.5982,-4.9883,-5.1074,-5.1816,-5.2539,-5.3418,-5.3808,-5.4023,-5.4023,-5.4023,-5.4023,-5.4023,-5.4023,-5.4023,-5.4023,-5.4023,-5.4023,-5.4023,-5.4023,-5.4023,-5.4023,-5.4023,-5.4023,-5.4023,-5.4023,-5.4023,-5.4023,-5.4023,-5.4023,-5.4023,-5.4023,-5.4023,-5.4023,-5.4023,-5.1819,-4.8524,-4.7039,-4.4875,-4.2893,-4.2986,-4.6196,-5.0657,-5.0638,-5.2006,-5.4004,-5.3906,-5.334,-5.2695,-5.2598,-5.2031,-5.1504,-5.1836,-5.1699,-5.1465,-5.1562,-5.1582,-5.1562,-5.1465,-5.1504,-5.1562,-5.1445,-5.1699,-5.1953,-5.207,-5.2422,-5.2851,-5.3281,-5.3457,-5.3633,-5.3984,-5.4023,-5.4023,-5.4023,-5.4121,-5.4141,-5.4043,-5.4219,-5.4336,-5.4336,-5.4629,-5.4863,-5.4961,-5.5273,-5.5395,-5.5533,-5.6154,-5.6582,-5.6582,-5.6582,-5.6582,-5.6582,-5.6582,-5.6582,-5.6601,-5.6519,-5.7558,-2.9805,-2.9684,-2.933,-3.1434,-3.2914,-3.3842,-3.3696,-3.4603,-3.5357,-3.5539,-3.7241,-3.8422,-3.7647,-4.2012,-4.6188,-4.7308,-4.9655,-5.1562,-5.2441,-5.2617,-5.2988,-5.3867,-5.4004,-5.4023,-5.4023,-5.4023,-5.4023,-5.4023,-5.4023,-5.4023,-5.4023,-5.4023,-5.4023,-5.4023,-5.4023,-5.4023,-5.4023,-5.4023,-5.4023,-5.4023,-5.4023,-5.4023,-5.4023,-5.4023,-5.4023,-5.4023,-5.4023,-5.4023,-5.4023,-5.4023,-5.0583,-4.5599,-4.7911,-4.8542,-4.8051,-4.8407,-5.0438,-5.3196,-5.3196,-5.3469,-5.3965,-5.3535,-5.3086,-5.2637,-5.2246,-5.1797,-5.1445,-5.1465,-5.1465,-5.1523,-5.1933,-5.2031,-5.1933,-5.1523,-5.1738,-5.1914,-5.1523,-5.1465,-5.1601,-5.2012,-5.2422,-5.2851,-5.3281,-5.3711,-5.3984,-5.4023,-5.4023,-5.4023,-5.4023,-5.4394,-5.4473,-5.4082,-5.4746,-5.5215,-5.5215,-5.5254,-5.543,-5.582,-5.5629,-5.5843,-5.6504,-5.6562,-5.6582,-5.6582,-5.6582,-5.6582,-5.6582,-5.6582,-5.6582,-5.6601,-5.6503,-5.748,-2.8027,-2.867,-2.9357,-3.0963,-3.3218,-3.4504,-3.222,-3.2791,-3.4519,-3.7099,-3.6825,-3.65,-3.7518,-4.1745,-4.5255,-4.5833,-4.8822,-5.1348,-5.2207,-5.2539,-5.293,-5.3535,-5.3867,-5.4023,-5.4023,-5.4023,-5.4023,-5.4023,-5.4023,-5.4023,-5.4023,-5.4023,-5.4023,-5.4023,-5.4023,-5.4023,-5.4023,-5.4023,-5.4023,-5.4023,-5.4023,-5.4023,-5.4023,-5.4023,-5.4023,-5.4023,-5.4023,-5.4023,-5.4004,-5.373,-5.012,-4.4903,-4.385,-4.5562,-4.8574,-4.8718,-5.0456,-5.2949,-5.2949,-5.3242,-5.3574,-5.3418,-5.3066,-5.2676,-5.2519,-5.1992,-5.1484,-5.1758,-5.1641,-5.1465,-5.1641,-5.168,-5.1641,-5.1465,-5.1562,-5.1641,-5.1465,-5.1641,-5.1953,-5.2383,-5.2812,-5.3262,-5.3691,-5.3926,-5.4023,-5.4023,-5.4023,-5.4023,-5.4023,-5.4414,-5.4609,-5.4453,-5.4726,-5.5019,-5.5293,-5.5312,-5.5605,-5.6289,-5.6074,-5.6113,-5.6562,-5.6582,-5.6582,-5.6582,-5.6582,-5.6582,-5.6582,-5.6582,-5.6582,-5.6601,-5.6699,-5.689,-2.6842,-2.8282,-2.9872,-3.1283,-3.3696,-3.5295,-3.4145,-3.5161,-3.6622,-3.7831,-3.6837,-3.6939,-4.007,-4.309,-4.5333,-4.602,-4.8786,-5.125,-5.1992,-5.2324,-5.2676,-5.3105,-5.3418,-5.3672,-5.3808,-5.3808,-5.3887,-5.4023,-5.4023,-5.4023,-5.4023,-5.4023,-5.4023,-5.4023,-5.4023,-5.4023,-5.4023,-5.4023,-5.4023,-5.4023,-5.4023,-5.4023,-5.4023,-5.4023,-5.4023,-5.4023,-5.4023,-5.3945,-5.3789,-5.3496,-5.0883,-4.6854,-4.3894,-4.5396,-4.944,-4.9569,-5.0848,-5.2519,-5.2519,-5.2891,-5.334,-5.3203,-5.3047,-5.2871,-5.2598,-5.2109,-5.166,-5.1836,-5.166,-5.1426,-5.1426,-5.1523,-5.1601,-5.1465,-5.1641,-5.1797,-5.166,-5.1973,-5.2402,-5.2832,-5.3144,-5.3496,-5.3945,-5.4023,-5.4023,-5.4023,-5.4023,-5.4023,-5.4023,-5.4414,-5.4726,-5.4863,-5.5,-5.5195,-5.5488,-5.5625,-5.5957,-5.6543,-5.6308,-5.6269,-5.6582,-5.6582,-5.6582,-5.6582,-5.6582,-5.6582,-5.6582,-5.6582,-5.6582,-5.6601,-5.6699,-5.6576,-2.714,-2.8782,-3.0882,-3.3121,-3.4515,-3.6461,-4.0332,-4.278,-4.2939,-3.8156,-3.8228,-4.0763,-4.658,-4.7598,-4.8027,-4.9316,-5.0605,-5.1582,-5.2012,-5.209,-5.2246,-5.2656,-5.2715,-5.2871,-5.332,-5.3359,-5.3535,-5.3984,-5.4023,-5.4023,-5.4023,-5.4023,-5.4023,-5.4023,-5.4023,-5.4023,-5.4023,-5.4023,-5.4023,-5.4023,-5.4023,-5.4023,-5.4023,-5.4023,-5.4023,-5.4023,-5.4023,-5.3769,-5.3359,-5.3359,-5.2851,-5.1873,-4.8981,-4.9337,-5.1484,-5.1914,-5.207,-5.207,-5.207,-5.2637,-5.3281,-5.2851,-5.2988,-5.3183,-5.2344,-5.209,-5.1992,-5.1562,-5.1426,-5.1426,-5.1426,-5.1758,-5.1973,-5.1543,-5.209,-5.2598,-5.2187,-5.2422,-5.2832,-5.3281,-5.3359,-5.3496,-5.3945,-5.4023,-5.4023,-5.4023,-5.4023,-5.4023,-5.4043,-5.4414,-5.4844,-5.5254,-5.5683,-5.5918,-5.5918,-5.6328,-5.6582,-5.6582,-5.6582,-5.6582,-5.6582,-5.6582,-5.6582,-5.6582,-5.6582,-5.6582,-5.6582,-5.6582,-5.6582,-5.6601,-5.6699,-5.6596,-2.8161,-2.9842,-3.2462,-3.5482,-3.8217,-4.0008,-3.9796,-4.0453,-4.1152,-4.1097,-4.4184,-4.6728,-4.5871,-4.7564,-4.9082,-4.9473,-5.0351,-5.1133,-5.1562,-5.1894,-5.2129,-5.2246,-5.2519,-5.2754,-5.2891,-5.291,-5.2969,-5.3086,-5.3379,-5.3555,-5.3555,-5.3867,-5.4023,-5.4023,-5.4023,-5.4023,-5.4023,-5.3711,-5.3711,-5.4023,-5.3711,-5.373,-5.4023,-5.4023,-5.4023,-5.4023,-5.4023,-5.3769,-5.3099,-5.0616,-5.0469,-5.1426,-4.8576,-4.9095,-5.1445,-5.1582,-5.1621,-5.1621,-5.1621,-5.1992,-5.2441,-5.2305,-5.2363,-5.2422,-5.2168,-5.1875,-5.1601,-5.1465,-5.1426,-5.1426,-5.1426,-5.1523,-5.166,-5.1855,-5.2305,-5.2676,-5.2558,-5.2617,-5.2832,-5.3281,-5.3359,-5.3496,-5.3945,-5.4023,-5.4023,-5.4023,-5.4023,-5.4141,-5.4453,-5.459,-5.4726,-5.4863,-5.5254,-5.5488,-5.5488,-5.5879,-5.625,-5.6562,-5.6582,-5.6582,-5.6582,-5.6582,-5.6582,-5.6582,-5.6582,-5.6582,-5.6582,-5.6582,-5.6582,-5.6601,-5.6699,-5.7185,-2.8009,-3.029,-3.3613,-3.6696,-3.9685,-4.196,-4.2158,-4.0607,-4.0724,-4.534,-4.7453,-4.8139,-4.7702,-4.8707,-4.9687,-5.0195,-5.0723,-5.1133,-5.1406,-5.166,-5.1816,-5.1816,-5.2051,-5.2266,-5.2441,-5.2461,-5.2519,-5.2695,-5.2949,-5.3105,-5.3105,-5.3359,-5.3516,-5.3516,-5.3516,-5.3516,-5.3516,-5.3242,-5.3242,-5.3496,-5.3223,-5.334,-5.3769,-5.3945,-5.4023,-5.4004,-5.3652,-5.3262,-5.2793,-5.0252,-5.0231,-5.1231,-4.961,-5.0021,-5.1426,-5.1426,-5.1426,-5.1426,-5.1426,-5.1719,-5.209,-5.209,-5.2187,-5.2305,-5.2129,-5.1894,-5.166,-5.1484,-5.1426,-5.1426,-5.1426,-5.168,-5.1973,-5.2051,-5.2402,-5.2754,-5.293,-5.3105,-5.332,-5.3574,-5.3633,-5.3711,-5.3984,-5.4023,-5.4023,-5.4023,-5.4023,-5.4121,-5.4394,-5.457,-5.4609,-5.4433,-5.5098,-5.5488,-5.5312,-5.5859,-5.6308,-5.6562,-5.6582,-5.6582,-5.6582,-5.6582,-5.6582,-5.6582,-5.6582,-5.6582,-5.6582,-5.6582,-5.6582,-5.6601,-5.6699,-5.7461,-2.7417,-3.0688,-3.4492,-3.7725,-4.0386,-4.3018,-4.6561,-4.3223,-4.1915,-4.9731,-4.8512,-4.7103,-5.0804,-5.0488,-5.0078,-5.125,-5.1426,-5.1426,-5.1426,-5.1426,-5.1426,-5.1426,-5.1426,-5.1582,-5.1973,-5.2031,-5.2187,-5.2558,-5.2637,-5.2656,-5.2656,-5.2695,-5.2715,-5.2715,-5.2715,-5.2715,-5.2715,-5.2676,-5.2676,-5.2715,-5.2676,-5.2891,-5.332,-5.3769,-5.3965,-5.3926,-5.3027,-5.2441,-5.2051,-5.1601,-5.1426,-5.1426,-5.1426,-5.1426,-5.1426,-5.1426,-5.1426,-5.1426,-5.1426,-5.1699,-5.2031,-5.2031,-5.2285,-5.2519,-5.2129,-5.2031,-5.1933,-5.1543,-5.1426,-5.1445,-5.1484,-5.207,-5.2578,-5.2266,-5.2519,-5.293,-5.334,-5.373,-5.4023,-5.4023,-5.4023,-5.4023,-5.4023,-5.4023,-5.4023,-5.4023,-5.4023,-5.4023,-5.4023,-5.4375,-5.4473,-5.4082,-5.5137,-5.5723,-5.5332,-5.6094,-5.6582,-5.6582,-5.6582,-5.6582,-5.6582,-5.6582,-5.6582,-5.6582,-5.6582,-5.6582,-5.6582,-5.6582,-5.6582,-5.6601,-5.6522,-5.748,-3.1156,-3.2342,-3.4601,-4.0971,-4.3788,-4.6034,-4.9565,-4.785,-4.6662,-5.0608,-5.0804,-5.03,-5.1173,-5.1211,-5.1113,-5.1387,-5.1426,-5.1426,-5.1426,-5.1426,-5.1426,-5.1426,-5.1426,-5.1465,-5.1562,-5.1582,-5.1601,-5.1699,-5.2031,-5.2226,-5.2226,-5.2539,-5.2715,-5.2715,-5.2715,-5.2715,-5.2715,-5.2383,-5.2383,-5.2695,-5.2383,-5.2441,-5.2871,-5.3301,-5.3496,-5.3457,-5.2598,-5.2168,-5.2051,-5.1601,-5.1426,-5.1426,-5.1426,-5.1426,-5.1426,-5.1426,-5.1426,-5.1426,-5.1426,-5.1484,-5.1582,-5.1582,-5.1641,-5.168,-5.1601,-5.1582,-5.1543,-5.1465,-5.1426,-5.1504,-5.1855,-5.209,-5.2363,-5.2949,-5.3418,-5.3769,-5.3867,-5.3965,-5.4023,-5.4023,-5.4023,-5.4023,-5.4023,-5.4023,-5.4023,-5.4023,-5.4023,-5.4023,-5.4023,-5.4121,-5.4141,-5.4043,-5.4883,-5.541,-5.5312,-5.6094,-5.6582,-5.6582,-5.6582,-5.6582,-5.6582,-5.6582,-5.6582,-5.6582,-5.6582,-5.6582,-5.6582,-5.6582,-5.6582,-5.6601,-5.6519,-5.6847,-3.131,-3.2748,-3.5321,-4.2469,-4.6126,-4.8554,-5.0591,-5.0279,-4.9806,-5.1037,-5.1426,-5.1426,-5.1426,-5.1426,-5.1426,-5.1426,-5.1426,-5.1426,-5.1426,-5.1426,-5.1426,-5.1426,-5.1426,-5.1426,-5.1426,-5.1426,-5.1426,-5.1426,-5.1641,-5.1777,-5.1777,-5.1973,-5.209,-5.209,-5.209,-5.209,-5.209,-5.1875,-5.1875,-5.209,-5.1875,-5.1992,-5.2422,-5.2851,-5.293,-5.2715,-5.2285,-5.1973,-5.1758,-5.1523,-5.1426,-5.1426,-5.1426,-5.1426,-5.1426,-5.1426,-5.1426,-5.1426,-5.1426,-5.1426,-5.1426,-5.1426,-5.1426,-5.1426,-5.1426,-5.1426,-5.1426,-5.1426,-5.1426,-5.1484,-5.1719,-5.1933,-5.2187,-5.2637,-5.3242,-5.3769,-5.3984,-5.4023,-5.4023,-5.4023,-5.4023,-5.4023,-5.4023,-5.4023,-5.4023,-5.4023,-5.4023,-5.4023,-5.4023,-5.4023,-5.4023,-5.4023,-5.4609,-5.5098,-5.5293,-5.5898,-5.6367,-5.6582,-5.6582,-5.6582,-5.6582,-5.6582,-5.6582,-5.6582,-5.6582,-5.6582,-5.6582,-5.6582,-5.6582,-5.6601,-5.6658,-5.7065,-3.0136,-3.3129,-3.7101,-4.3035,-4.729,-5.0078,-5.0586,-5.0957,-5.1211,-5.1211,-5.1328,-5.1426,-5.1426,-5.1426,-5.1426,-5.1426,-5.1426,-5.1426,-5.1426,-5.1426,-5.1426,-5.1426,-5.1426,-5.1426,-5.1426,-5.1426,-5.1426,-5.1426,-5.1426,-5.1426,-5.1426,-5.1426,-5.1426,-5.1426,-5.1426,-5.1426,-5.1426,-5.1426,-5.1426,-5.1426,-5.1426,-5.1621,-5.1973,-5.2324,-5.2344,-5.207,-5.2012,-5.1758,-5.1426,-5.1426,-5.1426,-5.1426,-5.1426,-5.1426,-5.1426,-5.1426,-5.1426,-5.1426,-5.1426,-5.1426,-5.1426,-5.1426,-5.1426,-5.1426,-5.1426,-5.1426,-5.1426,-5.1426,-5.1426,-5.1445,-5.1523,-5.1816,-5.2109,-5.2266,-5.2793,-5.3379,-5.3808,-5.3965,-5.4023,-5.4023,-5.4023,-5.4023,-5.4023,-5.4023,-5.4023,-5.4023,-5.4023,-5.4023,-5.4023,-5.4023,-5.4023,-5.4023,-5.4414,-5.4824,-5.5176,-5.5644,-5.6094,-5.6445,-5.6543,-5.6582,-5.6582,-5.6582,-5.6582,-5.6582,-5.6582,-5.6582,-5.6582,-5.6582,-5.6582,-5.6601,-5.6796,-5.7776,-2.993,-3.5501,-4.0887,-4.3251,-4.6427,-4.9258,-5.0078,-5.0312,-5.0351,-5.0351,-5.0918,-5.1426,-5.1426,-5.1426,-5.1426,-5.1426,-5.1426,-5.1426,-5.1426,-5.1426,-5.1426,-5.1426,-5.1426,-5.1426,-5.1426,-5.1426,-5.1426,-5.1426,-5.1426,-5.1426,-5.1426,-5.1426,-5.1426,-5.1426,-5.1426,-5.1426,-5.1426,-5.1426,-5.1426,-5.1426,-5.1426,-5.1465,-5.1523,-5.1582,-5.1777,-5.2051,-5.168,-5.1484,-5.1426,-5.1426,-5.1426,-5.1426,-5.1426,-5.1426,-5.1426,-5.1426,-5.1426,-5.1426,-5.1426,-5.1426,-5.1426,-5.1426,-5.1426,-5.1426,-5.1426,-5.1426,-5.1426,-5.1426,-5.1426,-5.1523,-5.1894,-5.2031,-5.2266,-5.3008,-5.2988,-5.291,-5.3359,-5.375,-5.4023,-5.4023,-5.4023,-5.4023,-5.4023,-5.4023,-5.4023,-5.4023,-5.4023,-5.4023,-5.4023,-5.4023,-5.4023,-5.4023,-5.4414,-5.4707,-5.4765,-5.5488,-5.5957,-5.6015,-5.6387,-5.6582,-5.6582,-5.6582,-5.6582,-5.6582,-5.6582,-5.6582,-5.6582,-5.6582,-5.6582,-5.6601,-5.7383,-5.8347,-3.0585,-3.5819,-4.0452,-4.2371,-4.528,-4.8008,-4.8867,-4.9453,-4.9805,-4.9805,-5.0312,-5.0801,-5.1035,-5.1074,-5.1152,-5.1387,-5.1426,-5.1426,-5.1426,-5.1426,-5.1426,-5.1426,-5.1426,-5.1426,-5.1426,-5.1426,-5.1426,-5.1426,-5.1426,-5.1426,-5.1426,-5.1426,-5.1426,-5.1426,-5.1426,-5.1426,-5.1426,-5.1426,-5.1426,-5.1426,-5.1426,-5.1426,-5.1426,-5.1426,-5.1543,-5.1719,-5.1523,-5.1426,-5.1426,-5.1426,-5.1426,-5.1426,-5.1426,-5.1426,-5.1426,-5.1426,-5.1426,-5.1426,-5.1426,-5.1426,-5.1426,-5.1426,-5.1426,-5.1426,-5.1426,-5.1426,-5.1426,-5.1426,-5.1426,-5.1465,-5.166,-5.1719,-5.1816,-5.2187,-5.2324,-5.2402,-5.2598,-5.3164,-5.373,-5.3984,-5.4023,-5.4023,-5.4023,-5.4023,-5.4023,-5.4023,-5.4023,-5.4023,-5.4023,-5.4023,-5.4023,-5.4023,-5.4199,-5.4414,-5.4668,-5.5234,-5.5683,-5.5918,-5.6348,-5.6582,-5.6582,-5.6582,-5.6582,-5.6582,-5.6582,-5.6582,-5.6582,-5.6582,-5.6582,-5.6601,-5.6932,-5.7913,-3.039,-3.4364,-3.802,-4.0711,-4.3576,-4.6269,-4.7441,-4.832,-4.8906,-4.9004,-4.9375,-4.9805,-5.0234,-5.0488,-5.0742,-5.1055,-5.1113,-5.1152,-5.125,-5.1269,-5.1308,-5.1426,-5.1426,-5.1426,-5.1426,-5.1426,-5.1426,-5.1426,-5.1426,-5.1426,-5.1426,-5.1426,-5.1426,-5.1426,-5.1426,-5.1426,-5.1426,-5.1426,-5.1426,-5.1426,-5.1426,-5.1426,-5.1426,-5.1426,-5.1426,-5.1426,-5.1426,-5.1426,-5.1426,-5.1426,-5.1426,-5.1426,-5.1426,-5.1426,-5.1426,-5.1426,-5.1426,-5.1426,-5.1426,-5.1426,-5.1426,-5.1426,-5.1426,-5.1426,-5.1426,-5.1426,-5.1426,-5.1426,-5.1426,-5.1426,-5.1426,-5.1426,-5.1465,-5.1562,-5.1758,-5.1973,-5.2187,-5.2734,-5.332,-5.3769,-5.3867,-5.3887,-5.4004,-5.4023,-5.4023,-5.4023,-5.4023,-5.4023,-5.4023,-5.4023,-5.4023,-5.4023,-5.4023,-5.416,-5.4492,-5.4902,-5.5293,-5.5605,-5.6133,-5.6426,-5.6426,-5.6523,-5.6582,-5.6582,-5.6582,-5.6582,-5.6582,-5.6582,-5.6582,-5.6601,-5.6718,-5.7402,-2.8194,-3.0762,-3.3652,-3.8214,-4.1269,-4.3828,-4.5918,-4.6738,-4.7187,-4.7598,-4.8008,-4.8437,-4.8887,-4.9648,-5.0215,-5.0234,-5.0234,-5.0391,-5.0781,-5.084,-5.0976,-5.1387,-5.1426,-5.1426,-5.1426,-5.1426,-5.1426,-5.1426,-5.1426,-5.1426,-5.1426,-5.1426,-5.1426,-5.1426,-5.1426,-5.1426,-5.1426,-5.1426,-5.1426,-5.1426,-5.1426,-5.1426,-5.1426,-5.1426,-5.1426,-5.1426,-5.1426,-5.1426,-5.1426,-5.1426,-5.1426,-5.1426,-5.1426,-5.1426,-5.1426,-5.1426,-5.1426,-5.1426,-5.1426,-5.1426,-5.1426,-5.1426,-5.1426,-5.1426,-5.1426,-5.1426,-5.1426,-5.1426,-5.1426,-5.1426,-5.1426,-5.1426,-5.1543,-5.1953,-5.1758,-5.168,-5.25,-5.2715,-5.2871,-5.332,-5.3398,-5.3535,-5.3965,-5.4023,-5.4023,-5.4023,-5.4023,-5.4023,-5.4023,-5.4023,-5.4023,-5.4023,-5.4023,-5.4043,-5.4062,-5.4453,-5.4726,-5.4746,-5.5508,-5.5976,-5.5976,-5.6367,-5.6582,-5.6582,-5.6582,-5.6582,-5.6582,-5.6582,-5.6582,-5.6601,-5.7012,-5.7226,-2.7324,-2.9277,-3.1582,-3.6035,-3.8691,-4.0684,-4.2578,-4.4414,-4.582,-4.6269,-4.6914,-4.7519,-4.7949,-4.8984,-4.9844,-5.0137,-5.0176,-5.0234,-5.0391,-5.0391,-5.0449,-5.0605,-5.0859,-5.1035,-5.1035,-5.1269,-5.1426,-5.1426,-5.1426,-5.1426,-5.1426,-5.1426,-5.1426,-5.1426,-5.1426,-5.1426,-5.1426,-5.1426,-5.1426,-5.1426,-5.1426,-5.1426,-5.1426,-5.1426,-5.1426,-5.1426,-5.1426,-5.1426,-5.1426,-5.1426,-5.1426,-5.1426,-5.1426,-5.1426,-5.1426,-5.1426,-5.1426,-5.1426,-5.1426,-5.1426,-5.1426,-5.1426,-5.1426,-5.1426,-5.1426,-5.1426,-5.1426,-5.1426,-5.1426,-5.1426,-5.1426,-5.1426,-5.1465,-5.1621,-5.1543,-5.1523,-5.1816,-5.2324,-5.2754,-5.291,-5.3164,-5.3418,-5.3574,-5.3848,-5.4023,-5.4023,-5.4023,-5.4023,-5.4023,-5.4023,-5.4023,-5.4023,-5.4023,-5.4023,-5.4023,-5.4433,-5.4805,-5.5058,-5.5625,-5.6055,-5.6348,-5.6504,-5.7395,-5.9215,-5.9215,-5.8414,-5.6582,-5.8414,-5.8203,-5.6582,-5.8576,-5.8545,-2.582,-2.7519,-2.9707,-3.3887,-3.5801,-3.7461,-4.0664,-4.248,-4.3789,-4.4805,-4.582,-4.6641,-4.707,-4.7969,-4.8848,-4.9414,-4.9648,-4.9785,-4.9941,-4.9961,-5.0019,-5.0156,-5.043,-5.0586,-5.0586,-5.084,-5.1016,-5.1016,-5.1016,-5.1016,-5.1016,-5.1152,-5.1289,-5.1426,-5.1426,-5.1426,-5.1426,-5.1426,-5.1426,-5.1426,-5.1426,-5.1426,-5.1426,-5.1426,-5.1426,-5.1426,-5.1426,-5.1426,-5.1426,-5.1426,-5.1426,-5.1426,-5.1426,-5.1426,-5.1426,-5.1426,-5.1426,-5.1426,-5.1426,-5.1426,-5.1426,-5.1426,-5.1426,-5.1426,-5.1426,-5.1426,-5.1426,-5.1426,-5.1426,-5.1426,-5.1426,-5.1426,-5.1426,-5.1426,-5.1426,-5.1426,-5.1426,-5.1992,-5.25,-5.25,-5.2851,-5.3183,-5.334,-5.3613,-5.3848,-5.4004,-5.4023,-5.4023,-5.4023,-5.4023,-5.4023,-5.4023,-5.4023,-5.4023,-5.4023,-5.4297,-5.4648,-5.5058,-5.5488,-5.632,-5.7771,-5.7932,-5.9215,-6.1854,-6.206,-6.105,-5.9236,-6.105,-6.105,-5.9425,-6.1257,-6.0115,0.0,0.0,0.0,-3.168,-3.2656,-3.4258,-4.0176,-4.0918,-4.0976,-4.3144,-4.4629,-4.5664,-4.6152,-4.6601,-4.7168,-4.8008,-4.8535,-4.9004,-4.9453,-4.9512,-4.9668,-5.0098,-5.0156,-5.0156,-5.0156,-5.0176,-5.0176,-5.0176,-5.0176,-5.0176,-5.0176,-5.0566,-5.0976,-5.1406,-5.1406,-5.1426,-5.1426,-5.1426,-5.1426,-5.1426,-5.1426,-5.1426,-5.1426,-5.1426,-5.1426,-5.1426,-5.1426,-5.1426,-5.1426,-5.1426,-5.1426,-5.1426,-5.1426,-5.1426,-5.1426,-5.1426,-5.1426,-5.1426,-5.1426,-5.1426,-5.1426,-5.1426,-5.1426,-5.1426,-5.1426,-5.1426,-5.1426,-5.1426,-5.1426,-5.1426,-5.1426,-5.1426,-5.1426,-5.1426,-5.1426,-5.1426,-5.1426,-5.1777,-5.207,-5.207,-5.2402,-5.2832,-5.3262,-5.3359,-5.3516,-5.3965,-5.4023,-5.4023,-5.4023,-5.4023,-5.4023,-5.4023,-5.4023,-5.4023,-5.4023,-5.4023,-5.4219,-5.4668,-5.5078,-5.6701,-5.9963,-6.0404,-6.206,-6.4706,-6.4908,-6.4908,-6.4908,-6.4908,-6.4706,-6.4706,-6.4706,-6.1959,-2.4355,0.0,0.0,0.0,0.0,0.0,-3.416,-3.5605,-3.7187,-4.0312,-4.1484,-4.2558,-4.4551,-4.5527,-4.6211,-4.6738,-4.7715,-4.8535,-4.8984,-4.9043,-4.9082,-4.9199,-4.9512,-4.9707,-4.9707,-5.0,-5.0176,-5.0176,-5.0176,-5.0176,-5.0176,-5.0293,-5.0547,-5.0957,-5.0976,-5.1133,-5.1426,-5.1426,-5.1426,-5.1426,-5.1426,-5.1426,-5.1426,-5.1426,-5.1426,-5.1426,-5.1426,-5.1426,-5.1426,-5.1426,-5.1426,-5.1426,-5.1426,-5.1426,-5.1426,-5.1426,-5.1426,-5.1426,-5.1426,-5.1426,-5.1426,-5.1426,-5.1426,-5.1426,-5.1426,-5.1426,-5.1426,-5.1426,-5.1426,-5.1426,-5.1426,-5.1426,-5.1426,-5.1426,-5.1426,-5.1426,-5.1426,-5.1777,-5.1992,-5.168,-5.1953,-5.2383,-5.2812,-5.3144,-5.3516,-5.3965,-5.4023,-5.4023,-5.4023,-5.4023,-5.4023,-5.4023,-5.4023,-5.4023,-5.4023,-5.4023,-5.4336,-5.5098,-5.7021,-5.8829,-6.0404,-6.2405,-6.4885,-6.7498,-6.7695,-6.8504,-7.0517,-6.8504,-6.6684,-6.4706,-6.4706,-6.3878,-2.5742,-2.6621,-2.8027,-2.8945,0.0,0.0,-3.3047,-3.3848,-3.4844,-3.8144,-3.9434,-4.0547,-4.2422,-4.3476,-4.4375,-4.5351,-4.6426,-4.748,-4.8457,-4.8437,-4.8457,-4.8808,-4.8926,-4.9043,-4.9238,-4.9473,-4.9629,-4.9629,-4.9629,-4.9707,-4.9902,-4.9902,-5.0098,-5.0527,-5.0723,-5.0918,-5.1172,-5.1348,-5.1426,-5.1426,-5.1426,-5.1426,-5.1426,-5.1426,-5.1426,-5.1426,-5.1426,-5.1426,-5.1426,-5.1426,-5.1426,-5.1426,-5.1426,-5.1426,-5.1426,-5.1426,-5.1426,-5.1426,-5.1426,-5.1426,-5.1426,-5.1426,-5.1426,-5.1426,-5.1426,-5.1426,-5.1426,-5.1426,-5.1426,-5.1426,-5.1426,-5.1426,-5.1426,-5.1426,-5.1426,-5.1426,-5.1426,-5.1641,-5.1738,-5.1484,-5.1777,-5.2168,-5.2402,-5.2812,-5.3242,-5.3672,-5.3906,-5.4023,-5.4023,-5.4023,-5.4023,-5.4023,-5.4023,-5.4023,-5.4023,-5.4023,-5.4394,-5.5254,-5.7884,-6.0281,-6.2222,-6.4885,-6.7695,-7.03,-7.03,-7.1118,-7.274,-7.1118,-6.9502,-6.8112,-6.8112,-6.8112,-2.7591,0.0,0.0,-3.1465,-3.0351,0.0,-3.4199,-3.3789,-3.3281,-3.6016,-3.748,-3.8613,-3.9687,-4.0625,-4.1758,-4.334,-4.4531,-4.5898,-4.7793,-4.7793,-4.7871,-4.8633,-4.8379,-4.8301,-4.8672,-4.8711,-4.873,-4.8789,-4.8828,-4.9023,-4.9433,-4.9453,-4.9648,-5.0098,-5.0508,-5.0762,-5.0801,-5.123,-5.1426,-5.1426,-5.1426,-5.1426,-5.1426,-5.1426,-5.1426,-5.1426,-5.1426,-5.1426,-5.1426,-5.1426,-5.1426,-5.1426,-5.1426,-5.1426,-5.1426,-5.1426,-5.1426,-5.1426,-5.1426,-5.1426,-5.1426,-5.1426,-5.1426,-5.1426,-5.1426,-5.1426,-5.1426,-5.1426,-5.1426,-5.1426,-5.1426,-5.1426,-5.1426,-5.1426,-5.1426,-5.1426,-5.1426,-5.1426,-5.1426,-5.1426,-5.1738,-5.2031,-5.207,-5.2422,-5.2851,-5.3301,-5.373,-5.4023,-5.4023,-5.4023,-5.4023,-5.4023,-5.4023,-5.4023,-5.4023,-5.4082,-5.4453,-5.5254,-5.813,-6.1317,-6.4662,-6.7498,-7.03,-7.2715,-7.274,-7.274,-7.274,-7.274,-7.274,-7.274,-7.274,-7.274,-3.0065,-3.1309,-3.2148,-3.0488,-3.1269,0.0,-3.0195,-3.0293,-3.1016,-3.1953,-3.2344,-3.3203,-3.543,-3.6836,-3.7891,-3.8574,-4.0859,-4.3633,-4.6738,-4.7402,-4.7637,-4.7812,-4.7754,-4.7734,-4.7812,-4.7832,-4.7969,-4.8301,-4.8652,-4.8887,-4.8984,-4.8984,-4.9199,-4.9648,-5.0078,-5.0469,-5.0801,-5.123,-5.1426,-5.1426,-5.1426,-5.1426,-5.1426,-5.1426,-5.1426,-5.1426,-5.1426,-5.1426,-5.1426,-5.1426,-5.1426,-5.1426,-5.1426,-5.1426,-5.1426,-5.1426,-5.1426,-5.1426,-5.1426,-5.1426,-5.1426,-5.1426,-5.1426,-5.1426,-5.1426,-5.1426,-5.1426,-5.1426,-5.1426,-5.1426,-5.1426,-5.1426,-5.1426,-5.1426,-5.1426,-5.1426,-5.1426,-5.1426,-5.1426,-5.1426,-5.1504,-5.166,-5.2031,-5.2422,-5.2851,-5.3301,-5.373,-5.4023,-5.4023,-5.4023,-5.4023,-5.4023,-5.4023,-5.4023,-5.4023,-5.4355,-5.4765,-5.5273,-6.0196,-6.3657,-6.4684,-6.9308,-7.2122,-7.274,-7.274,-7.274,-7.274,-7.274,-7.274,-7.274,-7.274,-7.274,-3.2409,-3.293,-3.3535,-3.2695,-3.248,0.0,0.0,-3.0664,-3.0449,-3.2383,-3.1777,-3.1601,-3.3945,-3.4922,-3.5586,-3.625,-3.8887,-4.1289,-4.2578,-4.4805,-4.6465,-4.6894,-4.6758,-4.6797,-4.7207,-4.7246,-4.7441,-4.7871,-4.8086,-4.832,-4.8516,-4.8535,-4.873,-4.918,-4.9629,-4.9961,-5.0176,-5.0801,-5.1113,-5.1113,-5.1328,-5.1426,-5.1426,-5.1426,-5.1426,-5.1426,-5.1426,-5.1426,-5.1426,-5.1426,-5.1426,-5.1426,-5.1426,-5.1426,-5.1426,-5.1426,-5.1426,-5.1426,-5.1426,-5.1426,-5.1426,-5.1426,-5.1426,-5.1426,-5.1426,-5.1426,-5.1426,-5.1426,-5.1426,-5.1426,-5.1426,-5.1426,-5.1426,-5.1426,-5.1426,-5.1426,-5.1426,-5.1426,-5.1426,-5.1426,-5.1426,-5.1504,-5.1719,-5.2285,-5.2793,-5.3008,-5.3594,-5.4023,-5.4023,-5.4023,-5.4023,-5.4023,-5.4023,-5.4023,-5.4023,-5.4238,-5.5128,-5.6738,-6.0891,-6.4111,-6.6291,-7.0127,-7.2439,-7.2715,-7.274,-7.274,-7.274,-7.274,-7.274,-7.274,-7.274,-7.274,-3.4677,-3.4863,-3.5312,-3.5273,-3.4121,-3.3125,0.0,0.0,0.0,-3.3125,-3.2012,-3.1191,-3.2988,-3.332,-3.3535,-3.418,-3.6875,-3.8535,-3.748,-4.084,-4.3789,-4.4805,-4.5,-4.5312,-4.5996,-4.5996,-4.6289,-4.7148,-4.6816,-4.6992,-4.791,-4.7969,-4.8203,-4.8711,-4.916,-4.9433,-4.9531,-5.0293,-5.0683,-5.0683,-5.1113,-5.1308,-5.1308,-5.1387,-5.1426,-5.1426,-5.1426,-5.1426,-5.1426,-5.1426,-5.1426,-5.1426,-5.1426,-5.1426,-5.1426,-5.1426,-5.1426,-5.1426,-5.1426,-5.1426,-5.1426,-5.1426,-5.1426,-5.1426,-5.1426,-5.1426,-5.1426,-5.1426,-5.1426,-5.1426,-5.1426,-5.1426,-5.1426,-5.1426,-5.1426,-5.1426,-5.1426,-5.1426,-5.1426,-5.1426,-5.1426,-5.1426,-5.1426,-5.207,-5.2617,-5.2695,-5.3398,-5.3926,-5.4023,-5.4023,-5.4023,-5.4023,-5.4023,-5.4023,-5.4023,-5.4101,-5.5463,-5.8356,-6.1184,-6.4176,-6.7674,-7.0595,-7.2288,-7.2715,-7.274,-7.274,-7.274,-7.274,-7.274,-7.274,-7.274,-7.274,-3.7302,-3.8867,-3.8984,-3.5625,-3.6562,-3.6894,-3.1406,0.0,-3.1894,-2.998,0.0,-2.9902,-3.0527,0.0,0.0,-3.0273,-3.3066,-3.4726,-3.3125,-3.5625,-3.8223,-3.9824,-4.166,-4.2832,-4.293,-4.2598,-4.3359,-4.5723,-4.4101,-4.4199,-4.6933,-4.707,-4.7441,-4.8262,-4.8711,-4.9121,-4.9531,-5.0,-5.0254,-5.0254,-5.0683,-5.0879,-5.0898,-5.1269,-5.1426,-5.1426,-5.1426,-5.1426,-5.1426,-5.1426,-5.1426,-5.1426,-5.1426,-5.1426,-5.1426,-5.1426,-5.1426,-5.1426,-5.1426,-5.1426,-5.1426,-5.1426,-5.1426,-5.1426,-5.1426,-5.1426,-5.1426,-5.1426,-5.1426,-5.1426,-5.1426,-5.1426,-5.1426,-5.1426,-5.1426,-5.1426,-5.1426,-5.1426,-5.1426,-5.1426,-5.1426,-5.1426,-5.1426,-5.1836,-5.2285,-5.2656,-5.3125,-5.3574,-5.3984,-5.4023,-5.4023,-5.4023,-5.4023,-5.4023,-5.4023,-5.4394,-5.5803,-5.8377,-6.1314,-6.4564,-6.7698,-7.0964,-7.2665,-7.274,-7.274,-7.274,-7.274,-7.274,-7.274,-7.274,-7.274,-7.274,-3.8464,-3.8231,-3.7502,-3.6518,-3.5572,-3.4426,-3.2642,-3.1934,-3.1738,-3.1875,0.0,0.0,0.0,0.0,0.0,0.0,-3.1211,-3.1973,-3.0488,-3.2246,-3.4687,-3.7422,-3.8535,-3.9668,-4.1172,-4.1172,-4.1816,-4.3652,-4.25,-4.2793,-4.5332,-4.6152,-4.6953,-4.7812,-4.8262,-4.8691,-4.9141,-4.957,-4.9805,-4.9805,-5.0488,-5.0801,-5.082,-5.123,-5.1426,-5.1426,-5.1426,-5.1426,-5.1426,-5.1426,-5.1426,-5.1426,-5.1426,-5.1426,-5.1426,-5.1426,-5.1426,-5.1426,-5.1426,-5.1426,-5.1426,-5.1426,-5.1426,-5.1426,-5.1426,-5.1426,-5.1426,-5.1426,-5.1426,-5.1426,-5.1426,-5.1426,-5.1426,-5.1426,-5.1426,-5.1426,-5.1426,-5.1426,-5.1426,-5.1426,-5.1426,-5.1426,-5.1426,-5.1797,-5.2148,-5.2324,-5.293,-5.3418,-5.3613,-5.3867,-5.4023,-5.4023,-5.4023,-5.4023,-5.4023,-5.4199,-5.6052,-6.0114,-6.5128,-6.8415,-6.9627,-7.1673,-7.274,-7.274,-7.274,-7.274,-7.274,-7.274,-7.274,-7.274,-7.274,-7.274,-3.852,-3.7588,-3.6794,-3.6893,-3.5048,-3.3219,-3.3328,-3.2637,-3.2285,-3.3476,-3.2695,0.0,0.0,0.0,-3.0117,-2.9648,0.0,-3.0156,-2.8613,-2.959,-3.1621,-3.4726,-3.582,-3.7148,-3.9258,-3.8828,-3.9277,-4.1387,-4.0215,-4.0762,-4.3867,-4.5019,-4.6094,-4.7187,-4.7754,-4.8242,-4.8672,-4.9121,-4.9414,-4.9531,-5.0273,-5.0683,-5.082,-5.123,-5.1426,-5.1426,-5.1426,-5.1426,-5.1426,-5.1426,-5.1426,-5.1426,-5.1426,-5.1426,-5.1426,-5.1426,-5.1426,-5.1426,-5.1426,-5.1426,-5.1426,-5.1426,-5.1426,-5.1426,-5.1426,-5.1426,-5.1426,-5.1426,-5.1426,-5.1426,-5.1426,-5.1426,-5.1426,-5.1426,-5.1426,-5.1426,-5.1426,-5.1426,-5.1426,-5.1426,-5.1426,-5.1426,-5.1426,-5.1699,-5.1953,-5.207,-5.2715,-5.3223,-5.334,-5.375,-5.4023,-5.4023,-5.4023,-5.4023,-5.4023,-5.4615,-5.731,-6.2516,-6.7925,-7.1083,-7.1083,-7.2138,-7.274,-7.274,-7.274,-7.274,-7.274,-7.274,-7.274,-7.274,-7.274,-7.274,-3.7282,-3.8671,-3.8377,-3.6528,-3.6348,-3.5607,-3.2363,-3.3144,-3.4238,-3.3086,-3.4434,-3.5332,-3.3711,-3.2676,-3.1523,-2.9844,-2.9941,0.0,0.0,-2.748,-2.8613,-3.082,-3.3652,-3.5801,-3.6699,-3.4512,-3.4785,-3.8984,-3.6582,-3.7305,-4.2832,-4.3555,-4.457,-4.6289,-4.7168,-4.7793,-4.8223,-4.8672,-4.9101,-4.9531,-4.998,-5.041,-5.082,-5.123,-5.1426,-5.1426,-5.1426,-5.1426,-5.1426,-5.1426,-5.1426,-5.1426,-5.1426,-5.1426,-5.1426,-5.1426,-5.1426,-5.1426,-5.1426,-5.1426,-5.1426,-5.1426,-5.1426,-5.1426,-5.1426,-5.1426,-5.1426,-5.1426,-5.1426,-5.1426,-5.1426,-5.1426,-5.1426,-5.1426,-5.1426,-5.1426,-5.1426,-5.1426,-5.1426,-5.1426,-5.1426,-5.1426,-5.1426,-5.1445,-5.1601,-5.2012,-5.2461,-5.2891,-5.3301,-5.375,-5.4023,-5.4023,-5.4023,-5.4023,-5.4023,-5.6352,-6.0027,-6.5211,-6.9091,-7.1083,-7.1083,-7.2138,-7.274,-7.274,-7.274,-7.274,-7.274,-7.274,-7.274,-7.274,-7.274,-7.274,-3.8698,-3.8758,-3.7986,-3.8498,-3.7042,-3.5179,-3.3521,-3.4219,-3.4707,-3.3125,-3.4512,-3.5488,-3.375,-3.25,-3.1348,-3.0176,-2.916,-2.8066,0.0,-2.7226,-2.793,-2.8672,-3.1426,-3.3262,-3.3262,-3.2988,-3.3867,-3.6484,-3.5996,-3.7266,-4.1172,-4.3144,-4.457,-4.543,-4.6836,-4.7773,-4.8203,-4.8633,-4.8945,-4.9101,-4.9531,-4.998,-5.041,-5.082,-5.1172,-5.1426,-5.1426,-5.1426,-5.1426,-5.1426,-5.1426,-5.1426,-5.1426,-5.1426,-5.1426,-5.1426,-5.1426,-5.1426,-5.1426,-5.1426,-5.1426,-5.1426,-5.1426,-5.1426,-5.1426,-5.1426,-5.1426,-5.1426,-5.1426,-5.1426,-5.1426,-5.1426,-5.1426,-5.1426,-5.1426,-5.1426,-5.1426,-5.1426,-5.1426,-5.1426,-5.1426,-5.1426,-5.1426,-5.1426,-5.1484,-5.1621,-5.2266,-5.2754,-5.291,-5.3574,-5.4023,-5.4023,-5.5588,-5.6553,-5.6553,-6.0611,-6.3681,-6.5421,-6.9116,-7.1083,-7.1083,-7.2138,-7.274,-7.274,-7.274,-7.274,-7.274,-7.274,-7.274,-7.274,-7.274,-7.274,-3.7218,-3.6845,-3.6313,-3.7453,-3.6805,-3.5276,-3.3909,-3.4989,-3.5801,-3.4082,-3.4941,-3.5762,-3.4941,-3.3125,-3.1504,-3.0781,-2.9101,-2.748,0.0,-2.6758,-2.7207,-2.7207,-2.9453,-3.1094,-3.1269,-3.1094,-3.207,-3.4726,-3.4902,-3.6387,-3.9863,-4.2226,-4.3887,-4.4766,-4.6465,-4.7558,-4.7969,-4.8555,-4.8945,-4.9101,-4.9394,-4.9824,-5.041,-5.0683,-5.1035,-5.1426,-5.1426,-5.1426,-5.1426,-5.1426,-5.1426,-5.1426,-5.1426,-5.1426,-5.1426,-5.1426,-5.1426,-5.1426,-5.1426,-5.1426,-5.1426,-5.1426,-5.1426,-5.1426,-5.1426,-5.1426,-5.1426,-5.1426,-5.1426,-5.1426,-5.1426,-5.1426,-5.1426,-5.1426,-5.1426,-5.1426,-5.1426,-5.1426,-5.1426,-5.1426,-5.1426,-5.1426,-5.1426,-5.1426,-5.1426,-5.1426,-5.2168,-5.2715,-5.2715,-5.3476,-5.4411,-5.5184,-5.6932,-5.8676,-6.0417,-6.3681,-6.5981,-6.6955,-6.9511,-7.1083,-7.1083,-7.2138,-7.274,-7.274,-7.274,-7.274,-7.274,-7.274,-7.274,-7.274,-7.274,-7.274]}]]